<?xml version='1.0' encoding='UTF-8'?>
<gpx version="1.1" creator="https://www.komoot.de" xmlns="http://www.topografix.com/GPX/1/1" xmlns:xsi="http://www.w3.org/2001/XMLSchema-instance" xsi:schemaLocation="http://www.topografix.com/GPX/1/1 http://www.topografix.com/GPX/1/1/gpx.xsd">
  <metadata>
    <name>64_760Schafmatt</name>
    <author>
      <link href="https://www.komoot.de">
        <text>komoot</text>
        <type>text/html</type>
      </link>
    </author>
  </metadata>
  <trk>
    <name>64_760Schafmatt</name>
    <trkseg>
      <trkpt lat="47.541749" lon="7.872993">
        <ele>350.016164</ele>
        <time>2021-11-22T09:14:17.067Z</time>
      </trkpt>
      <trkpt lat="47.541642" lon="7.873111">
        <ele>350.016164</ele>
        <time>2021-11-22T09:14:19.805Z</time>
      </trkpt>
      <trkpt lat="47.541415" lon="7.873496">
        <ele>350.016164</ele>
        <time>2021-11-22T09:14:26.402Z</time>
      </trkpt>
      <trkpt lat="47.541294" lon="7.873703">
        <ele>350.016164</ele>
        <time>2021-11-22T09:14:30.173Z</time>
      </trkpt>
      <trkpt lat="47.540851" lon="7.874125">
        <ele>350.299489</ele>
        <time>2021-11-22T09:14:40.506Z</time>
      </trkpt>
      <trkpt lat="47.540777" lon="7.874176">
        <ele>350.379041</ele>
        <time>2021-11-22T09:14:42.941Z</time>
      </trkpt>
      <trkpt lat="47.540711" lon="7.874222">
        <ele>350.450135</ele>
        <time>2021-11-22T09:14:43.993Z</time>
      </trkpt>
      <trkpt lat="47.540642" lon="7.874253">
        <ele>350.520414</ele>
        <time>2021-11-22T09:14:45.365Z</time>
      </trkpt>
      <trkpt lat="47.540403" lon="7.874334">
        <ele>350.759386</ele>
        <time>2021-11-22T09:14:50.827Z</time>
      </trkpt>
      <trkpt lat="47.540377" lon="7.874340">
        <ele>350.785033</ele>
        <time>2021-11-22T09:14:51.127Z</time>
      </trkpt>
      <trkpt lat="47.539972" lon="7.874430">
        <ele>351.184202</ele>
        <time>2021-11-22T09:14:58.829Z</time>
      </trkpt>
      <trkpt lat="47.539872" lon="7.874471">
        <ele>351.285336</ele>
        <time>2021-11-22T09:15:00.351Z</time>
      </trkpt>
      <trkpt lat="47.539688" lon="7.874574">
        <ele>351.477058</ele>
        <time>2021-11-22T09:15:04.335Z</time>
      </trkpt>
      <trkpt lat="47.539646" lon="7.874604">
        <ele>351.522506</ele>
        <time>2021-11-22T09:15:05.090Z</time>
      </trkpt>
      <trkpt lat="47.539198" lon="7.874910">
        <ele>351.927587</ele>
        <time>2021-11-22T09:15:12.969Z</time>
      </trkpt>
      <trkpt lat="47.538985" lon="7.874994">
        <ele>352.072883</ele>
        <time>2021-11-22T09:15:16.239Z</time>
      </trkpt>
      <trkpt lat="47.538883" lon="7.875038">
        <ele>352.142912</ele>
        <time>2021-11-22T09:15:17.723Z</time>
      </trkpt>
      <trkpt lat="47.538708" lon="7.875117">
        <ele>352.263506</ele>
        <time>2021-11-22T09:15:21.080Z</time>
      </trkpt>
      <trkpt lat="47.538559" lon="7.875230">
        <ele>352.373848</ele>
        <time>2021-11-22T09:15:23.751Z</time>
      </trkpt>
      <trkpt lat="47.538497" lon="7.875293">
        <ele>352.423409</ele>
        <time>2021-11-22T09:15:25.333Z</time>
      </trkpt>
      <trkpt lat="47.538334" lon="7.875552">
        <ele>352.580981</ele>
        <time>2021-11-22T09:15:29.466Z</time>
      </trkpt>
      <trkpt lat="47.537743" lon="7.877063">
        <ele>353.951256</ele>
        <time>2021-11-22T09:15:51.337Z</time>
      </trkpt>
      <trkpt lat="47.537282" lon="7.878657">
        <ele>355.858308</ele>
        <time>2021-11-22T09:16:18.148Z</time>
      </trkpt>
      <trkpt lat="47.537228" lon="7.878774">
        <ele>355.992512</ele>
        <time>2021-11-22T09:16:20.935Z</time>
      </trkpt>
      <trkpt lat="47.536958" lon="7.879251">
        <ele>356.562408</ele>
        <time>2021-11-22T09:16:30.430Z</time>
      </trkpt>
      <trkpt lat="47.536535" lon="7.879824">
        <ele>357.339756</ele>
        <time>2021-11-22T09:16:41.523Z</time>
      </trkpt>
      <trkpt lat="47.536438" lon="7.879933">
        <ele>357.504869</ele>
        <time>2021-11-22T09:16:44.896Z</time>
      </trkpt>
      <trkpt lat="47.536321" lon="7.880046">
        <ele>357.694284</ele>
        <time>2021-11-22T09:16:47.206Z</time>
      </trkpt>
      <trkpt lat="47.535358" lon="7.880775">
        <ele>358.481115</ele>
        <time>2021-11-22T09:17:06.021Z</time>
      </trkpt>
      <trkpt lat="47.535301" lon="7.880830">
        <ele>358.498432</ele>
        <time>2021-11-22T09:17:06.788Z</time>
      </trkpt>
      <trkpt lat="47.535261" lon="7.880868">
        <ele>358.510528</ele>
        <time>2021-11-22T09:17:07.677Z</time>
      </trkpt>
      <trkpt lat="47.534829" lon="7.881516">
        <ele>358.667033</ele>
        <time>2021-11-22T09:17:16.493Z</time>
      </trkpt>
      <trkpt lat="47.534289" lon="7.882849">
        <ele>359.254662</ele>
        <time>2021-11-22T09:17:32.927Z</time>
      </trkpt>
      <trkpt lat="47.534057" lon="7.883509">
        <ele>359.651591</ele>
        <time>2021-11-22T09:17:43.519Z</time>
      </trkpt>
      <trkpt lat="47.533746" lon="7.884696">
        <ele>360.360713</ele>
        <time>2021-11-22T09:17:58.766Z</time>
      </trkpt>
      <trkpt lat="47.533541" lon="7.885448">
        <ele>360.894614</ele>
        <time>2021-11-22T09:18:09.193Z</time>
      </trkpt>
      <trkpt lat="47.533339" lon="7.886156">
        <ele>361.400626</ele>
        <time>2021-11-22T09:18:18.937Z</time>
      </trkpt>
      <trkpt lat="47.533320" lon="7.886217">
        <ele>361.444852</ele>
        <time>2021-11-22T09:18:19.443Z</time>
      </trkpt>
      <trkpt lat="47.533028" lon="7.887167">
        <ele>362.126811</ele>
        <time>2021-11-22T09:18:33.834Z</time>
      </trkpt>
      <trkpt lat="47.532777" lon="7.888012">
        <ele>362.716444</ele>
        <time>2021-11-22T09:18:44.597Z</time>
      </trkpt>
      <trkpt lat="47.532545" lon="7.888809">
        <ele>363.270793</ele>
        <time>2021-11-22T09:18:55.070Z</time>
      </trkpt>
      <trkpt lat="47.532183" lon="7.889944">
        <ele>364.217737</ele>
        <time>2021-11-22T09:19:12.214Z</time>
      </trkpt>
      <trkpt lat="47.532138" lon="7.890043">
        <ele>364.320683</ele>
        <time>2021-11-22T09:19:13.766Z</time>
      </trkpt>
      <trkpt lat="47.532109" lon="7.890107">
        <ele>364.387169</ele>
        <time>2021-11-22T09:19:14.862Z</time>
      </trkpt>
      <trkpt lat="47.531882" lon="7.890580">
        <ele>364.887746</ele>
        <time>2021-11-22T09:19:22.397Z</time>
      </trkpt>
      <trkpt lat="47.531801" lon="7.890722">
        <ele>365.048097</ele>
        <time>2021-11-22T09:19:24.587Z</time>
      </trkpt>
      <trkpt lat="47.531750" lon="7.890821">
        <ele>365.155512</ele>
        <time>2021-11-22T09:19:26.371Z</time>
      </trkpt>
      <trkpt lat="47.531230" lon="7.891551">
        <ele>366.097059</ele>
        <time>2021-11-22T09:19:40.860Z</time>
      </trkpt>
      <trkpt lat="47.531142" lon="7.891658">
        <ele>366.275759</ele>
        <time>2021-11-22T09:19:43.185Z</time>
      </trkpt>
      <trkpt lat="47.530590" lon="7.892213">
        <ele>367.322907</ele>
        <time>2021-11-22T09:19:57.728Z</time>
      </trkpt>
      <trkpt lat="47.530382" lon="7.892408">
        <ele>367.709273</ele>
        <time>2021-11-22T09:20:03.033Z</time>
      </trkpt>
      <trkpt lat="47.529904" lon="7.892770">
        <ele>368.551894</ele>
        <time>2021-11-22T09:20:14.584Z</time>
      </trkpt>
      <trkpt lat="47.528729" lon="7.893229">
        <ele>369.925770</ele>
        <time>2021-11-22T09:20:38.574Z</time>
      </trkpt>
      <trkpt lat="47.528348" lon="7.893564">
        <ele>370.400400</ele>
        <time>2021-11-22T09:20:46.706Z</time>
      </trkpt>
      <trkpt lat="47.527849" lon="7.894151">
        <ele>370.961810</ele>
        <time>2021-11-22T09:20:57.861Z</time>
      </trkpt>
      <trkpt lat="47.527746" lon="7.894239">
        <ele>371.048242</ele>
        <time>2021-11-22T09:21:00.130Z</time>
      </trkpt>
      <trkpt lat="47.527340" lon="7.894491">
        <ele>371.368218</ele>
        <time>2021-11-22T09:21:07.904Z</time>
      </trkpt>
      <trkpt lat="47.527166" lon="7.894633">
        <ele>371.512624</ele>
        <time>2021-11-22T09:21:11.443Z</time>
      </trkpt>
      <trkpt lat="47.527021" lon="7.894751">
        <ele>371.632883</ele>
        <time>2021-11-22T09:21:14.339Z</time>
      </trkpt>
      <trkpt lat="47.526858" lon="7.894982">
        <ele>371.796869</ele>
        <time>2021-11-22T09:21:18.356Z</time>
      </trkpt>
      <trkpt lat="47.526767" lon="7.895145">
        <ele>371.900674</ele>
        <time>2021-11-22T09:21:20.799Z</time>
      </trkpt>
      <trkpt lat="47.526716" lon="7.895243">
        <ele>371.961401</ele>
        <time>2021-11-22T09:21:22.349Z</time>
      </trkpt>
      <trkpt lat="47.526684" lon="7.895312">
        <ele>372.002485</ele>
        <time>2021-11-22T09:21:23.290Z</time>
      </trkpt>
      <trkpt lat="47.526615" lon="7.895508">
        <ele>372.106356</ele>
        <time>2021-11-22T09:21:25.976Z</time>
      </trkpt>
      <trkpt lat="47.526589" lon="7.895591">
        <ele>372.149141</ele>
        <time>2021-11-22T09:21:26.957Z</time>
      </trkpt>
      <trkpt lat="47.526565" lon="7.895692">
        <ele>372.199209</ele>
        <time>2021-11-22T09:21:28.153Z</time>
      </trkpt>
      <trkpt lat="47.526559" lon="7.895723">
        <ele>372.214289</ele>
        <time>2021-11-22T09:21:28.682Z</time>
      </trkpt>
      <trkpt lat="47.526238" lon="7.897258">
        <ele>372.965713</ele>
        <time>2021-11-22T09:21:47.582Z</time>
      </trkpt>
      <trkpt lat="47.525839" lon="7.898443">
        <ele>373.851992</ele>
        <time>2021-11-22T09:22:03.480Z</time>
      </trkpt>
      <trkpt lat="47.525783" lon="7.898584">
        <ele>373.991146</ele>
        <time>2021-11-22T09:22:05.761Z</time>
      </trkpt>
      <trkpt lat="47.525734" lon="7.898704">
        <ele>374.110441</ele>
        <time>2021-11-22T09:22:07.197Z</time>
      </trkpt>
      <trkpt lat="47.525605" lon="7.899006">
        <ele>374.414431</ele>
        <time>2021-11-22T09:22:12.048Z</time>
      </trkpt>
      <trkpt lat="47.525500" lon="7.899228">
        <ele>374.645000</ele>
        <time>2021-11-22T09:22:15.256Z</time>
      </trkpt>
      <trkpt lat="47.525195" lon="7.899847">
        <ele>375.296855</ele>
        <time>2021-11-22T09:22:26.953Z</time>
      </trkpt>
      <trkpt lat="47.524581" lon="7.901010">
        <ele>377.090589</ele>
        <time>2021-11-22T09:22:48.700Z</time>
      </trkpt>
      <trkpt lat="47.524527" lon="7.901116">
        <ele>377.262653</ele>
        <time>2021-11-22T09:22:50.962Z</time>
      </trkpt>
      <trkpt lat="47.524641" lon="7.901259">
        <ele>377.549353</ele>
        <time>2021-11-22T09:22:56.890Z</time>
      </trkpt>
      <trkpt lat="47.524659" lon="7.901276">
        <ele>377.590321</ele>
        <time>2021-11-22T09:22:57.812Z</time>
      </trkpt>
      <trkpt lat="47.524697" lon="7.901307">
        <ele>377.673576</ele>
        <time>2021-11-22T09:23:00.005Z</time>
      </trkpt>
      <trkpt lat="47.524656" lon="7.901470">
        <ele>377.898977</ele>
        <time>2021-11-22T09:23:03.673Z</time>
      </trkpt>
      <trkpt lat="47.524579" lon="7.901732">
        <ele>378.269250</ele>
        <time>2021-11-22T09:23:08.703Z</time>
      </trkpt>
      <trkpt lat="47.524513" lon="7.901974">
        <ele>378.607455</ele>
        <time>2021-11-22T09:23:14.302Z</time>
      </trkpt>
      <trkpt lat="47.524302" lon="7.902074">
        <ele>379.042543</ele>
        <time>2021-11-22T09:23:19.150Z</time>
      </trkpt>
      <trkpt lat="47.524257" lon="7.902040">
        <ele>379.156637</ele>
        <time>2021-11-22T09:23:20.230Z</time>
      </trkpt>
      <trkpt lat="47.524155" lon="7.901962">
        <ele>379.415899</ele>
        <time>2021-11-22T09:23:23.355Z</time>
      </trkpt>
      <trkpt lat="47.524105" lon="7.901935">
        <ele>379.536095</ele>
        <time>2021-11-22T09:23:24.293Z</time>
      </trkpt>
      <trkpt lat="47.524053" lon="7.902011">
        <ele>379.701098</ele>
        <time>2021-11-22T09:23:27.543Z</time>
      </trkpt>
      <trkpt lat="47.523736" lon="7.902614">
        <ele>380.866546</ele>
        <time>2021-11-22T09:23:40.296Z</time>
      </trkpt>
      <trkpt lat="47.523596" lon="7.902876">
        <ele>381.376087</ele>
        <time>2021-11-22T09:23:45.378Z</time>
      </trkpt>
      <trkpt lat="47.523266" lon="7.903337">
        <ele>382.400666</ele>
        <time>2021-11-22T09:23:55.250Z</time>
      </trkpt>
      <trkpt lat="47.521825" lon="7.905747">
        <ele>388.097123</ele>
        <time>2021-11-22T09:24:52.758Z</time>
      </trkpt>
      <trkpt lat="47.520794" lon="7.907911">
        <ele>391.231004</ele>
        <time>2021-11-22T09:25:32.079Z</time>
      </trkpt>
      <trkpt lat="47.520749" lon="7.908027">
        <ele>391.310128</ele>
        <time>2021-11-22T09:25:34.168Z</time>
      </trkpt>
      <trkpt lat="47.520698" lon="7.908161">
        <ele>391.401104</ele>
        <time>2021-11-22T09:25:35.875Z</time>
      </trkpt>
      <trkpt lat="47.520434" lon="7.909257">
        <ele>392.089352</ele>
        <time>2021-11-22T09:25:52.489Z</time>
      </trkpt>
      <trkpt lat="47.520025" lon="7.910953">
        <ele>393.966184</ele>
        <time>2021-11-22T09:26:22.834Z</time>
      </trkpt>
      <trkpt lat="47.520007" lon="7.911009">
        <ele>394.073675</ele>
        <time>2021-11-22T09:26:23.309Z</time>
      </trkpt>
      <trkpt lat="47.519956" lon="7.911165">
        <ele>394.374068</ele>
        <time>2021-11-22T09:26:34.749Z</time>
      </trkpt>
      <trkpt lat="47.519921" lon="7.911269">
        <ele>394.575462</ele>
        <time>2021-11-22T09:26:35.870Z</time>
      </trkpt>
      <trkpt lat="47.519645" lon="7.911898">
        <ele>395.875551</ele>
        <time>2021-11-22T09:26:47.960Z</time>
      </trkpt>
      <trkpt lat="47.519183" lon="7.912644">
        <ele>397.601481</ele>
        <time>2021-11-22T09:27:14.989Z</time>
      </trkpt>
      <trkpt lat="47.519055" lon="7.912811">
        <ele>397.994877</ele>
        <time>2021-11-22T09:27:24.655Z</time>
      </trkpt>
      <trkpt lat="47.518820" lon="7.913091">
        <ele>398.690434</ele>
        <time>2021-11-22T09:27:32.030Z</time>
      </trkpt>
      <trkpt lat="47.518033" lon="7.914054">
        <ele>401.044719</ele>
        <time>2021-11-22T09:27:57.888Z</time>
      </trkpt>
      <trkpt lat="47.517976" lon="7.914148">
        <ele>401.241460</ele>
        <time>2021-11-22T09:27:59.742Z</time>
      </trkpt>
      <trkpt lat="47.517140" lon="7.915867">
        <ele>404.188393</ele>
        <time>2021-11-22T09:28:32.222Z</time>
      </trkpt>
      <trkpt lat="47.517038" lon="7.916039">
        <ele>404.503626</ele>
        <time>2021-11-22T09:28:35.811Z</time>
      </trkpt>
      <trkpt lat="47.516946" lon="7.916165">
        <ele>404.759176</ele>
        <time>2021-11-22T09:28:39.089Z</time>
      </trkpt>
      <trkpt lat="47.516287" lon="7.916882">
        <ele>406.601173</ele>
        <time>2021-11-22T09:28:59.046Z</time>
      </trkpt>
      <trkpt lat="47.515613" lon="7.917513">
        <ele>408.452098</ele>
        <time>2021-11-22T09:29:19.258Z</time>
      </trkpt>
      <trkpt lat="47.515086" lon="7.917919">
        <ele>409.614792</ele>
        <time>2021-11-22T09:29:32.585Z</time>
      </trkpt>
      <trkpt lat="47.514270" lon="7.918422">
        <ele>410.762420</ele>
        <time>2021-11-22T09:29:50.754Z</time>
      </trkpt>
      <trkpt lat="47.512905" lon="7.919578">
        <ele>412.218517</ele>
        <time>2021-11-22T09:30:18.990Z</time>
      </trkpt>
      <trkpt lat="47.512556" lon="7.919960">
        <ele>412.489605</ele>
        <time>2021-11-22T09:30:26.155Z</time>
      </trkpt>
      <trkpt lat="47.512331" lon="7.920282">
        <ele>412.685062</ele>
        <time>2021-11-22T09:30:31.389Z</time>
      </trkpt>
      <trkpt lat="47.512197" lon="7.920511">
        <ele>412.814349</ele>
        <time>2021-11-22T09:30:34.720Z</time>
      </trkpt>
      <trkpt lat="47.511767" lon="7.921389">
        <ele>413.320365</ele>
        <time>2021-11-22T09:30:47.259Z</time>
      </trkpt>
      <trkpt lat="47.511415" lon="7.922417">
        <ele>413.858128</ele>
        <time>2021-11-22T09:31:01.011Z</time>
      </trkpt>
      <trkpt lat="47.511246" lon="7.922736">
        <ele>414.052778</ele>
        <time>2021-11-22T09:31:06.005Z</time>
      </trkpt>
      <trkpt lat="47.511001" lon="7.923070">
        <ele>414.502171</ele>
        <time>2021-11-22T09:31:12.314Z</time>
      </trkpt>
      <trkpt lat="47.510052" lon="7.924017">
        <ele>416.046420</ele>
        <time>2021-11-22T09:31:35.537Z</time>
      </trkpt>
      <trkpt lat="47.509886" lon="7.924134">
        <ele>416.294499</ele>
        <time>2021-11-22T09:31:39.721Z</time>
      </trkpt>
      <trkpt lat="47.509806" lon="7.924174">
        <ele>416.408436</ele>
        <time>2021-11-22T09:31:41.454Z</time>
      </trkpt>
      <trkpt lat="47.509676" lon="7.924247">
        <ele>416.634627</ele>
        <time>2021-11-22T09:31:44.325Z</time>
      </trkpt>
      <trkpt lat="47.509605" lon="7.924290">
        <ele>416.769453</ele>
        <time>2021-11-22T09:31:45.950Z</time>
      </trkpt>
      <trkpt lat="47.509572" lon="7.924311">
        <ele>416.832584</ele>
        <time>2021-11-22T09:31:46.925Z</time>
      </trkpt>
      <trkpt lat="47.509223" lon="7.924628">
        <ele>417.552224</ele>
        <time>2021-11-22T09:31:55.781Z</time>
      </trkpt>
      <trkpt lat="47.509032" lon="7.924863">
        <ele>417.988718</ele>
        <time>2021-11-22T09:32:01.288Z</time>
      </trkpt>
      <trkpt lat="47.509016" lon="7.924882">
        <ele>418.024768</ele>
        <time>2021-11-22T09:32:01.732Z</time>
      </trkpt>
      <trkpt lat="47.508667" lon="7.925295">
        <ele>418.810044</ele>
        <time>2021-11-22T09:32:11.673Z</time>
      </trkpt>
      <trkpt lat="47.508355" lon="7.925609">
        <ele>419.473119</ele>
        <time>2021-11-22T09:32:19.792Z</time>
      </trkpt>
      <trkpt lat="47.508106" lon="7.925799">
        <ele>420.097638</ele>
        <time>2021-11-22T09:32:25.892Z</time>
      </trkpt>
      <trkpt lat="47.508002" lon="7.925879">
        <ele>420.384730</ele>
        <time>2021-11-22T09:32:28.157Z</time>
      </trkpt>
      <trkpt lat="47.507856" lon="7.925990">
        <ele>420.786768</ele>
        <time>2021-11-22T09:32:31.884Z</time>
      </trkpt>
      <trkpt lat="47.506112" lon="7.927414">
        <ele>426.484734</ele>
        <time>2021-11-22T09:33:23.008Z</time>
      </trkpt>
      <trkpt lat="47.505881" lon="7.927601">
        <ele>427.453822</ele>
        <time>2021-11-22T09:33:32.500Z</time>
      </trkpt>
      <trkpt lat="47.505868" lon="7.927611">
        <ele>427.507746</ele>
        <time>2021-11-22T09:33:32.985Z</time>
      </trkpt>
      <trkpt lat="47.505814" lon="7.927657">
        <ele>427.737068</ele>
        <time>2021-11-22T09:33:34.878Z</time>
      </trkpt>
      <trkpt lat="47.505253" lon="7.928170">
        <ele>430.164184</ele>
        <time>2021-11-22T09:33:56.752Z</time>
      </trkpt>
      <trkpt lat="47.504799" lon="7.928777">
        <ele>431.723615</ele>
        <time>2021-11-22T09:34:12.587Z</time>
      </trkpt>
      <trkpt lat="47.504724" lon="7.928871">
        <ele>431.943034</ele>
        <time>2021-11-22T09:34:17.105Z</time>
      </trkpt>
      <trkpt lat="47.504650" lon="7.928941">
        <ele>432.139115</ele>
        <time>2021-11-22T09:34:19.077Z</time>
      </trkpt>
      <trkpt lat="47.504005" lon="7.929312">
        <ele>433.684166</ele>
        <time>2021-11-22T09:34:34.352Z</time>
      </trkpt>
      <trkpt lat="47.503815" lon="7.929426">
        <ele>434.141920</ele>
        <time>2021-11-22T09:34:37.259Z</time>
      </trkpt>
      <trkpt lat="47.503598" lon="7.929585">
        <ele>434.675892</ele>
        <time>2021-11-22T09:34:42.684Z</time>
      </trkpt>
      <trkpt lat="47.503528" lon="7.929650">
        <ele>434.743511</ele>
        <time>2021-11-22T09:34:43.741Z</time>
      </trkpt>
      <trkpt lat="47.503485" lon="7.929688">
        <ele>434.784492</ele>
        <time>2021-11-22T09:34:45.269Z</time>
      </trkpt>
      <trkpt lat="47.503253" lon="7.929950">
        <ele>435.023280</ele>
        <time>2021-11-22T09:34:50.596Z</time>
      </trkpt>
      <trkpt lat="47.503090" lon="7.930134">
        <ele>435.191024</ele>
        <time>2021-11-22T09:34:54.234Z</time>
      </trkpt>
      <trkpt lat="47.503014" lon="7.930220">
        <ele>435.269306</ele>
        <time>2021-11-22T09:34:55.453Z</time>
      </trkpt>
      <trkpt lat="47.502761" lon="7.930610">
        <ele>435.568212</ele>
        <time>2021-11-22T09:35:01.807Z</time>
      </trkpt>
      <trkpt lat="47.502613" lon="7.930856">
        <ele>435.750315</ele>
        <time>2021-11-22T09:35:05.550Z</time>
      </trkpt>
      <trkpt lat="47.502400" lon="7.931256">
        <ele>436.031878</ele>
        <time>2021-11-22T09:35:12.359Z</time>
      </trkpt>
      <trkpt lat="47.502023" lon="7.932158">
        <ele>436.552629</ele>
        <time>2021-11-22T09:35:25.425Z</time>
      </trkpt>
      <trkpt lat="47.501901" lon="7.932351">
        <ele>436.678536</ele>
        <time>2021-11-22T09:35:29.277Z</time>
      </trkpt>
      <trkpt lat="47.501794" lon="7.932466">
        <ele>436.771774</ele>
        <time>2021-11-22T09:35:31.097Z</time>
      </trkpt>
      <trkpt lat="47.501463" lon="7.932668">
        <ele>437.024228</ele>
        <time>2021-11-22T09:35:37.237Z</time>
      </trkpt>
      <trkpt lat="47.501075" lon="7.932885">
        <ele>437.316693</ele>
        <time>2021-11-22T09:35:44.770Z</time>
      </trkpt>
      <trkpt lat="47.500990" lon="7.932950">
        <ele>437.384154</ele>
        <time>2021-11-22T09:35:46.733Z</time>
      </trkpt>
      <trkpt lat="47.500843" lon="7.933102">
        <ele>437.478926</ele>
        <time>2021-11-22T09:35:49.476Z</time>
      </trkpt>
      <trkpt lat="47.500435" lon="7.933872">
        <ele>437.795119</ele>
        <time>2021-11-22T09:35:59.349Z</time>
      </trkpt>
      <trkpt lat="47.500386" lon="7.933937">
        <ele>437.826588</ele>
        <time>2021-11-22T09:36:00.185Z</time>
      </trkpt>
      <trkpt lat="47.500352" lon="7.933976">
        <ele>437.847161</ele>
        <time>2021-11-22T09:36:00.943Z</time>
      </trkpt>
      <trkpt lat="47.500275" lon="7.934029">
        <ele>437.887775</ele>
        <time>2021-11-22T09:36:02.096Z</time>
      </trkpt>
      <trkpt lat="47.500208" lon="7.934071">
        <ele>437.922574</ele>
        <time>2021-11-22T09:36:03.377Z</time>
      </trkpt>
      <trkpt lat="47.500193" lon="7.934023">
        <ele>437.939663</ele>
        <time>2021-11-22T09:36:03.839Z</time>
      </trkpt>
      <trkpt lat="47.500169" lon="7.933984">
        <ele>437.956709</ele>
        <time>2021-11-22T09:36:04.262Z</time>
      </trkpt>
      <trkpt lat="47.500138" lon="7.933956">
        <ele>437.974077</ele>
        <time>2021-11-22T09:36:04.780Z</time>
      </trkpt>
      <trkpt lat="47.500067" lon="7.933946">
        <ele>438.008188</ele>
        <time>2021-11-22T09:36:05.707Z</time>
      </trkpt>
      <trkpt lat="47.500034" lon="7.933965">
        <ele>438.025123</ele>
        <time>2021-11-22T09:36:06.522Z</time>
      </trkpt>
      <trkpt lat="47.499993" lon="7.933864">
        <ele>438.063196</ele>
        <time>2021-11-22T09:36:08.150Z</time>
      </trkpt>
      <trkpt lat="47.499822" lon="7.933272">
        <ele>438.271232</ele>
        <time>2021-11-22T09:36:16.027Z</time>
      </trkpt>
      <trkpt lat="47.499538" lon="7.932868">
        <ele>438.892573</ele>
        <time>2021-11-22T09:36:23.984Z</time>
      </trkpt>
      <trkpt lat="47.499421" lon="7.932805">
        <ele>439.089823</ele>
        <time>2021-11-22T09:36:27.035Z</time>
      </trkpt>
      <trkpt lat="47.499354" lon="7.932769">
        <ele>439.202750</ele>
        <time>2021-11-22T09:36:28.763Z</time>
      </trkpt>
      <trkpt lat="47.499088" lon="7.932741">
        <ele>439.625242</ele>
        <time>2021-11-22T09:36:34.640Z</time>
      </trkpt>
      <trkpt lat="47.498997" lon="7.932758">
        <ele>439.770559</ele>
        <time>2021-11-22T09:36:36.678Z</time>
      </trkpt>
      <trkpt lat="47.498925" lon="7.932781">
        <ele>439.887256</ele>
        <time>2021-11-22T09:36:38.385Z</time>
      </trkpt>
      <trkpt lat="47.498481" lon="7.933011">
        <ele>440.632529</ele>
        <time>2021-11-22T09:36:47.638Z</time>
      </trkpt>
      <trkpt lat="47.498431" lon="7.932995">
        <ele>440.713575</ele>
        <time>2021-11-22T09:36:48.861Z</time>
      </trkpt>
      <trkpt lat="47.498391" lon="7.932972">
        <ele>440.781561</ele>
        <time>2021-11-22T09:36:49.779Z</time>
      </trkpt>
      <trkpt lat="47.498196" lon="7.932613">
        <ele>441.293420</ele>
        <time>2021-11-22T09:36:56.503Z</time>
      </trkpt>
      <trkpt lat="47.498138" lon="7.932522">
        <ele>441.443827</ele>
        <time>2021-11-22T09:36:58.503Z</time>
      </trkpt>
      <trkpt lat="47.498068" lon="7.932426">
        <ele>441.613643</ele>
        <time>2021-11-22T09:37:00.951Z</time>
      </trkpt>
      <trkpt lat="47.497907" lon="7.932254">
        <ele>441.966977</ele>
        <time>2021-11-22T09:37:05.653Z</time>
      </trkpt>
      <trkpt lat="47.497676" lon="7.932013">
        <ele>442.469898</ele>
        <time>2021-11-22T09:37:12.131Z</time>
      </trkpt>
      <trkpt lat="47.497430" lon="7.931757">
        <ele>443.005027</ele>
        <time>2021-11-22T09:37:19.723Z</time>
      </trkpt>
      <trkpt lat="47.497221" lon="7.931528">
        <ele>443.467763</ele>
        <time>2021-11-22T09:37:25.719Z</time>
      </trkpt>
      <trkpt lat="47.497104" lon="7.931414">
        <ele>443.717029</ele>
        <time>2021-11-22T09:37:28.517Z</time>
      </trkpt>
      <trkpt lat="47.496998" lon="7.931330">
        <ele>443.930992</ele>
        <time>2021-11-22T09:37:30.929Z</time>
      </trkpt>
      <trkpt lat="47.496424" lon="7.931075">
        <ele>444.937201</ele>
        <time>2021-11-22T09:37:41.677Z</time>
      </trkpt>
      <trkpt lat="47.496205" lon="7.930904">
        <ele>445.338475</ele>
        <time>2021-11-22T09:37:45.697Z</time>
      </trkpt>
      <trkpt lat="47.496162" lon="7.930842">
        <ele>445.435762</ele>
        <time>2021-11-22T09:37:47.263Z</time>
      </trkpt>
      <trkpt lat="47.496117" lon="7.930763">
        <ele>445.548903</ele>
        <time>2021-11-22T09:37:48.531Z</time>
      </trkpt>
      <trkpt lat="47.496051" lon="7.930607">
        <ele>445.750440</ele>
        <time>2021-11-22T09:37:51.313Z</time>
      </trkpt>
      <trkpt lat="47.495985" lon="7.930428">
        <ele>445.973723</ele>
        <time>2021-11-22T09:37:54.145Z</time>
      </trkpt>
      <trkpt lat="47.495801" lon="7.929891">
        <ele>446.633004</ele>
        <time>2021-11-22T09:38:03.802Z</time>
      </trkpt>
      <trkpt lat="47.495622" lon="7.929400">
        <ele>447.250290</ele>
        <time>2021-11-22T09:38:12.415Z</time>
      </trkpt>
      <trkpt lat="47.495562" lon="7.929221">
        <ele>447.692123</ele>
        <time>2021-11-22T09:38:15.375Z</time>
      </trkpt>
      <trkpt lat="47.495530" lon="7.929063">
        <ele>448.056848</ele>
        <time>2021-11-22T09:38:17.849Z</time>
      </trkpt>
      <trkpt lat="47.495455" lon="7.928595">
        <ele>449.120394</ele>
        <time>2021-11-22T09:38:26.676Z</time>
      </trkpt>
      <trkpt lat="47.495268" lon="7.927740">
        <ele>451.107547</ele>
        <time>2021-11-22T09:38:43.686Z</time>
      </trkpt>
      <trkpt lat="47.495031" lon="7.927006">
        <ele>452.906377</ele>
        <time>2021-11-22T09:39:00.588Z</time>
      </trkpt>
      <trkpt lat="47.494945" lon="7.926765">
        <ele>453.565306</ele>
        <time>2021-11-22T09:39:07.231Z</time>
      </trkpt>
      <trkpt lat="47.494515" lon="7.925509">
        <ele>457.133819</ele>
        <time>2021-11-22T09:39:35.650Z</time>
      </trkpt>
      <trkpt lat="47.494438" lon="7.925289">
        <ele>457.761755</ele>
        <time>2021-11-22T09:39:41.083Z</time>
      </trkpt>
      <trkpt lat="47.494034" lon="7.924101">
        <ele>461.014465</ele>
        <time>2021-11-22T09:40:06.146Z</time>
      </trkpt>
      <trkpt lat="47.493708" lon="7.923049">
        <ele>463.673345</ele>
        <time>2021-11-22T09:40:27.718Z</time>
      </trkpt>
      <trkpt lat="47.493397" lon="7.921760">
        <ele>467.056706</ele>
        <time>2021-11-22T09:40:54.698Z</time>
      </trkpt>
      <trkpt lat="47.493307" lon="7.921373">
        <ele>468.267167</ele>
        <time>2021-11-22T09:41:03.192Z</time>
      </trkpt>
      <trkpt lat="47.493236" lon="7.921091">
        <ele>469.157212</ele>
        <time>2021-11-22T09:41:09.573Z</time>
      </trkpt>
      <trkpt lat="47.493132" lon="7.920716">
        <ele>470.356077</ele>
        <time>2021-11-22T09:41:18.623Z</time>
      </trkpt>
      <trkpt lat="47.492813" lon="7.919900">
        <ele>473.144264</ele>
        <time>2021-11-22T09:41:40.106Z</time>
      </trkpt>
      <trkpt lat="47.492584" lon="7.919482">
        <ele>474.769331</ele>
        <time>2021-11-22T09:41:52.878Z</time>
      </trkpt>
      <trkpt lat="47.492227" lon="7.918989">
        <ele>476.988269</ele>
        <time>2021-11-22T09:42:09.780Z</time>
      </trkpt>
      <trkpt lat="47.491324" lon="7.917985">
        <ele>482.094028</ele>
        <time>2021-11-22T09:42:46.565Z</time>
      </trkpt>
      <trkpt lat="47.490822" lon="7.917158">
        <ele>484.462858</ele>
        <time>2021-11-22T09:43:08.725Z</time>
      </trkpt>
      <trkpt lat="47.490607" lon="7.916690">
        <ele>485.668740</ele>
        <time>2021-11-22T09:43:18.923Z</time>
      </trkpt>
      <trkpt lat="47.490429" lon="7.916164">
        <ele>486.922266</ele>
        <time>2021-11-22T09:43:28.792Z</time>
      </trkpt>
      <trkpt lat="47.490283" lon="7.915612">
        <ele>488.061577</ele>
        <time>2021-11-22T09:43:38.620Z</time>
      </trkpt>
      <trkpt lat="47.489987" lon="7.914083">
        <ele>490.577150</ele>
        <time>2021-11-22T09:44:04.401Z</time>
      </trkpt>
      <trkpt lat="47.489951" lon="7.913893">
        <ele>490.889247</ele>
        <time>2021-11-22T09:44:07.394Z</time>
      </trkpt>
      <trkpt lat="47.489922" lon="7.913738">
        <ele>491.143621</ele>
        <time>2021-11-22T09:44:09.900Z</time>
      </trkpt>
      <trkpt lat="47.489843" lon="7.913398">
        <ele>491.712275</ele>
        <time>2021-11-22T09:44:15.246Z</time>
      </trkpt>
      <trkpt lat="47.489607" lon="7.912646">
        <ele>493.581462</ele>
        <time>2021-11-22T09:44:29.475Z</time>
      </trkpt>
      <trkpt lat="47.489216" lon="7.911685">
        <ele>496.248312</ele>
        <time>2021-11-22T09:44:51.789Z</time>
      </trkpt>
      <trkpt lat="47.489040" lon="7.911300">
        <ele>497.353390</ele>
        <time>2021-11-22T09:45:01.256Z</time>
      </trkpt>
      <trkpt lat="47.488908" lon="7.911009">
        <ele>498.186636</ele>
        <time>2021-11-22T09:45:09.817Z</time>
      </trkpt>
      <trkpt lat="47.488699" lon="7.910498">
        <ele>499.707160</ele>
        <time>2021-11-22T09:45:23.480Z</time>
      </trkpt>
      <trkpt lat="47.488366" lon="7.909318">
        <ele>502.971324</ele>
        <time>2021-11-22T09:45:49.352Z</time>
      </trkpt>
      <trkpt lat="47.488241" lon="7.908835">
        <ele>504.291556</ele>
        <time>2021-11-22T09:45:58.539Z</time>
      </trkpt>
      <trkpt lat="47.488185" lon="7.908663">
        <ele>504.778907</ele>
        <time>2021-11-22T09:46:02.591Z</time>
      </trkpt>
      <trkpt lat="47.488080" lon="7.908344">
        <ele>505.590826</ele>
        <time>2021-11-22T09:46:08.552Z</time>
      </trkpt>
      <trkpt lat="47.487763" lon="7.907711">
        <ele>507.310419</ele>
        <time>2021-11-22T09:46:23.609Z</time>
      </trkpt>
      <trkpt lat="47.487587" lon="7.907459">
        <ele>508.101397</ele>
        <time>2021-11-22T09:46:30.069Z</time>
      </trkpt>
      <trkpt lat="47.487378" lon="7.907191">
        <ele>508.994606</ele>
        <time>2021-11-22T09:46:37.268Z</time>
      </trkpt>
      <trkpt lat="47.487197" lon="7.906946">
        <ele>509.786881</ele>
        <time>2021-11-22T09:46:43.409Z</time>
      </trkpt>
      <trkpt lat="47.486969" lon="7.906583">
        <ele>510.883949</ele>
        <time>2021-11-22T09:46:51.717Z</time>
      </trkpt>
      <trkpt lat="47.486769" lon="7.905976">
        <ele>513.401730</ele>
        <time>2021-11-22T09:47:07.747Z</time>
      </trkpt>
      <trkpt lat="47.486724" lon="7.905485">
        <ele>515.249106</ele>
        <time>2021-11-22T09:47:20.418Z</time>
      </trkpt>
      <trkpt lat="47.486755" lon="7.904487">
        <ele>518.973923</ele>
        <time>2021-11-22T09:47:47.285Z</time>
      </trkpt>
      <trkpt lat="47.486721" lon="7.904326">
        <ele>519.602814</ele>
        <time>2021-11-22T09:47:52.300Z</time>
      </trkpt>
      <trkpt lat="47.486688" lon="7.904238">
        <ele>519.978041</ele>
        <time>2021-11-22T09:47:55.455Z</time>
      </trkpt>
      <trkpt lat="47.486480" lon="7.904016">
        <ele>521.371595</ele>
        <time>2021-11-22T09:48:04.559Z</time>
      </trkpt>
      <trkpt lat="47.486247" lon="7.904043">
        <ele>522.616769</ele>
        <time>2021-11-22T09:48:13.226Z</time>
      </trkpt>
      <trkpt lat="47.486049" lon="7.904262">
        <ele>523.933778</ele>
        <time>2021-11-22T09:48:24.622Z</time>
      </trkpt>
      <trkpt lat="47.485593" lon="7.905145">
        <ele>527.934925</ele>
        <time>2021-11-22T09:48:54.389Z</time>
      </trkpt>
      <trkpt lat="47.485331" lon="7.905337">
        <ele>529.492597</ele>
        <time>2021-11-22T09:49:02.972Z</time>
      </trkpt>
      <trkpt lat="47.485073" lon="7.905345">
        <ele>530.277484</ele>
        <time>2021-11-22T09:49:09.585Z</time>
      </trkpt>
      <trkpt lat="47.485049" lon="7.905336">
        <ele>530.258075</ele>
        <time>2021-11-22T09:49:11.181Z</time>
      </trkpt>
      <trkpt lat="47.484936" lon="7.905289">
        <ele>530.166061</ele>
        <time>2021-11-22T09:49:13.810Z</time>
      </trkpt>
      <trkpt lat="47.484713" lon="7.905133">
        <ele>529.972701</ele>
        <time>2021-11-22T09:49:19.431Z</time>
      </trkpt>
      <trkpt lat="47.484481" lon="7.904947">
        <ele>529.765857</ele>
        <time>2021-11-22T09:49:22.807Z</time>
      </trkpt>
      <trkpt lat="47.484248" lon="7.904856">
        <ele>529.576953</ele>
        <time>2021-11-22T09:49:25.836Z</time>
      </trkpt>
      <trkpt lat="47.484124" lon="7.904824">
        <ele>529.478281</ele>
        <time>2021-11-22T09:49:27.313Z</time>
      </trkpt>
      <trkpt lat="47.484064" lon="7.904808">
        <ele>529.430489</ele>
        <time>2021-11-22T09:49:27.981Z</time>
      </trkpt>
      <trkpt lat="47.484005" lon="7.904793">
        <ele>529.383561</ele>
        <time>2021-11-22T09:49:28.714Z</time>
      </trkpt>
      <trkpt lat="47.483385" lon="7.904708">
        <ele>528.540142</ele>
        <time>2021-11-22T09:49:35.167Z</time>
      </trkpt>
      <trkpt lat="47.483329" lon="7.904705">
        <ele>528.169227</ele>
        <time>2021-11-22T09:49:35.675Z</time>
      </trkpt>
      <trkpt lat="47.483101" lon="7.904680">
        <ele>526.655923</ele>
        <time>2021-11-22T09:49:37.804Z</time>
      </trkpt>
      <trkpt lat="47.482433" lon="7.904538">
        <ele>522.188936</ele>
        <time>2021-11-22T09:49:43.775Z</time>
      </trkpt>
      <trkpt lat="47.482157" lon="7.904346">
        <ele>520.170227</ele>
        <time>2021-11-22T09:49:46.489Z</time>
      </trkpt>
      <trkpt lat="47.481709" lon="7.903892">
        <ele>516.636763</ele>
        <time>2021-11-22T09:49:51.328Z</time>
      </trkpt>
      <trkpt lat="47.481588" lon="7.903776">
        <ele>515.807933</ele>
        <time>2021-11-22T09:49:52.613Z</time>
      </trkpt>
      <trkpt lat="47.481478" lon="7.903693">
        <ele>515.098100</ele>
        <time>2021-11-22T09:49:53.746Z</time>
      </trkpt>
      <trkpt lat="47.480980" lon="7.903461">
        <ele>512.096700</ele>
        <time>2021-11-22T09:49:58.576Z</time>
      </trkpt>
      <trkpt lat="47.478367" lon="7.903166">
        <ele>497.743168</ele>
        <time>2021-11-22T09:50:23.209Z</time>
      </trkpt>
      <trkpt lat="47.478182" lon="7.903109">
        <ele>496.663215</ele>
        <time>2021-11-22T09:50:24.952Z</time>
      </trkpt>
      <trkpt lat="47.478118" lon="7.903075">
        <ele>496.231354</ele>
        <time>2021-11-22T09:50:25.551Z</time>
      </trkpt>
      <trkpt lat="47.476982" lon="7.902234">
        <ele>488.164052</ele>
        <time>2021-11-22T09:50:37.044Z</time>
      </trkpt>
      <trkpt lat="47.476536" lon="7.901977">
        <ele>485.174234</ele>
        <time>2021-11-22T09:50:41.412Z</time>
      </trkpt>
      <trkpt lat="47.476364" lon="7.901870">
        <ele>484.092674</ele>
        <time>2021-11-22T09:50:43.107Z</time>
      </trkpt>
      <trkpt lat="47.475300" lon="7.901112">
        <ele>477.247346</ele>
        <time>2021-11-22T09:50:54.016Z</time>
      </trkpt>
      <trkpt lat="47.475163" lon="7.901034">
        <ele>476.396441</ele>
        <time>2021-11-22T09:50:55.342Z</time>
      </trkpt>
      <trkpt lat="47.474888" lon="7.900841">
        <ele>474.727957</ele>
        <time>2021-11-22T09:50:58.194Z</time>
      </trkpt>
      <trkpt lat="47.474617" lon="7.900560">
        <ele>473.097825</ele>
        <time>2021-11-22T09:51:01.324Z</time>
      </trkpt>
      <trkpt lat="47.474336" lon="7.900125">
        <ele>471.094422</ele>
        <time>2021-11-22T09:51:05.165Z</time>
      </trkpt>
      <trkpt lat="47.474186" lon="7.899915">
        <ele>470.077155</ele>
        <time>2021-11-22T09:51:07.100Z</time>
      </trkpt>
      <trkpt lat="47.474087" lon="7.899774">
        <ele>469.400241</ele>
        <time>2021-11-22T09:51:08.411Z</time>
      </trkpt>
      <trkpt lat="47.473931" lon="7.899567">
        <ele>468.368003</ele>
        <time>2021-11-22T09:51:10.372Z</time>
      </trkpt>
      <trkpt lat="47.473317" lon="7.898945">
        <ele>464.649446</ele>
        <time>2021-11-22T09:51:17.612Z</time>
      </trkpt>
      <trkpt lat="47.471910" lon="7.898392">
        <ele>457.256357</ele>
        <time>2021-11-22T09:51:31.205Z</time>
      </trkpt>
      <trkpt lat="47.471825" lon="7.898370">
        <ele>456.828161</ele>
        <time>2021-11-22T09:51:31.993Z</time>
      </trkpt>
      <trkpt lat="47.471597" lon="7.898344">
        <ele>455.693417</ele>
        <time>2021-11-22T09:51:34.145Z</time>
      </trkpt>
      <trkpt lat="47.471002" lon="7.898222">
        <ele>452.712668</ele>
        <time>2021-11-22T09:51:39.740Z</time>
      </trkpt>
      <trkpt lat="47.469999" lon="7.897879">
        <ele>447.970901</ele>
        <time>2021-11-22T09:51:49.491Z</time>
      </trkpt>
      <trkpt lat="47.469806" lon="7.897795">
        <ele>447.463221</ele>
        <time>2021-11-22T09:51:51.520Z</time>
      </trkpt>
      <trkpt lat="47.469534" lon="7.897638">
        <ele>446.726427</ele>
        <time>2021-11-22T09:51:54.606Z</time>
      </trkpt>
      <trkpt lat="47.469598" lon="7.897405">
        <ele>446.297404</ele>
        <time>2021-11-22T09:51:56.397Z</time>
      </trkpt>
      <trkpt lat="47.469652" lon="7.897139">
        <ele>445.823629</ele>
        <time>2021-11-22T09:51:58.421Z</time>
      </trkpt>
      <trkpt lat="47.469678" lon="7.896938">
        <ele>445.474532</ele>
        <time>2021-11-22T09:51:59.884Z</time>
      </trkpt>
      <trkpt lat="47.469692" lon="7.896826">
        <ele>445.280239</ele>
        <time>2021-11-22T09:52:00.780Z</time>
      </trkpt>
      <trkpt lat="47.469738" lon="7.896220">
        <ele>444.240000</ele>
        <time>2021-11-22T09:52:05.379Z</time>
      </trkpt>
      <trkpt lat="47.469747" lon="7.895922">
        <ele>443.787321</ele>
        <time>2021-11-22T09:52:07.619Z</time>
      </trkpt>
      <trkpt lat="47.469734" lon="7.895575">
        <ele>443.609724</ele>
        <time>2021-11-22T09:52:10.658Z</time>
      </trkpt>
      <trkpt lat="47.469728" lon="7.895384">
        <ele>443.512014</ele>
        <time>2021-11-22T09:52:12.254Z</time>
      </trkpt>
      <trkpt lat="47.469714" lon="7.895204">
        <ele>443.419423</ele>
        <time>2021-11-22T09:52:13.926Z</time>
      </trkpt>
      <trkpt lat="47.469691" lon="7.894970">
        <ele>443.298586</ele>
        <time>2021-11-22T09:52:16.062Z</time>
      </trkpt>
      <trkpt lat="47.469658" lon="7.894567">
        <ele>443.091139</ele>
        <time>2021-11-22T09:52:19.729Z</time>
      </trkpt>
      <trkpt lat="47.469496" lon="7.893085">
        <ele>442.290101</ele>
        <time>2021-11-22T09:52:32.943Z</time>
      </trkpt>
      <trkpt lat="47.469288" lon="7.891996">
        <ele>441.558402</ele>
        <time>2021-11-22T09:52:42.455Z</time>
      </trkpt>
      <trkpt lat="47.468951" lon="7.890216">
        <ele>440.388524</ele>
        <time>2021-11-22T09:52:57.458Z</time>
      </trkpt>
      <trkpt lat="47.468718" lon="7.888938">
        <ele>439.591576</ele>
        <time>2021-11-22T09:53:08.337Z</time>
      </trkpt>
      <trkpt lat="47.468546" lon="7.888014">
        <ele>439.206913</ele>
        <time>2021-11-22T09:53:16.663Z</time>
      </trkpt>
      <trkpt lat="47.468250" lon="7.886308">
        <ele>439.925293</ele>
        <time>2021-11-22T09:53:34.942Z</time>
      </trkpt>
      <trkpt lat="47.468174" lon="7.885724">
        <ele>440.167864</ele>
        <time>2021-11-22T09:53:43.814Z</time>
      </trkpt>
      <trkpt lat="47.468160" lon="7.885412">
        <ele>440.629850</ele>
        <time>2021-11-22T09:53:48.914Z</time>
      </trkpt>
      <trkpt lat="47.468160" lon="7.885131">
        <ele>441.218033</ele>
        <time>2021-11-22T09:53:53.533Z</time>
      </trkpt>
      <trkpt lat="47.468161" lon="7.885114">
        <ele>441.253752</ele>
        <time>2021-11-22T09:53:53.926Z</time>
      </trkpt>
      <trkpt lat="47.468170" lon="7.884753">
        <ele>442.009902</ele>
        <time>2021-11-22T09:53:59.642Z</time>
      </trkpt>
      <trkpt lat="47.468175" lon="7.884477">
        <ele>442.587827</ele>
        <time>2021-11-22T09:54:05.424Z</time>
      </trkpt>
      <trkpt lat="47.468085" lon="7.883534">
        <ele>444.581269</ele>
        <time>2021-11-22T09:54:24.904Z</time>
      </trkpt>
      <trkpt lat="47.467832" lon="7.882502">
        <ele>445.595274</ele>
        <time>2021-11-22T09:54:46.442Z</time>
      </trkpt>
      <trkpt lat="47.467789" lon="7.882188">
        <ele>445.479841</ele>
        <time>2021-11-22T09:54:52.080Z</time>
      </trkpt>
      <trkpt lat="47.467755" lon="7.881902">
        <ele>445.375214</ele>
        <time>2021-11-22T09:54:56.203Z</time>
      </trkpt>
      <trkpt lat="47.467712" lon="7.880819">
        <ele>444.984335</ele>
        <time>2021-11-22T09:55:04.941Z</time>
      </trkpt>
      <trkpt lat="47.467695" lon="7.879712">
        <ele>441.546424</ele>
        <time>2021-11-22T09:55:11.808Z</time>
      </trkpt>
      <trkpt lat="47.467758" lon="7.879308">
        <ele>439.503725</ele>
        <time>2021-11-22T09:55:14.297Z</time>
      </trkpt>
      <trkpt lat="47.467814" lon="7.879126">
        <ele>438.518533</ele>
        <time>2021-11-22T09:55:15.464Z</time>
      </trkpt>
      <trkpt lat="47.467908" lon="7.878819">
        <ele>436.858092</ele>
        <time>2021-11-22T09:55:17.494Z</time>
      </trkpt>
      <trkpt lat="47.467959" lon="7.878693">
        <ele>436.134548</ele>
        <time>2021-11-22T09:55:18.348Z</time>
      </trkpt>
      <trkpt lat="47.468067" lon="7.878427">
        <ele>434.605817</ele>
        <time>2021-11-22T09:55:20.294Z</time>
      </trkpt>
      <trkpt lat="47.468104" lon="7.878354">
        <ele>434.156298</ele>
        <time>2021-11-22T09:55:20.804Z</time>
      </trkpt>
      <trkpt lat="47.468268" lon="7.878083">
        <ele>432.364302</ele>
        <time>2021-11-22T09:55:23.009Z</time>
      </trkpt>
      <trkpt lat="47.468308" lon="7.877998">
        <ele>431.854050</ele>
        <time>2021-11-22T09:55:23.649Z</time>
      </trkpt>
      <trkpt lat="47.468327" lon="7.877957">
        <ele>431.637878</ele>
        <time>2021-11-22T09:55:23.927Z</time>
      </trkpt>
      <trkpt lat="47.468377" lon="7.877826">
        <ele>431.095156</ele>
        <time>2021-11-22T09:55:24.802Z</time>
      </trkpt>
      <trkpt lat="47.468557" lon="7.876917">
        <ele>427.678063</ele>
        <time>2021-11-22T09:55:30.473Z</time>
      </trkpt>
      <trkpt lat="47.468639" lon="7.876439">
        <ele>425.898982</ele>
        <time>2021-11-22T09:55:33.670Z</time>
      </trkpt>
      <trkpt lat="47.468698" lon="7.876140">
        <ele>424.775303</ele>
        <time>2021-11-22T09:55:35.771Z</time>
      </trkpt>
      <trkpt lat="47.468806" lon="7.875696">
        <ele>423.073003</ele>
        <time>2021-11-22T09:55:39.050Z</time>
      </trkpt>
      <trkpt lat="47.468925" lon="7.875205">
        <ele>421.761352</ele>
        <time>2021-11-22T09:55:42.979Z</time>
      </trkpt>
      <trkpt lat="47.468989" lon="7.874967">
        <ele>421.405953</ele>
        <time>2021-11-22T09:55:44.772Z</time>
      </trkpt>
      <trkpt lat="47.469050" lon="7.874738">
        <ele>421.064432</ele>
        <time>2021-11-22T09:55:46.656Z</time>
      </trkpt>
      <trkpt lat="47.469068" lon="7.874689">
        <ele>420.987054</ele>
        <time>2021-11-22T09:55:47.089Z</time>
      </trkpt>
      <trkpt lat="47.469097" lon="7.874606">
        <ele>420.857416</ele>
        <time>2021-11-22T09:55:47.724Z</time>
      </trkpt>
      <trkpt lat="47.469136" lon="7.874516">
        <ele>420.709085</ele>
        <time>2021-11-22T09:55:48.479Z</time>
      </trkpt>
      <trkpt lat="47.469173" lon="7.874432">
        <ele>420.569974</ele>
        <time>2021-11-22T09:55:49.231Z</time>
      </trkpt>
      <trkpt lat="47.469224" lon="7.874328">
        <ele>420.391702</ele>
        <time>2021-11-22T09:55:50.273Z</time>
      </trkpt>
      <trkpt lat="47.469422" lon="7.873965">
        <ele>419.744517</ele>
        <time>2021-11-22T09:55:53.721Z</time>
      </trkpt>
      <trkpt lat="47.469489" lon="7.873809">
        <ele>419.488073</ele>
        <time>2021-11-22T09:55:55.163Z</time>
      </trkpt>
      <trkpt lat="47.469626" lon="7.873477">
        <ele>418.948375</ele>
        <time>2021-11-22T09:55:58.039Z</time>
      </trkpt>
      <trkpt lat="47.469682" lon="7.873326">
        <ele>418.709403</ele>
        <time>2021-11-22T09:55:59.379Z</time>
      </trkpt>
      <trkpt lat="47.469710" lon="7.873249">
        <ele>418.588088</ele>
        <time>2021-11-22T09:55:59.960Z</time>
      </trkpt>
      <trkpt lat="47.469969" lon="7.872276">
        <ele>417.352185</ele>
        <time>2021-11-22T09:56:07.946Z</time>
      </trkpt>
      <trkpt lat="47.470156" lon="7.871491">
        <ele>416.390054</ele>
        <time>2021-11-22T09:56:14.243Z</time>
      </trkpt>
      <trkpt lat="47.470217" lon="7.871214">
        <ele>416.053290</ele>
        <time>2021-11-22T09:56:16.408Z</time>
      </trkpt>
      <trkpt lat="47.470245" lon="7.871088">
        <ele>415.899970</ele>
        <time>2021-11-22T09:56:17.406Z</time>
      </trkpt>
      <trkpt lat="47.470316" lon="7.870753">
        <ele>415.494136</ele>
        <time>2021-11-22T09:56:20.281Z</time>
      </trkpt>
      <trkpt lat="47.470333" lon="7.870669">
        <ele>415.392777</ele>
        <time>2021-11-22T09:56:20.898Z</time>
      </trkpt>
      <trkpt lat="47.470350" lon="7.870570">
        <ele>415.311013</ele>
        <time>2021-11-22T09:56:21.692Z</time>
      </trkpt>
      <trkpt lat="47.470379" lon="7.870338">
        <ele>415.169826</ele>
        <time>2021-11-22T09:56:23.678Z</time>
      </trkpt>
      <trkpt lat="47.470397" lon="7.870147">
        <ele>415.054423</ele>
        <time>2021-11-22T09:56:25.774Z</time>
      </trkpt>
      <trkpt lat="47.470378" lon="7.869626">
        <ele>414.742193</ele>
        <time>2021-11-22T09:56:31.792Z</time>
      </trkpt>
      <trkpt lat="47.470309" lon="7.869201">
        <ele>414.480631</ele>
        <time>2021-11-22T09:56:37.152Z</time>
      </trkpt>
      <trkpt lat="47.470234" lon="7.868884">
        <ele>414.279648</ele>
        <time>2021-11-22T09:56:41.161Z</time>
      </trkpt>
      <trkpt lat="47.470127" lon="7.868484">
        <ele>414.022218</ele>
        <time>2021-11-22T09:56:46.575Z</time>
      </trkpt>
      <trkpt lat="47.469915" lon="7.867494">
        <ele>413.401399</ele>
        <time>2021-11-22T09:56:59.846Z</time>
      </trkpt>
      <trkpt lat="47.469808" lon="7.866690">
        <ele>412.911903</ele>
        <time>2021-11-22T09:57:09.668Z</time>
      </trkpt>
      <trkpt lat="47.469764" lon="7.866452">
        <ele>412.764510</ele>
        <time>2021-11-22T09:57:12.769Z</time>
      </trkpt>
      <trkpt lat="47.469710" lon="7.866208">
        <ele>412.611141</ele>
        <time>2021-11-22T09:57:15.717Z</time>
      </trkpt>
      <trkpt lat="47.469629" lon="7.865918">
        <ele>412.423701</ele>
        <time>2021-11-22T09:57:19.521Z</time>
      </trkpt>
      <trkpt lat="47.469386" lon="7.865000">
        <ele>411.495737</ele>
        <time>2021-11-22T09:57:30.431Z</time>
      </trkpt>
      <trkpt lat="47.469333" lon="7.864798">
        <ele>411.234697</ele>
        <time>2021-11-22T09:57:32.765Z</time>
      </trkpt>
      <trkpt lat="47.469305" lon="7.864692">
        <ele>411.097593</ele>
        <time>2021-11-22T09:57:33.894Z</time>
      </trkpt>
      <trkpt lat="47.469011" lon="7.863405">
        <ele>409.460982</ele>
        <time>2021-11-22T09:57:48.681Z</time>
      </trkpt>
      <trkpt lat="47.468986" lon="7.863323">
        <ele>409.352613</ele>
        <time>2021-11-22T09:57:49.555Z</time>
      </trkpt>
      <trkpt lat="47.468943" lon="7.863195">
        <ele>409.180416</ele>
        <time>2021-11-22T09:57:51.001Z</time>
      </trkpt>
      <trkpt lat="47.468859" lon="7.862978">
        <ele>408.902161</ele>
        <time>2021-11-22T09:57:53.792Z</time>
      </trkpt>
      <trkpt lat="47.468825" lon="7.862900">
        <ele>408.821107</ele>
        <time>2021-11-22T09:57:54.793Z</time>
      </trkpt>
      <trkpt lat="47.468543" lon="7.862357">
        <ele>408.223101</ele>
        <time>2021-11-22T09:58:02.074Z</time>
      </trkpt>
      <trkpt lat="47.468224" lon="7.861805">
        <ele>407.588872</ele>
        <time>2021-11-22T09:58:10.237Z</time>
      </trkpt>
      <trkpt lat="47.467944" lon="7.861300">
        <ele>407.018463</ele>
        <time>2021-11-22T09:58:17.610Z</time>
      </trkpt>
      <trkpt lat="47.467266" lon="7.860107">
        <ele>406.746384</ele>
        <time>2021-11-22T09:58:38.650Z</time>
      </trkpt>
      <trkpt lat="47.467047" lon="7.859682">
        <ele>406.797400</ele>
        <time>2021-11-22T09:58:46.116Z</time>
      </trkpt>
      <trkpt lat="47.466922" lon="7.859398">
        <ele>406.829753</ele>
        <time>2021-11-22T09:58:50.762Z</time>
      </trkpt>
      <trkpt lat="47.466861" lon="7.859463">
        <ele>406.840370</ele>
        <time>2021-11-22T09:58:55.945Z</time>
      </trkpt>
      <trkpt lat="47.466684" lon="7.859660">
        <ele>406.871650</ele>
        <time>2021-11-22T09:58:59.663Z</time>
      </trkpt>
      <trkpt lat="47.466499" lon="7.859736">
        <ele>406.928722</ele>
        <time>2021-11-22T09:59:03.387Z</time>
      </trkpt>
      <trkpt lat="47.466367" lon="7.859349">
        <ele>407.187766</ele>
        <time>2021-11-22T09:59:09.942Z</time>
      </trkpt>
      <trkpt lat="47.466192" lon="7.858910">
        <ele>407.492332</ele>
        <time>2021-11-22T09:59:17.828Z</time>
      </trkpt>
      <trkpt lat="47.466155" lon="7.858859">
        <ele>407.537039</ele>
        <time>2021-11-22T09:59:19.107Z</time>
      </trkpt>
      <trkpt lat="47.465862" lon="7.858578">
        <ele>407.845727</ele>
        <time>2021-11-22T09:59:25.180Z</time>
      </trkpt>
      <trkpt lat="47.465229" lon="7.858145">
        <ele>408.462238</ele>
        <time>2021-11-22T09:59:38.522Z</time>
      </trkpt>
      <trkpt lat="47.465155" lon="7.858104">
        <ele>408.531224</ele>
        <time>2021-11-22T09:59:40.282Z</time>
      </trkpt>
      <trkpt lat="47.465111" lon="7.858014">
        <ele>408.596425</ele>
        <time>2021-11-22T09:59:41.315Z</time>
      </trkpt>
      <trkpt lat="47.465021" lon="7.857835">
        <ele>408.727381</ele>
        <time>2021-11-22T09:59:44.236Z</time>
      </trkpt>
      <trkpt lat="47.464877" lon="7.857457">
        <ele>408.982087</ele>
        <time>2021-11-22T09:59:50.134Z</time>
      </trkpt>
      <trkpt lat="47.464779" lon="7.857320">
        <ele>409.099176</ele>
        <time>2021-11-22T09:59:53.528Z</time>
      </trkpt>
      <trkpt lat="47.464641" lon="7.857232">
        <ele>409.229668</ele>
        <time>2021-11-22T09:59:55.604Z</time>
      </trkpt>
      <trkpt lat="47.464510" lon="7.857563">
        <ele>409.454828</ele>
        <time>2021-11-22T10:00:01.391Z</time>
      </trkpt>
      <trkpt lat="47.464354" lon="7.858424">
        <ele>409.978110</ele>
        <time>2021-11-22T10:00:09.983Z</time>
      </trkpt>
      <trkpt lat="47.464375" lon="7.858610">
        <ele>410.047853</ele>
        <time>2021-11-22T10:00:13.487Z</time>
      </trkpt>
      <trkpt lat="47.464294" lon="7.858576">
        <ele>410.052727</ele>
        <time>2021-11-22T10:00:14.334Z</time>
      </trkpt>
      <trkpt lat="47.464083" lon="7.858541">
        <ele>410.065020</ele>
        <time>2021-11-22T10:00:18.998Z</time>
      </trkpt>
      <trkpt lat="47.463904" lon="7.858706">
        <ele>410.077231</ele>
        <time>2021-11-22T10:00:21.987Z</time>
      </trkpt>
      <trkpt lat="47.463612" lon="7.859016">
        <ele>410.098041</ele>
        <time>2021-11-22T10:00:28.553Z</time>
      </trkpt>
      <trkpt lat="47.463411" lon="7.859675">
        <ele>410.126339</ele>
        <time>2021-11-22T10:00:35.639Z</time>
      </trkpt>
      <trkpt lat="47.463351" lon="7.859872">
        <ele>410.134796</ele>
        <time>2021-11-22T10:00:37.505Z</time>
      </trkpt>
      <trkpt lat="47.463241" lon="7.860203">
        <ele>410.149673</ele>
        <time>2021-11-22T10:00:40.383Z</time>
      </trkpt>
      <trkpt lat="47.463190" lon="7.860331">
        <ele>410.170496</ele>
        <time>2021-11-22T10:00:41.778Z</time>
      </trkpt>
      <trkpt lat="47.463125" lon="7.860492">
        <ele>410.196777</ele>
        <time>2021-11-22T10:00:43.287Z</time>
      </trkpt>
      <trkpt lat="47.462844" lon="7.861110">
        <ele>410.301155</ele>
        <time>2021-11-22T10:00:50.205Z</time>
      </trkpt>
      <trkpt lat="47.462785" lon="7.861204">
        <ele>410.319131</ele>
        <time>2021-11-22T10:00:51.832Z</time>
      </trkpt>
      <trkpt lat="47.462605" lon="7.861066">
        <ele>410.361159</ele>
        <time>2021-11-22T10:00:54.833Z</time>
      </trkpt>
      <trkpt lat="47.462470" lon="7.860949">
        <ele>410.393595</ele>
        <time>2021-11-22T10:00:57.844Z</time>
      </trkpt>
      <trkpt lat="47.462314" lon="7.860800">
        <ele>410.432090</ele>
        <time>2021-11-22T10:01:00.937Z</time>
      </trkpt>
      <trkpt lat="47.462285" lon="7.860769">
        <ele>410.439507</ele>
        <time>2021-11-22T10:01:01.432Z</time>
      </trkpt>
      <trkpt lat="47.462231" lon="7.860873">
        <ele>410.457885</ele>
        <time>2021-11-22T10:01:03.431Z</time>
      </trkpt>
      <trkpt lat="47.461855" lon="7.861499">
        <ele>410.887464</ele>
        <time>2021-11-22T10:01:13.658Z</time>
      </trkpt>
      <trkpt lat="47.461541" lon="7.862217">
        <ele>411.709054</ele>
        <time>2021-11-22T10:01:24.991Z</time>
      </trkpt>
      <trkpt lat="47.461527" lon="7.862242">
        <ele>411.740243</ele>
        <time>2021-11-22T10:01:25.429Z</time>
      </trkpt>
      <trkpt lat="47.461353" lon="7.862539">
        <ele>412.117831</ele>
        <time>2021-11-22T10:01:31.343Z</time>
      </trkpt>
      <trkpt lat="47.461098" lon="7.862848">
        <ele>412.586301</ele>
        <time>2021-11-22T10:01:38.854Z</time>
      </trkpt>
      <trkpt lat="47.460786" lon="7.863164">
        <ele>413.117709</ele>
        <time>2021-11-22T10:01:47.243Z</time>
      </trkpt>
      <trkpt lat="47.460527" lon="7.863440">
        <ele>413.512082</ele>
        <time>2021-11-22T10:01:54.005Z</time>
      </trkpt>
      <trkpt lat="47.460398" lon="7.863603">
        <ele>413.721689</ele>
        <time>2021-11-22T10:01:57.419Z</time>
      </trkpt>
      <trkpt lat="47.460271" lon="7.863810">
        <ele>413.955167</ele>
        <time>2021-11-22T10:02:00.947Z</time>
      </trkpt>
      <trkpt lat="47.460115" lon="7.864146">
        <ele>414.295621</ele>
        <time>2021-11-22T10:02:05.711Z</time>
      </trkpt>
      <trkpt lat="47.460001" lon="7.864512">
        <ele>414.632214</ele>
        <time>2021-11-22T10:02:10.498Z</time>
      </trkpt>
      <trkpt lat="47.459616" lon="7.865526">
        <ele>415.653889</ele>
        <time>2021-11-22T10:02:26.731Z</time>
      </trkpt>
      <trkpt lat="47.459563" lon="7.865651">
        <ele>415.797551</ele>
        <time>2021-11-22T10:02:28.599Z</time>
      </trkpt>
      <trkpt lat="47.459497" lon="7.865844">
        <ele>416.008139</ele>
        <time>2021-11-22T10:02:31.538Z</time>
      </trkpt>
      <trkpt lat="47.459383" lon="7.866214">
        <ele>416.404042</ele>
        <time>2021-11-22T10:02:37.140Z</time>
      </trkpt>
      <trkpt lat="47.459231" lon="7.866811">
        <ele>417.025177</ele>
        <time>2021-11-22T10:02:45.827Z</time>
      </trkpt>
      <trkpt lat="47.459152" lon="7.867074">
        <ele>417.305389</ele>
        <time>2021-11-22T10:02:49.880Z</time>
      </trkpt>
      <trkpt lat="47.459058" lon="7.867339">
        <ele>417.596769</ele>
        <time>2021-11-22T10:02:53.955Z</time>
      </trkpt>
      <trkpt lat="47.458844" lon="7.867795">
        <ele>418.205184</ele>
        <time>2021-11-22T10:03:01.904Z</time>
      </trkpt>
      <trkpt lat="47.458680" lon="7.868173">
        <ele>418.762828</ele>
        <time>2021-11-22T10:03:09.160Z</time>
      </trkpt>
      <trkpt lat="47.458252" lon="7.869378">
        <ele>420.452850</ele>
        <time>2021-11-22T10:03:29.552Z</time>
      </trkpt>
      <trkpt lat="47.458055" lon="7.870048">
        <ele>421.442852</ele>
        <time>2021-11-22T10:03:40.320Z</time>
      </trkpt>
      <trkpt lat="47.457897" lon="7.870571">
        <ele>422.507624</ele>
        <time>2021-11-22T10:03:49.096Z</time>
      </trkpt>
      <trkpt lat="47.457834" lon="7.870782">
        <ele>422.936368</ele>
        <time>2021-11-22T10:03:53.075Z</time>
      </trkpt>
      <trkpt lat="47.457598" lon="7.871461">
        <ele>424.355485</ele>
        <time>2021-11-22T10:04:05.212Z</time>
      </trkpt>
      <trkpt lat="47.457107" lon="7.872555">
        <ele>426.874129</ele>
        <time>2021-11-22T10:04:32.138Z</time>
      </trkpt>
      <trkpt lat="47.456956" lon="7.873025">
        <ele>427.955832</ele>
        <time>2021-11-22T10:04:43.082Z</time>
      </trkpt>
      <trkpt lat="47.456839" lon="7.873690">
        <ele>429.384245</ele>
        <time>2021-11-22T10:04:56.046Z</time>
      </trkpt>
      <trkpt lat="47.456816" lon="7.873911">
        <ele>429.849063</ele>
        <time>2021-11-22T10:05:00.486Z</time>
      </trkpt>
      <trkpt lat="47.456788" lon="7.874217">
        <ele>430.490965</ele>
        <time>2021-11-22T10:05:05.694Z</time>
      </trkpt>
      <trkpt lat="47.456714" lon="7.874531">
        <ele>431.182211</ele>
        <time>2021-11-22T10:05:11.281Z</time>
      </trkpt>
      <trkpt lat="47.456658" lon="7.874665">
        <ele>431.509679</ele>
        <time>2021-11-22T10:05:13.105Z</time>
      </trkpt>
      <trkpt lat="47.456497" lon="7.874905">
        <ele>431.823381</ele>
        <time>2021-11-22T10:05:18.446Z</time>
      </trkpt>
      <trkpt lat="47.456403" lon="7.875046">
        <ele>431.940931</ele>
        <time>2021-11-22T10:05:20.962Z</time>
      </trkpt>
      <trkpt lat="47.455780" lon="7.875652">
        <ele>432.595623</ele>
        <time>2021-11-22T10:05:36.459Z</time>
      </trkpt>
      <trkpt lat="47.455446" lon="7.875966">
        <ele>432.943105</ele>
        <time>2021-11-22T10:05:42.156Z</time>
      </trkpt>
      <trkpt lat="47.455123" lon="7.876253">
        <ele>433.259845</ele>
        <time>2021-11-22T10:05:47.124Z</time>
      </trkpt>
      <trkpt lat="47.454502" lon="7.876895">
        <ele>433.576468</ele>
        <time>2021-11-22T10:05:58.233Z</time>
      </trkpt>
      <trkpt lat="47.454362" lon="7.877045">
        <ele>433.648711</ele>
        <time>2021-11-22T10:06:01.161Z</time>
      </trkpt>
      <trkpt lat="47.453945" lon="7.877554">
        <ele>433.874656</ele>
        <time>2021-11-22T10:06:11.301Z</time>
      </trkpt>
      <trkpt lat="47.453517" lon="7.878069">
        <ele>434.186318</ele>
        <time>2021-11-22T10:06:21.436Z</time>
      </trkpt>
      <trkpt lat="47.453302" lon="7.878355">
        <ele>434.399109</ele>
        <time>2021-11-22T10:06:26.768Z</time>
      </trkpt>
      <trkpt lat="47.453057" lon="7.878652">
        <ele>434.632218</ele>
        <time>2021-11-22T10:06:32.368Z</time>
      </trkpt>
      <trkpt lat="47.452813" lon="7.878981">
        <ele>434.875189</ele>
        <time>2021-11-22T10:06:38.050Z</time>
      </trkpt>
      <trkpt lat="47.452655" lon="7.879223">
        <ele>435.042570</ele>
        <time>2021-11-22T10:06:41.910Z</time>
      </trkpt>
      <trkpt lat="47.452247" lon="7.879980">
        <ele>435.596827</ele>
        <time>2021-11-22T10:06:53.464Z</time>
      </trkpt>
      <trkpt lat="47.451953" lon="7.880518">
        <ele>436.064641</ele>
        <time>2021-11-22T10:07:01.805Z</time>
      </trkpt>
      <trkpt lat="47.451581" lon="7.881111">
        <ele>436.611695</ele>
        <time>2021-11-22T10:07:12.369Z</time>
      </trkpt>
      <trkpt lat="47.451351" lon="7.881477">
        <ele>436.949611</ele>
        <time>2021-11-22T10:07:18.920Z</time>
      </trkpt>
      <trkpt lat="47.451309" lon="7.881545">
        <ele>437.011897</ele>
        <time>2021-11-22T10:07:20.166Z</time>
      </trkpt>
      <trkpt lat="47.451241" lon="7.881654">
        <ele>437.112196</ele>
        <time>2021-11-22T10:07:22.124Z</time>
      </trkpt>
      <trkpt lat="47.451051" lon="7.881948">
        <ele>437.461713</ele>
        <time>2021-11-22T10:07:27.708Z</time>
      </trkpt>
      <trkpt lat="47.450772" lon="7.882435">
        <ele>438.014192</ele>
        <time>2021-11-22T10:07:36.488Z</time>
      </trkpt>
      <trkpt lat="47.450733" lon="7.882508">
        <ele>438.094720</ele>
        <time>2021-11-22T10:07:37.753Z</time>
      </trkpt>
      <trkpt lat="47.450650" lon="7.882664">
        <ele>438.266536</ele>
        <time>2021-11-22T10:07:40.475Z</time>
      </trkpt>
      <trkpt lat="47.450548" lon="7.882846">
        <ele>438.471144</ele>
        <time>2021-11-22T10:07:43.703Z</time>
      </trkpt>
      <trkpt lat="47.450472" lon="7.882973">
        <ele>438.617937</ele>
        <time>2021-11-22T10:07:45.929Z</time>
      </trkpt>
      <trkpt lat="47.450274" lon="7.883264">
        <ele>438.975262</ele>
        <time>2021-11-22T10:07:51.534Z</time>
      </trkpt>
      <trkpt lat="47.449712" lon="7.884119">
        <ele>440.003724</ele>
        <time>2021-11-22T10:08:07.255Z</time>
      </trkpt>
      <trkpt lat="47.449068" lon="7.885121">
        <ele>441.192857</ele>
        <time>2021-11-22T10:08:25.582Z</time>
      </trkpt>
      <trkpt lat="47.449022" lon="7.885187">
        <ele>441.274389</ele>
        <time>2021-11-22T10:08:26.913Z</time>
      </trkpt>
      <trkpt lat="47.448867" lon="7.885429">
        <ele>441.561116</ele>
        <time>2021-11-22T10:08:31.510Z</time>
      </trkpt>
      <trkpt lat="47.448801" lon="7.885554">
        <ele>441.697538</ele>
        <time>2021-11-22T10:08:33.787Z</time>
      </trkpt>
      <trkpt lat="47.448759" lon="7.885611">
        <ele>441.788251</ele>
        <time>2021-11-22T10:08:34.742Z</time>
      </trkpt>
      <trkpt lat="47.448727" lon="7.885648">
        <ele>441.855948</ele>
        <time>2021-11-22T10:08:35.510Z</time>
      </trkpt>
      <trkpt lat="47.448623" lon="7.885730">
        <ele>442.052367</ele>
        <time>2021-11-22T10:08:38.029Z</time>
      </trkpt>
      <trkpt lat="47.448497" lon="7.885784">
        <ele>442.270994</ele>
        <time>2021-11-22T10:08:41.048Z</time>
      </trkpt>
      <trkpt lat="47.448256" lon="7.885830">
        <ele>442.675964</ele>
        <time>2021-11-22T10:08:46.221Z</time>
      </trkpt>
      <trkpt lat="47.447948" lon="7.885889">
        <ele>443.193551</ele>
        <time>2021-11-22T10:08:52.638Z</time>
      </trkpt>
      <trkpt lat="47.447927" lon="7.885893">
        <ele>443.228837</ele>
        <time>2021-11-22T10:08:53.412Z</time>
      </trkpt>
      <trkpt lat="47.447843" lon="7.885915">
        <ele>443.371006</ele>
        <time>2021-11-22T10:08:55.573Z</time>
      </trkpt>
      <trkpt lat="47.447578" lon="7.886047">
        <ele>443.837026</ele>
        <time>2021-11-22T10:09:01.230Z</time>
      </trkpt>
      <trkpt lat="47.447271" lon="7.886367">
        <ele>444.462993</ele>
        <time>2021-11-22T10:09:09.552Z</time>
      </trkpt>
      <trkpt lat="47.446926" lon="7.886788">
        <ele>445.259165</ele>
        <time>2021-11-22T10:09:19.588Z</time>
      </trkpt>
      <trkpt lat="47.446791" lon="7.886928">
        <ele>445.561860</ele>
        <time>2021-11-22T10:09:23.067Z</time>
      </trkpt>
      <trkpt lat="47.446303" lon="7.887408">
        <ele>446.637788</ele>
        <time>2021-11-22T10:09:36.234Z</time>
      </trkpt>
      <trkpt lat="47.446228" lon="7.887482">
        <ele>446.803304</ele>
        <time>2021-11-22T10:09:38.242Z</time>
      </trkpt>
      <trkpt lat="47.446159" lon="7.887548">
        <ele>446.954160</ele>
        <time>2021-11-22T10:09:40.061Z</time>
      </trkpt>
      <trkpt lat="47.445865" lon="7.887829">
        <ele>447.596796</ele>
        <time>2021-11-22T10:09:47.846Z</time>
      </trkpt>
      <trkpt lat="47.445713" lon="7.887975">
        <ele>447.929530</ele>
        <time>2021-11-22T10:09:51.746Z</time>
      </trkpt>
      <trkpt lat="47.445254" lon="7.888414">
        <ele>449.151444</ele>
        <time>2021-11-22T10:10:03.584Z</time>
      </trkpt>
      <trkpt lat="47.445147" lon="7.888511">
        <ele>449.436406</ele>
        <time>2021-11-22T10:10:06.300Z</time>
      </trkpt>
      <trkpt lat="47.444943" lon="7.888709">
        <ele>449.990448</ele>
        <time>2021-11-22T10:10:12.377Z</time>
      </trkpt>
      <trkpt lat="47.444488" lon="7.889150">
        <ele>451.225662</ele>
        <time>2021-11-22T10:10:25.025Z</time>
      </trkpt>
      <trkpt lat="47.444393" lon="7.889238">
        <ele>451.480186</ele>
        <time>2021-11-22T10:10:28.171Z</time>
      </trkpt>
      <trkpt lat="47.444034" lon="7.889556">
        <ele>452.892622</ele>
        <time>2021-11-22T10:10:38.754Z</time>
      </trkpt>
      <trkpt lat="47.443891" lon="7.889667">
        <ele>453.763990</ele>
        <time>2021-11-22T10:10:43.110Z</time>
      </trkpt>
      <trkpt lat="47.443758" lon="7.889758">
        <ele>454.554657</ele>
        <time>2021-11-22T10:10:47.594Z</time>
      </trkpt>
      <trkpt lat="47.443195" lon="7.890087">
        <ele>457.820790</ele>
        <time>2021-11-22T10:11:06.770Z</time>
      </trkpt>
      <trkpt lat="47.442695" lon="7.890269">
        <ele>460.598945</ele>
        <time>2021-11-22T10:11:28.206Z</time>
      </trkpt>
      <trkpt lat="47.441565" lon="7.890682">
        <ele>471.266737</ele>
        <time>2021-11-22T10:12:28.685Z</time>
      </trkpt>
      <trkpt lat="47.441263" lon="7.890792">
        <ele>474.394045</ele>
        <time>2021-11-22T10:12:47.212Z</time>
      </trkpt>
      <trkpt lat="47.440728" lon="7.890993">
        <ele>479.953611</ele>
        <time>2021-11-22T10:13:20.009Z</time>
      </trkpt>
      <trkpt lat="47.440254" lon="7.891376">
        <ele>486.218284</ele>
        <time>2021-11-22T10:13:53.803Z</time>
      </trkpt>
      <trkpt lat="47.439256" lon="7.892823">
        <ele>501.791344</ele>
        <time>2021-11-22T10:15:21.394Z</time>
      </trkpt>
      <trkpt lat="47.439228" lon="7.892871">
        <ele>502.100357</ele>
        <time>2021-11-22T10:15:24.283Z</time>
      </trkpt>
      <trkpt lat="47.439042" lon="7.893234">
        <ele>504.320506</ele>
        <time>2021-11-22T10:15:39.946Z</time>
      </trkpt>
      <trkpt lat="47.438836" lon="7.893774">
        <ele>507.342939</ele>
        <time>2021-11-22T10:16:00.440Z</time>
      </trkpt>
      <trkpt lat="47.438723" lon="7.894209">
        <ele>509.614662</ele>
        <time>2021-11-22T10:16:13.910Z</time>
      </trkpt>
      <trkpt lat="47.438683" lon="7.894397">
        <ele>510.575471</ele>
        <time>2021-11-22T10:16:19.103Z</time>
      </trkpt>
      <trkpt lat="47.438392" lon="7.895853">
        <ele>512.875558</ele>
        <time>2021-11-22T10:16:46.463Z</time>
      </trkpt>
      <trkpt lat="47.438129" lon="7.896764">
        <ele>511.934446</ele>
        <time>2021-11-22T10:16:53.448Z</time>
      </trkpt>
      <trkpt lat="47.438061" lon="7.896935">
        <ele>511.745975</ele>
        <time>2021-11-22T10:16:54.779Z</time>
      </trkpt>
      <trkpt lat="47.438020" lon="7.897061">
        <ele>511.613125</ele>
        <time>2021-11-22T10:16:55.606Z</time>
      </trkpt>
      <trkpt lat="47.437727" lon="7.897775">
        <ele>509.705690</ele>
        <time>2021-11-22T10:17:01.040Z</time>
      </trkpt>
      <trkpt lat="47.437513" lon="7.898238">
        <ele>507.530660</ele>
        <time>2021-11-22T10:17:04.550Z</time>
      </trkpt>
      <trkpt lat="47.437451" lon="7.898374">
        <ele>506.894541</ele>
        <time>2021-11-22T10:17:05.503Z</time>
      </trkpt>
      <trkpt lat="47.436614" lon="7.900163">
        <ele>500.548939</ele>
        <time>2021-11-22T10:17:18.981Z</time>
      </trkpt>
      <trkpt lat="47.436392" lon="7.900644">
        <ele>500.250683</ele>
        <time>2021-11-22T10:17:23.545Z</time>
      </trkpt>
      <trkpt lat="47.436162" lon="7.901123">
        <ele>499.949806</ele>
        <time>2021-11-22T10:17:29.644Z</time>
      </trkpt>
      <trkpt lat="47.435966" lon="7.901542">
        <ele>499.688872</ele>
        <time>2021-11-22T10:17:37.128Z</time>
      </trkpt>
      <trkpt lat="47.435289" lon="7.902539">
        <ele>502.969008</ele>
        <time>2021-11-22T10:18:07.818Z</time>
      </trkpt>
      <trkpt lat="47.434454" lon="7.903404">
        <ele>507.922600</ele>
        <time>2021-11-22T10:18:48.039Z</time>
      </trkpt>
      <trkpt lat="47.433904" lon="7.903847">
        <ele>510.422949</ele>
        <time>2021-11-22T10:19:06.674Z</time>
      </trkpt>
      <trkpt lat="47.433528" lon="7.904076">
        <ele>512.004788</ele>
        <time>2021-11-22T10:19:17.965Z</time>
      </trkpt>
      <trkpt lat="47.433057" lon="7.904364">
        <ele>513.987441</ele>
        <time>2021-11-22T10:19:30.591Z</time>
      </trkpt>
      <trkpt lat="47.432000" lon="7.904989">
        <ele>519.820656</ele>
        <time>2021-11-22T10:20:10.142Z</time>
      </trkpt>
      <trkpt lat="47.431501" lon="7.905134">
        <ele>522.674008</ele>
        <time>2021-11-22T10:20:29.177Z</time>
      </trkpt>
      <trkpt lat="47.431347" lon="7.905140">
        <ele>523.538367</ele>
        <time>2021-11-22T10:20:37.216Z</time>
      </trkpt>
      <trkpt lat="47.430772" lon="7.905115">
        <ele>526.753475</ele>
        <time>2021-11-22T10:21:00.676Z</time>
      </trkpt>
      <trkpt lat="47.429366" lon="7.905049">
        <ele>534.577515</ele>
        <time>2021-11-22T10:21:56.542Z</time>
      </trkpt>
      <trkpt lat="47.427817" lon="7.905261">
        <ele>537.447167</ele>
        <time>2021-11-22T10:22:30.517Z</time>
      </trkpt>
      <trkpt lat="47.426850" lon="7.905086">
        <ele>536.899049</ele>
        <time>2021-11-22T10:22:42.479Z</time>
      </trkpt>
      <trkpt lat="47.426720" lon="7.905004">
        <ele>536.634727</ele>
        <time>2021-11-22T10:22:44.160Z</time>
      </trkpt>
      <trkpt lat="47.426613" lon="7.904841">
        <ele>536.347381</ele>
        <time>2021-11-22T10:22:46.587Z</time>
      </trkpt>
      <trkpt lat="47.426552" lon="7.904727">
        <ele>536.163491</ele>
        <time>2021-11-22T10:22:47.505Z</time>
      </trkpt>
      <trkpt lat="47.426425" lon="7.904463">
        <ele>535.753652</ele>
        <time>2021-11-22T10:22:49.992Z</time>
      </trkpt>
      <trkpt lat="47.426367" lon="7.904349">
        <ele>535.573188</ele>
        <time>2021-11-22T10:22:51.014Z</time>
      </trkpt>
      <trkpt lat="47.426138" lon="7.904113">
        <ele>535.051125</ele>
        <time>2021-11-22T10:22:53.921Z</time>
      </trkpt>
      <trkpt lat="47.425619" lon="7.903851">
        <ele>533.492592</ele>
        <time>2021-11-22T10:22:59.300Z</time>
      </trkpt>
      <trkpt lat="47.425434" lon="7.903707">
        <ele>532.766786</ele>
        <time>2021-11-22T10:23:01.622Z</time>
      </trkpt>
      <trkpt lat="47.425311" lon="7.903615">
        <ele>532.288252</ele>
        <time>2021-11-22T10:23:02.858Z</time>
      </trkpt>
      <trkpt lat="47.423589" lon="7.902766">
        <ele>527.035713</ele>
        <time>2021-11-22T10:23:21.144Z</time>
      </trkpt>
      <trkpt lat="47.423452" lon="7.902645">
        <ele>526.722093</ele>
        <time>2021-11-22T10:23:22.760Z</time>
      </trkpt>
      <trkpt lat="47.423374" lon="7.902581">
        <ele>526.546782</ele>
        <time>2021-11-22T10:23:23.742Z</time>
      </trkpt>
      <trkpt lat="47.423315" lon="7.902540">
        <ele>526.418667</ele>
        <time>2021-11-22T10:23:24.584Z</time>
      </trkpt>
      <trkpt lat="47.423238" lon="7.902495">
        <ele>526.255957</ele>
        <time>2021-11-22T10:23:25.511Z</time>
      </trkpt>
      <trkpt lat="47.423044" lon="7.902393">
        <ele>525.851328</ele>
        <time>2021-11-22T10:23:27.740Z</time>
      </trkpt>
      <trkpt lat="47.422906" lon="7.902320">
        <ele>525.563301</ele>
        <time>2021-11-22T10:23:29.676Z</time>
      </trkpt>
      <trkpt lat="47.421602" lon="7.901655">
        <ele>525.270211</ele>
        <time>2021-11-22T10:23:51.046Z</time>
      </trkpt>
      <trkpt lat="47.421521" lon="7.901542">
        <ele>525.313676</ele>
        <time>2021-11-22T10:23:53.225Z</time>
      </trkpt>
      <trkpt lat="47.421502" lon="7.901465">
        <ele>525.335316</ele>
        <time>2021-11-22T10:23:55.956Z</time>
      </trkpt>
      <trkpt lat="47.421410" lon="7.901506">
        <ele>525.372814</ele>
        <time>2021-11-22T10:23:57.055Z</time>
      </trkpt>
      <trkpt lat="47.421321" lon="7.901553">
        <ele>525.409694</ele>
        <time>2021-11-22T10:23:58.116Z</time>
      </trkpt>
      <trkpt lat="47.421222" lon="7.901610">
        <ele>525.451155</ele>
        <time>2021-11-22T10:23:59.781Z</time>
      </trkpt>
      <trkpt lat="47.421180" lon="7.901635">
        <ele>525.468824</ele>
        <time>2021-11-22T10:24:02.240Z</time>
      </trkpt>
      <trkpt lat="47.420695" lon="7.901920">
        <ele>525.898829</ele>
        <time>2021-11-22T10:24:09.701Z</time>
      </trkpt>
      <trkpt lat="47.420637" lon="7.901954">
        <ele>525.977765</ele>
        <time>2021-11-22T10:24:10.401Z</time>
      </trkpt>
      <trkpt lat="47.420085" lon="7.902235">
        <ele>526.716358</ele>
        <time>2021-11-22T10:24:22.775Z</time>
      </trkpt>
      <trkpt lat="47.419578" lon="7.902441">
        <ele>527.381557</ele>
        <time>2021-11-22T10:24:32.115Z</time>
      </trkpt>
      <trkpt lat="47.419204" lon="7.902583">
        <ele>527.913142</ele>
        <time>2021-11-22T10:24:40.778Z</time>
      </trkpt>
      <trkpt lat="47.419043" lon="7.902685">
        <ele>528.548395</ele>
        <time>2021-11-22T10:24:45.831Z</time>
      </trkpt>
      <trkpt lat="47.418932" lon="7.902787">
        <ele>529.022404</ele>
        <time>2021-11-22T10:24:48.908Z</time>
      </trkpt>
      <trkpt lat="47.418668" lon="7.903098">
        <ele>530.246737</ele>
        <time>2021-11-22T10:24:58.411Z</time>
      </trkpt>
      <trkpt lat="47.418532" lon="7.903258">
        <ele>530.877130</ele>
        <time>2021-11-22T10:25:03.157Z</time>
      </trkpt>
      <trkpt lat="47.418268" lon="7.903613">
        <ele>532.171521</ele>
        <time>2021-11-22T10:25:13.691Z</time>
      </trkpt>
      <trkpt lat="47.418232" lon="7.903669">
        <ele>532.361067</ele>
        <time>2021-11-22T10:25:15.676Z</time>
      </trkpt>
      <trkpt lat="47.418168" lon="7.903812">
        <ele>532.781780</ele>
        <time>2021-11-22T10:25:19.498Z</time>
      </trkpt>
      <trkpt lat="47.417991" lon="7.904019">
        <ele>533.600337</ele>
        <time>2021-11-22T10:25:26.615Z</time>
      </trkpt>
      <trkpt lat="47.417618" lon="7.904179">
        <ele>535.197210</ele>
        <time>2021-11-22T10:25:40.018Z</time>
      </trkpt>
      <trkpt lat="47.417531" lon="7.904238">
        <ele>535.646663</ele>
        <time>2021-11-22T10:25:43.742Z</time>
      </trkpt>
      <trkpt lat="47.417427" lon="7.904326">
        <ele>536.209357</ele>
        <time>2021-11-22T10:25:47.634Z</time>
      </trkpt>
      <trkpt lat="47.417265" lon="7.904453">
        <ele>537.070403</ele>
        <time>2021-11-22T10:25:54.683Z</time>
      </trkpt>
      <trkpt lat="47.416980" lon="7.904605">
        <ele>538.493059</ele>
        <time>2021-11-22T10:26:04.840Z</time>
      </trkpt>
      <trkpt lat="47.416822" lon="7.904701">
        <ele>539.295181</ele>
        <time>2021-11-22T10:26:11.836Z</time>
      </trkpt>
      <trkpt lat="47.416808" lon="7.904773">
        <ele>539.533195</ele>
        <time>2021-11-22T10:26:13.147Z</time>
      </trkpt>
      <trkpt lat="47.416773" lon="7.904932">
        <ele>540.064425</ele>
        <time>2021-11-22T10:26:16.286Z</time>
      </trkpt>
      <trkpt lat="47.416651" lon="7.905415">
        <ele>541.702432</ele>
        <time>2021-11-22T10:26:27.392Z</time>
      </trkpt>
      <trkpt lat="47.416580" lon="7.905705">
        <ele>542.682271</ele>
        <time>2021-11-22T10:26:34.383Z</time>
      </trkpt>
      <trkpt lat="47.416460" lon="7.906294">
        <ele>544.556169</ele>
        <time>2021-11-22T10:26:47.146Z</time>
      </trkpt>
      <trkpt lat="47.416398" lon="7.906605">
        <ele>545.540773</ele>
        <time>2021-11-22T10:26:53.703Z</time>
      </trkpt>
      <trkpt lat="47.416410" lon="7.906687">
        <ele>545.795553</ele>
        <time>2021-11-22T10:26:56.377Z</time>
      </trkpt>
      <trkpt lat="47.416442" lon="7.906759">
        <ele>546.057155</ele>
        <time>2021-11-22T10:26:57.991Z</time>
      </trkpt>
      <trkpt lat="47.416550" lon="7.906958">
        <ele>546.831855</ele>
        <time>2021-11-22T10:27:03.853Z</time>
      </trkpt>
      <trkpt lat="47.416608" lon="7.907067">
        <ele>547.252962</ele>
        <time>2021-11-22T10:27:07.464Z</time>
      </trkpt>
      <trkpt lat="47.416637" lon="7.907164">
        <ele>547.575009</ele>
        <time>2021-11-22T10:27:10.166Z</time>
      </trkpt>
      <trkpt lat="47.416673" lon="7.907346">
        <ele>548.150848</ele>
        <time>2021-11-22T10:27:14.412Z</time>
      </trkpt>
      <trkpt lat="47.416753" lon="7.907390">
        <ele>548.533946</ele>
        <time>2021-11-22T10:27:17.053Z</time>
      </trkpt>
      <trkpt lat="47.416851" lon="7.907423">
        <ele>548.985043</ele>
        <time>2021-11-22T10:27:20.897Z</time>
      </trkpt>
      <trkpt lat="47.416991" lon="7.907401">
        <ele>549.616905</ele>
        <time>2021-11-22T10:27:25.480Z</time>
      </trkpt>
      <trkpt lat="47.417045" lon="7.907386">
        <ele>549.863501</ele>
        <time>2021-11-22T10:27:26.748Z</time>
      </trkpt>
      <trkpt lat="47.417211" lon="7.907291">
        <ele>550.662418</ele>
        <time>2021-11-22T10:27:32.716Z</time>
      </trkpt>
      <trkpt lat="47.417526" lon="7.907135">
        <ele>552.408240</ele>
        <time>2021-11-22T10:27:42.741Z</time>
      </trkpt>
      <trkpt lat="47.417654" lon="7.907109">
        <ele>553.104827</ele>
        <time>2021-11-22T10:27:46.599Z</time>
      </trkpt>
      <trkpt lat="47.417654" lon="7.907109">
        <ele>553.104827</ele>
        <time>2021-11-22T10:27:46.727Z</time>
      </trkpt>
      <trkpt lat="47.417520" lon="7.907671">
        <ele>555.278616</ele>
        <time>2021-11-22T10:28:02.094Z</time>
      </trkpt>
      <trkpt lat="47.417369" lon="7.908044">
        <ele>556.864295</ele>
        <time>2021-11-22T10:28:14.070Z</time>
      </trkpt>
      <trkpt lat="47.417016" lon="7.908958">
        <ele>560.735284</ele>
        <time>2021-11-22T10:28:47.055Z</time>
      </trkpt>
      <trkpt lat="47.416301" lon="7.911097">
        <ele>571.758015</ele>
        <time>2021-11-22T10:30:05.683Z</time>
      </trkpt>
      <trkpt lat="47.415997" lon="7.911628">
        <ele>574.224550</ele>
        <time>2021-11-22T10:30:25.026Z</time>
      </trkpt>
      <trkpt lat="47.415760" lon="7.912376">
        <ele>576.686861</ele>
        <time>2021-11-22T10:30:43.222Z</time>
      </trkpt>
      <trkpt lat="47.415709" lon="7.912548">
        <ele>577.246703</ele>
        <time>2021-11-22T10:30:48.512Z</time>
      </trkpt>
      <trkpt lat="47.415639" lon="7.912609">
        <ele>577.604728</ele>
        <time>2021-11-22T10:30:50.787Z</time>
      </trkpt>
      <trkpt lat="47.415289" lon="7.913076">
        <ele>579.682255</ele>
        <time>2021-11-22T10:31:06.402Z</time>
      </trkpt>
      <trkpt lat="47.415068" lon="7.913592">
        <ele>581.347504</ele>
        <time>2021-11-22T10:31:18.894Z</time>
      </trkpt>
      <trkpt lat="47.415027" lon="7.913784">
        <ele>581.816946</ele>
        <time>2021-11-22T10:31:23.896Z</time>
      </trkpt>
      <trkpt lat="47.414979" lon="7.914028">
        <ele>582.409428</ele>
        <time>2021-11-22T10:31:28.632Z</time>
      </trkpt>
      <trkpt lat="47.414790" lon="7.914515">
        <ele>583.718450</ele>
        <time>2021-11-22T10:31:40.815Z</time>
      </trkpt>
      <trkpt lat="47.414743" lon="7.914645">
        <ele>584.062119</ele>
        <time>2021-11-22T10:31:43.780Z</time>
      </trkpt>
      <trkpt lat="47.414683" lon="7.914749">
        <ele>584.380783</ele>
        <time>2021-11-22T10:31:46.930Z</time>
      </trkpt>
      <trkpt lat="47.414533" lon="7.915331">
        <ele>585.832923</ele>
        <time>2021-11-22T10:32:01.175Z</time>
      </trkpt>
      <trkpt lat="47.414571" lon="7.915814">
        <ele>586.966715</ele>
        <time>2021-11-22T10:32:13.395Z</time>
      </trkpt>
      <trkpt lat="47.414593" lon="7.915964">
        <ele>587.794986</ele>
        <time>2021-11-22T10:32:17.627Z</time>
      </trkpt>
      <trkpt lat="47.414614" lon="7.916201">
        <ele>589.130339</ele>
        <time>2021-11-22T10:32:24.105Z</time>
      </trkpt>
      <trkpt lat="47.414611" lon="7.916472">
        <ele>590.644540</ele>
        <time>2021-11-22T10:32:31.681Z</time>
      </trkpt>
      <trkpt lat="47.414655" lon="7.916711">
        <ele>592.028295</ele>
        <time>2021-11-22T10:32:38.963Z</time>
      </trkpt>
      <trkpt lat="47.415093" lon="7.918531">
        <ele>604.101251</ele>
        <time>2021-11-22T10:33:51.306Z</time>
      </trkpt>
      <trkpt lat="47.415743" lon="7.919244">
        <ele>619.497524</ele>
        <time>2021-11-22T10:35:06.767Z</time>
      </trkpt>
      <trkpt lat="47.415878" lon="7.919394">
        <ele>622.709957</ele>
        <time>2021-11-22T10:35:25.618Z</time>
      </trkpt>
      <trkpt lat="47.416067" lon="7.919724">
        <ele>628.274124</ele>
        <time>2021-11-22T10:35:57.329Z</time>
      </trkpt>
      <trkpt lat="47.416241" lon="7.920142">
        <ele>634.590214</ele>
        <time>2021-11-22T10:36:33.595Z</time>
      </trkpt>
      <trkpt lat="47.416280" lon="7.920320">
        <ele>637.150385</ele>
        <time>2021-11-22T10:36:47.821Z</time>
      </trkpt>
      <trkpt lat="47.416295" lon="7.920442">
        <ele>639.001543</ele>
        <time>2021-11-22T10:36:57.198Z</time>
      </trkpt>
      <trkpt lat="47.416422" lon="7.920803">
        <ele>645.075753</ele>
        <time>2021-11-22T10:37:27.887Z</time>
      </trkpt>
      <trkpt lat="47.416551" lon="7.921143">
        <ele>650.895049</ele>
        <time>2021-11-22T10:37:57.436Z</time>
      </trkpt>
      <trkpt lat="47.416551" lon="7.922152">
        <ele>665.958318</ele>
        <time>2021-11-22T10:39:13.537Z</time>
      </trkpt>
      <trkpt lat="47.416740" lon="7.922487">
        <ele>672.469781</ele>
        <time>2021-11-22T10:39:46.435Z</time>
      </trkpt>
      <trkpt lat="47.416907" lon="7.922626">
        <ele>676.355195</ele>
        <time>2021-11-22T10:40:03.227Z</time>
      </trkpt>
      <trkpt lat="47.417060" lon="7.923009">
        <ele>680.643402</ele>
        <time>2021-11-22T10:40:29.037Z</time>
      </trkpt>
      <trkpt lat="47.417315" lon="7.923258">
        <ele>684.998323</ele>
        <time>2021-11-22T10:40:51.771Z</time>
      </trkpt>
      <trkpt lat="47.417440" lon="7.923660">
        <ele>689.263838</ele>
        <time>2021-11-22T10:41:13.878Z</time>
      </trkpt>
      <trkpt lat="47.417590" lon="7.923893">
        <ele>692.364589</ele>
        <time>2021-11-22T10:41:29.675Z</time>
      </trkpt>
      <trkpt lat="47.417664" lon="7.924293">
        <ele>696.362696</ele>
        <time>2021-11-22T10:41:49.809Z</time>
      </trkpt>
      <trkpt lat="47.417788" lon="7.924508">
        <ele>699.086416</ele>
        <time>2021-11-22T10:42:03.423Z</time>
      </trkpt>
      <trkpt lat="47.417884" lon="7.925463">
        <ele>706.706600</ele>
        <time>2021-11-22T10:42:47.394Z</time>
      </trkpt>
      <trkpt lat="47.418164" lon="7.926180">
        <ele>712.773182</ele>
        <time>2021-11-22T10:43:22.652Z</time>
      </trkpt>
      <trkpt lat="47.418236" lon="7.926706">
        <ele>716.705870</ele>
        <time>2021-11-22T10:43:44.940Z</time>
      </trkpt>
      <trkpt lat="47.418735" lon="7.928053">
        <ele>727.289238</ele>
        <time>2021-11-22T10:44:47.346Z</time>
      </trkpt>
      <trkpt lat="47.418844" lon="7.928621">
        <ele>731.208633</ele>
        <time>2021-11-22T10:45:11.263Z</time>
      </trkpt>
      <trkpt lat="47.418827" lon="7.928951">
        <ele>733.405683</ele>
        <time>2021-11-22T10:45:24.617Z</time>
      </trkpt>
      <trkpt lat="47.419061" lon="7.929738">
        <ele>739.044415</ele>
        <time>2021-11-22T10:45:58.920Z</time>
      </trkpt>
      <trkpt lat="47.419019" lon="7.930038">
        <ele>740.858251</ele>
        <time>2021-11-22T10:46:11.221Z</time>
      </trkpt>
      <trkpt lat="47.419056" lon="7.930533">
        <ele>743.806833</ele>
        <time>2021-11-22T10:46:30.510Z</time>
      </trkpt>
      <trkpt lat="47.419186" lon="7.930749">
        <ele>745.518412</ele>
        <time>2021-11-22T10:46:41.189Z</time>
      </trkpt>
      <trkpt lat="47.419326" lon="7.931556">
        <ele>750.450954</ele>
        <time>2021-11-22T10:47:14.689Z</time>
      </trkpt>
      <trkpt lat="47.419571" lon="7.932270">
        <ele>754.678972</ele>
        <time>2021-11-22T10:47:41.322Z</time>
      </trkpt>
      <trkpt lat="47.419799" lon="7.932769">
        <ele>756.359167</ele>
        <time>2021-11-22T10:47:59.194Z</time>
      </trkpt>
      <trkpt lat="47.419807" lon="7.932908">
        <ele>756.748442</ele>
        <time>2021-11-22T10:48:04.255Z</time>
      </trkpt>
      <trkpt lat="47.419808" lon="7.932981">
        <ele>756.952187</ele>
        <time>2021-11-22T10:48:06.361Z</time>
      </trkpt>
      <trkpt lat="47.419780" lon="7.933237">
        <ele>757.675818</ele>
        <time>2021-11-22T10:48:12.003Z</time>
      </trkpt>
      <trkpt lat="47.419737" lon="7.933541">
        <ele>758.542457</ele>
        <time>2021-11-22T10:48:20.536Z</time>
      </trkpt>
      <trkpt lat="47.419710" lon="7.933731">
        <ele>759.084213</ele>
        <time>2021-11-22T10:48:26.270Z</time>
      </trkpt>
      <trkpt lat="47.419697" lon="7.933825">
        <ele>759.351939</ele>
        <time>2021-11-22T10:48:29.261Z</time>
      </trkpt>
      <trkpt lat="47.419497" lon="7.934707">
        <ele>761.560024</ele>
        <time>2021-11-22T10:48:57.992Z</time>
      </trkpt>
      <trkpt lat="47.419297" lon="7.934952">
        <ele>761.279534</ele>
        <time>2021-11-22T10:49:09.223Z</time>
      </trkpt>
      <trkpt lat="47.419161" lon="7.935303">
        <ele>760.984026</ele>
        <time>2021-11-22T10:49:18.389Z</time>
      </trkpt>
      <trkpt lat="47.418955" lon="7.936370">
        <ele>760.173365</ele>
        <time>2021-11-22T10:49:41.507Z</time>
      </trkpt>
      <trkpt lat="47.418877" lon="7.936595">
        <ele>759.988661</ele>
        <time>2021-11-22T10:49:46.989Z</time>
      </trkpt>
      <trkpt lat="47.418903" lon="7.937717">
        <ele>759.313292</ele>
        <time>2021-11-22T10:50:11.033Z</time>
      </trkpt>
      <trkpt lat="47.418879" lon="7.937864">
        <ele>759.233010</ele>
        <time>2021-11-22T10:50:14.147Z</time>
      </trkpt>
      <trkpt lat="47.418854" lon="7.937970">
        <ele>759.173414</ele>
        <time>2021-11-22T10:50:15.349Z</time>
      </trkpt>
      <trkpt lat="47.418782" lon="7.938308">
        <ele>758.985287</ele>
        <time>2021-11-22T10:50:19.716Z</time>
      </trkpt>
      <trkpt lat="47.418774" lon="7.938414">
        <ele>758.928662</ele>
        <time>2021-11-22T10:50:20.801Z</time>
      </trkpt>
      <trkpt lat="47.418762" lon="7.938641">
        <ele>758.807781</ele>
        <time>2021-11-22T10:50:22.994Z</time>
      </trkpt>
      <trkpt lat="47.418789" lon="7.939219">
        <ele>758.500189</ele>
        <time>2021-11-22T10:50:28.423Z</time>
      </trkpt>
      <trkpt lat="47.419082" lon="7.940220">
        <ele>759.516963</ele>
        <time>2021-11-22T10:50:40.963Z</time>
      </trkpt>
      <trkpt lat="47.419184" lon="7.941194">
        <ele>761.275504</ele>
        <time>2021-11-22T10:51:00.075Z</time>
      </trkpt>
      <trkpt lat="47.419425" lon="7.942445">
        <ele>763.577463</ele>
        <time>2021-11-22T10:51:26.280Z</time>
      </trkpt>
      <trkpt lat="47.419469" lon="7.942694">
        <ele>764.021372</ele>
        <time>2021-11-22T10:51:30.619Z</time>
      </trkpt>
      <trkpt lat="47.419480" lon="7.942782">
        <ele>764.175733</ele>
        <time>2021-11-22T10:51:34.173Z</time>
      </trkpt>
      <trkpt lat="47.419436" lon="7.943185">
        <ele>764.879866</ele>
        <time>2021-11-22T10:51:39.404Z</time>
      </trkpt>
      <trkpt lat="47.419403" lon="7.943280">
        <ele>765.064066</ele>
        <time>2021-11-22T10:51:43.590Z</time>
      </trkpt>
      <trkpt lat="47.419628" lon="7.943420">
        <ele>765.686418</ele>
        <time>2021-11-22T10:51:48.332Z</time>
      </trkpt>
      <trkpt lat="47.420597" lon="7.943743">
        <ele>767.326690</ele>
        <time>2021-11-22T10:52:11.654Z</time>
      </trkpt>
      <trkpt lat="47.420682" lon="7.943737">
        <ele>767.222932</ele>
        <time>2021-11-22T10:52:12.652Z</time>
      </trkpt>
      <trkpt lat="47.420805" lon="7.943719">
        <ele>767.072227</ele>
        <time>2021-11-22T10:52:15.364Z</time>
      </trkpt>
      <trkpt lat="47.420877" lon="7.943722">
        <ele>766.984403</ele>
        <time>2021-11-22T10:52:16.275Z</time>
      </trkpt>
      <trkpt lat="47.420976" lon="7.943782">
        <ele>766.853939</ele>
        <time>2021-11-22T10:52:17.492Z</time>
      </trkpt>
      <trkpt lat="47.421012" lon="7.943822">
        <ele>766.799024</ele>
        <time>2021-11-22T10:52:18.032Z</time>
      </trkpt>
      <trkpt lat="47.421108" lon="7.943951">
        <ele>766.640825</ele>
        <time>2021-11-22T10:52:19.491Z</time>
      </trkpt>
      <trkpt lat="47.421331" lon="7.944359">
        <ele>766.208133</ele>
        <time>2021-11-22T10:52:23.616Z</time>
      </trkpt>
      <trkpt lat="47.421631" lon="7.945174">
        <ele>765.442720</ele>
        <time>2021-11-22T10:52:30.132Z</time>
      </trkpt>
      <trkpt lat="47.421944" lon="7.945671">
        <ele>762.986763</ele>
        <time>2021-11-22T10:52:34.639Z</time>
      </trkpt>
      <trkpt lat="47.422126" lon="7.946071">
        <ele>761.192103</ele>
        <time>2021-11-22T10:52:37.802Z</time>
      </trkpt>
      <trkpt lat="47.422193" lon="7.946222">
        <ele>760.519811</ele>
        <time>2021-11-22T10:52:38.865Z</time>
      </trkpt>
      <trkpt lat="47.422250" lon="7.946328">
        <ele>760.015704</ele>
        <time>2021-11-22T10:52:39.661Z</time>
      </trkpt>
      <trkpt lat="47.422351" lon="7.946426">
        <ele>759.350868</ele>
        <time>2021-11-22T10:52:40.909Z</time>
      </trkpt>
      <trkpt lat="47.422561" lon="7.946612">
        <ele>758.003695</ele>
        <time>2021-11-22T10:52:43.054Z</time>
      </trkpt>
      <trkpt lat="47.423268" lon="7.947444">
        <ele>752.588217</ele>
        <time>2021-11-22T10:52:51.334Z</time>
      </trkpt>
      <trkpt lat="47.423328" lon="7.947553">
        <ele>751.972242</ele>
        <time>2021-11-22T10:52:52.147Z</time>
      </trkpt>
      <trkpt lat="47.423363" lon="7.947641">
        <ele>751.524770</ele>
        <time>2021-11-22T10:52:52.746Z</time>
      </trkpt>
      <trkpt lat="47.423417" lon="7.947883">
        <ele>750.407738</ele>
        <time>2021-11-22T10:52:54.428Z</time>
      </trkpt>
      <trkpt lat="47.423374" lon="7.948260">
        <ele>748.731809</ele>
        <time>2021-11-22T10:52:56.714Z</time>
      </trkpt>
      <trkpt lat="47.423266" lon="7.948471">
        <ele>747.572006</ele>
        <time>2021-11-22T10:52:58.393Z</time>
      </trkpt>
      <trkpt lat="47.422976" lon="7.948772">
        <ele>745.276061</ele>
        <time>2021-11-22T10:53:01.649Z</time>
      </trkpt>
      <trkpt lat="47.422934" lon="7.948905">
        <ele>744.632661</ele>
        <time>2021-11-22T10:53:02.519Z</time>
      </trkpt>
      <trkpt lat="47.422940" lon="7.948986">
        <ele>744.275466</ele>
        <time>2021-11-22T10:53:03.021Z</time>
      </trkpt>
      <trkpt lat="47.422958" lon="7.949050">
        <ele>743.971641</ele>
        <time>2021-11-22T10:53:03.500Z</time>
      </trkpt>
      <trkpt lat="47.423086" lon="7.949148">
        <ele>743.098034</ele>
        <time>2021-11-22T10:53:04.851Z</time>
      </trkpt>
      <trkpt lat="47.423726" lon="7.949015">
        <ele>739.213909</ele>
        <time>2021-11-22T10:53:10.718Z</time>
      </trkpt>
      <trkpt lat="47.423922" lon="7.948906">
        <ele>737.955362</ele>
        <time>2021-11-22T10:53:12.571Z</time>
      </trkpt>
      <trkpt lat="47.424604" lon="7.947906">
        <ele>731.897975</ele>
        <time>2021-11-22T10:53:21.558Z</time>
      </trkpt>
      <trkpt lat="47.424674" lon="7.947832">
        <ele>731.213806</ele>
        <time>2021-11-22T10:53:22.292Z</time>
      </trkpt>
      <trkpt lat="47.424790" lon="7.947734">
        <ele>730.151621</ele>
        <time>2021-11-22T10:53:23.648Z</time>
      </trkpt>
      <trkpt lat="47.425147" lon="7.947512">
        <ele>727.072600</ele>
        <time>2021-11-22T10:53:27.478Z</time>
      </trkpt>
      <trkpt lat="47.425312" lon="7.947487">
        <ele>725.754010</ele>
        <time>2021-11-22T10:53:28.906Z</time>
      </trkpt>
      <trkpt lat="47.425456" lon="7.947465">
        <ele>724.603140</ele>
        <time>2021-11-22T10:53:30.256Z</time>
      </trkpt>
      <trkpt lat="47.425498" lon="7.947459">
        <ele>724.267693</ele>
        <time>2021-11-22T10:53:30.722Z</time>
      </trkpt>
      <trkpt lat="47.425835" lon="7.947558">
        <ele>721.536211</ele>
        <time>2021-11-22T10:53:33.681Z</time>
      </trkpt>
      <trkpt lat="47.426172" lon="7.947859">
        <ele>718.144341</ele>
        <time>2021-11-22T10:53:36.994Z</time>
      </trkpt>
      <trkpt lat="47.426240" lon="7.947961">
        <ele>716.809560</ele>
        <time>2021-11-22T10:53:37.820Z</time>
      </trkpt>
      <trkpt lat="47.426320" lon="7.948063">
        <ele>715.353965</ele>
        <time>2021-11-22T10:53:38.698Z</time>
      </trkpt>
      <trkpt lat="47.426514" lon="7.948142">
        <ele>712.581552</ele>
        <time>2021-11-22T10:53:40.453Z</time>
      </trkpt>
      <trkpt lat="47.426547" lon="7.948133">
        <ele>712.119221</ele>
        <time>2021-11-22T10:53:40.742Z</time>
      </trkpt>
      <trkpt lat="47.426587" lon="7.948105">
        <ele>711.509446</ele>
        <time>2021-11-22T10:53:41.115Z</time>
      </trkpt>
      <trkpt lat="47.426691" lon="7.947897">
        <ele>709.098665</ele>
        <time>2021-11-22T10:53:42.605Z</time>
      </trkpt>
      <trkpt lat="47.426641" lon="7.947531">
        <ele>705.618344</ele>
        <time>2021-11-22T10:53:44.711Z</time>
      </trkpt>
      <trkpt lat="47.426598" lon="7.947306">
        <ele>703.439060</ele>
        <time>2021-11-22T10:53:46.031Z</time>
      </trkpt>
      <trkpt lat="47.426551" lon="7.947011">
        <ele>700.614159</ele>
        <time>2021-11-22T10:53:47.725Z</time>
      </trkpt>
      <trkpt lat="47.426554" lon="7.946505">
        <ele>695.897573</ele>
        <time>2021-11-22T10:53:50.558Z</time>
      </trkpt>
      <trkpt lat="47.426763" lon="7.945300">
        <ele>687.965107</ele>
        <time>2021-11-22T10:53:57.587Z</time>
      </trkpt>
      <trkpt lat="47.426788" lon="7.945129">
        <ele>686.951446</ele>
        <time>2021-11-22T10:53:58.567Z</time>
      </trkpt>
      <trkpt lat="47.426834" lon="7.944970">
        <ele>685.949484</ele>
        <time>2021-11-22T10:53:59.604Z</time>
      </trkpt>
      <trkpt lat="47.427334" lon="7.943795">
        <ele>678.369021</ele>
        <time>2021-11-22T10:54:08.912Z</time>
      </trkpt>
      <trkpt lat="47.427365" lon="7.943049">
        <ele>677.021853</ele>
        <time>2021-11-22T10:54:16.108Z</time>
      </trkpt>
      <trkpt lat="47.427671" lon="7.942227">
        <ele>675.330744</ele>
        <time>2021-11-22T10:54:26.957Z</time>
      </trkpt>
      <trkpt lat="47.427590" lon="7.941648">
        <ele>674.265047</ele>
        <time>2021-11-22T10:54:30.883Z</time>
      </trkpt>
      <trkpt lat="47.427387" lon="7.940897">
        <ele>668.797441</ele>
        <time>2021-11-22T10:54:35.643Z</time>
      </trkpt>
      <trkpt lat="47.427374" lon="7.940805">
        <ele>667.933693</ele>
        <time>2021-11-22T10:54:37.206Z</time>
      </trkpt>
      <trkpt lat="47.427373" lon="7.940710">
        <ele>667.060514</ele>
        <time>2021-11-22T10:54:37.738Z</time>
      </trkpt>
      <trkpt lat="47.427416" lon="7.940458">
        <ele>664.672042</ele>
        <time>2021-11-22T10:54:39.213Z</time>
      </trkpt>
      <trkpt lat="47.427575" lon="7.940106">
        <ele>660.782275</ele>
        <time>2021-11-22T10:54:41.717Z</time>
      </trkpt>
      <trkpt lat="47.427650" lon="7.939972">
        <ele>659.183966</ele>
        <time>2021-11-22T10:54:42.678Z</time>
      </trkpt>
      <trkpt lat="47.427839" lon="7.939696">
        <ele>655.574854</ele>
        <time>2021-11-22T10:54:44.891Z</time>
      </trkpt>
      <trkpt lat="47.427904" lon="7.939616">
        <ele>654.425848</ele>
        <time>2021-11-22T10:54:45.589Z</time>
      </trkpt>
      <trkpt lat="47.428064" lon="7.939492">
        <ele>651.971703</ele>
        <time>2021-11-22T10:54:47.095Z</time>
      </trkpt>
      <trkpt lat="47.428131" lon="7.939456">
        <ele>651.003275</ele>
        <time>2021-11-22T10:54:47.682Z</time>
      </trkpt>
      <trkpt lat="47.428188" lon="7.939435">
        <ele>650.205269</ele>
        <time>2021-11-22T10:54:48.185Z</time>
      </trkpt>
      <trkpt lat="47.428844" lon="7.939341">
        <ele>638.327658</ele>
        <time>2021-11-22T10:54:53.587Z</time>
      </trkpt>
      <trkpt lat="47.428887" lon="7.939301">
        <ele>637.388303</ele>
        <time>2021-11-22T10:54:54.017Z</time>
      </trkpt>
      <trkpt lat="47.428968" lon="7.939204">
        <ele>635.460904</ele>
        <time>2021-11-22T10:54:54.874Z</time>
      </trkpt>
      <trkpt lat="47.429049" lon="7.939099">
        <ele>633.469000</ele>
        <time>2021-11-22T10:54:55.769Z</time>
      </trkpt>
      <trkpt lat="47.429126" lon="7.938998">
        <ele>631.565657</ele>
        <time>2021-11-22T10:54:56.607Z</time>
      </trkpt>
      <trkpt lat="47.429208" lon="7.938884">
        <ele>629.484372</ele>
        <time>2021-11-22T10:54:57.527Z</time>
      </trkpt>
      <trkpt lat="47.429422" lon="7.938553">
        <ele>623.757637</ele>
        <time>2021-11-22T10:55:00.078Z</time>
      </trkpt>
      <trkpt lat="47.429698" lon="7.938099">
        <ele>616.123105</ele>
        <time>2021-11-22T10:55:03.519Z</time>
      </trkpt>
      <trkpt lat="47.430098" lon="7.937743">
        <ele>610.915312</ele>
        <time>2021-11-22T10:55:07.417Z</time>
      </trkpt>
      <trkpt lat="47.430152" lon="7.937646">
        <ele>609.969340</ele>
        <time>2021-11-22T10:55:08.114Z</time>
      </trkpt>
      <trkpt lat="47.430189" lon="7.937568">
        <ele>609.251965</ele>
        <time>2021-11-22T10:55:08.657Z</time>
      </trkpt>
      <trkpt lat="47.430314" lon="7.937276">
        <ele>606.649850</ele>
        <time>2021-11-22T10:55:10.661Z</time>
      </trkpt>
      <trkpt lat="47.430396" lon="7.937100">
        <ele>605.040608</ele>
        <time>2021-11-22T10:55:11.893Z</time>
      </trkpt>
      <trkpt lat="47.430465" lon="7.936959">
        <ele>603.730157</ele>
        <time>2021-11-22T10:55:12.959Z</time>
      </trkpt>
      <trkpt lat="47.430872" lon="7.936442">
        <ele>597.756723</ele>
        <time>2021-11-22T10:55:17.603Z</time>
      </trkpt>
      <trkpt lat="47.431327" lon="7.935907">
        <ele>593.247729</ele>
        <time>2021-11-22T10:55:22.803Z</time>
      </trkpt>
      <trkpt lat="47.431370" lon="7.935871">
        <ele>592.923025</ele>
        <time>2021-11-22T10:55:23.214Z</time>
      </trkpt>
      <trkpt lat="47.431654" lon="7.935633">
        <ele>590.777963</ele>
        <time>2021-11-22T10:55:26.186Z</time>
      </trkpt>
      <trkpt lat="47.431738" lon="7.935566">
        <ele>590.150812</ele>
        <time>2021-11-22T10:55:26.988Z</time>
      </trkpt>
      <trkpt lat="47.431977" lon="7.935653">
        <ele>588.533517</ele>
        <time>2021-11-22T10:55:29.363Z</time>
      </trkpt>
      <trkpt lat="47.432352" lon="7.935654">
        <ele>586.069521</ele>
        <time>2021-11-22T10:55:32.834Z</time>
      </trkpt>
      <trkpt lat="47.432374" lon="7.935658">
        <ele>585.923878</ele>
        <time>2021-11-22T10:55:33.017Z</time>
      </trkpt>
      <trkpt lat="47.432419" lon="7.935671">
        <ele>585.622606</ele>
        <time>2021-11-22T10:55:33.413Z</time>
      </trkpt>
      <trkpt lat="47.432624" lon="7.935687">
        <ele>584.273747</ele>
        <time>2021-11-22T10:55:35.493Z</time>
      </trkpt>
      <trkpt lat="47.432699" lon="7.935659">
        <ele>584.107518</ele>
        <time>2021-11-22T10:55:36.270Z</time>
      </trkpt>
      <trkpt lat="47.432772" lon="7.935614">
        <ele>583.949446</ele>
        <time>2021-11-22T10:55:36.946Z</time>
      </trkpt>
      <trkpt lat="47.432898" lon="7.935515">
        <ele>583.664267</ele>
        <time>2021-11-22T10:55:38.411Z</time>
      </trkpt>
      <trkpt lat="47.433050" lon="7.935392">
        <ele>583.317950</ele>
        <time>2021-11-22T10:55:40.094Z</time>
      </trkpt>
      <trkpt lat="47.433187" lon="7.935304">
        <ele>583.019417</ele>
        <time>2021-11-22T10:55:41.518Z</time>
      </trkpt>
      <trkpt lat="47.433385" lon="7.935078">
        <ele>582.519473</ele>
        <time>2021-11-22T10:55:44.214Z</time>
      </trkpt>
      <trkpt lat="47.433512" lon="7.934950">
        <ele>582.212278</ele>
        <time>2021-11-22T10:55:46.143Z</time>
      </trkpt>
      <trkpt lat="47.433620" lon="7.934930">
        <ele>581.994746</ele>
        <time>2021-11-22T10:55:48.529Z</time>
      </trkpt>
      <trkpt lat="47.434298" lon="7.934609">
        <ele>580.640173</ele>
        <time>2021-11-22T10:55:58.630Z</time>
      </trkpt>
      <trkpt lat="47.434567" lon="7.934576">
        <ele>580.508006</ele>
        <time>2021-11-22T10:56:03.115Z</time>
      </trkpt>
      <trkpt lat="47.434614" lon="7.934590">
        <ele>580.484531</ele>
        <time>2021-11-22T10:56:04.276Z</time>
      </trkpt>
      <trkpt lat="47.434668" lon="7.934617">
        <ele>580.456618</ele>
        <time>2021-11-22T10:56:05.796Z</time>
      </trkpt>
      <trkpt lat="47.434806" lon="7.934720">
        <ele>580.380924</ele>
        <time>2021-11-22T10:56:07.386Z</time>
      </trkpt>
      <trkpt lat="47.434953" lon="7.934914">
        <ele>580.284439</ele>
        <time>2021-11-22T10:56:11.703Z</time>
      </trkpt>
      <trkpt lat="47.435021" lon="7.934988">
        <ele>580.243095</ele>
        <time>2021-11-22T10:56:12.500Z</time>
      </trkpt>
      <trkpt lat="47.435108" lon="7.935067">
        <ele>580.193102</ele>
        <time>2021-11-22T10:56:13.923Z</time>
      </trkpt>
      <trkpt lat="47.435139" lon="7.935085">
        <ele>580.176794</ele>
        <time>2021-11-22T10:56:14.940Z</time>
      </trkpt>
      <trkpt lat="47.435218" lon="7.935133">
        <ele>580.134973</ele>
        <time>2021-11-22T10:56:16.374Z</time>
      </trkpt>
      <trkpt lat="47.435945" lon="7.935453">
        <ele>579.760455</ele>
        <time>2021-11-22T10:56:25.782Z</time>
      </trkpt>
      <trkpt lat="47.435987" lon="7.935459">
        <ele>579.736245</ele>
        <time>2021-11-22T10:56:26.338Z</time>
      </trkpt>
      <trkpt lat="47.436041" lon="7.935466">
        <ele>579.705144</ele>
        <time>2021-11-22T10:56:26.824Z</time>
      </trkpt>
      <trkpt lat="47.436379" lon="7.935508">
        <ele>579.510531</ele>
        <time>2021-11-22T10:56:31.066Z</time>
      </trkpt>
      <trkpt lat="47.436645" lon="7.935783">
        <ele>579.324298</ele>
        <time>2021-11-22T10:56:35.070Z</time>
      </trkpt>
      <trkpt lat="47.436754" lon="7.935830">
        <ele>579.259154</ele>
        <time>2021-11-22T10:56:36.221Z</time>
      </trkpt>
      <trkpt lat="47.436817" lon="7.935819">
        <ele>579.222756</ele>
        <time>2021-11-22T10:56:36.808Z</time>
      </trkpt>
      <trkpt lat="47.436959" lon="7.935813">
        <ele>579.141250</ele>
        <time>2021-11-22T10:56:40.276Z</time>
      </trkpt>
      <trkpt lat="47.437163" lon="7.935805">
        <ele>579.024163</ele>
        <time>2021-11-22T10:56:42.356Z</time>
      </trkpt>
      <trkpt lat="47.437455" lon="7.935929">
        <ele>578.849852</ele>
        <time>2021-11-22T10:56:47.232Z</time>
      </trkpt>
      <trkpt lat="47.438097" lon="7.936295">
        <ele>579.879098</ele>
        <time>2021-11-22T10:57:03.098Z</time>
      </trkpt>
      <trkpt lat="47.438488" lon="7.936601">
        <ele>580.852299</ele>
        <time>2021-11-22T10:57:14.662Z</time>
      </trkpt>
      <trkpt lat="47.438795" lon="7.937030">
        <ele>581.781562</ele>
        <time>2021-11-22T10:57:26.054Z</time>
      </trkpt>
      <trkpt lat="47.439053" lon="7.937594">
        <ele>582.805604</ele>
        <time>2021-11-22T10:57:37.028Z</time>
      </trkpt>
      <trkpt lat="47.439305" lon="7.937977">
        <ele>583.699303</ele>
        <time>2021-11-22T10:57:44.379Z</time>
      </trkpt>
      <trkpt lat="47.439513" lon="7.938183">
        <ele>584.318397</ele>
        <time>2021-11-22T10:57:49.509Z</time>
      </trkpt>
      <trkpt lat="47.439973" lon="7.938391">
        <ele>585.507927</ele>
        <time>2021-11-22T10:58:01.600Z</time>
      </trkpt>
      <trkpt lat="47.440111" lon="7.938384">
        <ele>585.849383</ele>
        <time>2021-11-22T10:58:04.264Z</time>
      </trkpt>
      <trkpt lat="47.440276" lon="7.938174">
        <ele>586.387760</ele>
        <time>2021-11-22T10:58:10.606Z</time>
      </trkpt>
      <trkpt lat="47.440493" lon="7.937497">
        <ele>588.119968</ele>
        <time>2021-11-22T10:58:24.002Z</time>
      </trkpt>
      <trkpt lat="47.440535" lon="7.937445">
        <ele>588.388821</ele>
        <time>2021-11-22T10:58:24.551Z</time>
      </trkpt>
      <trkpt lat="47.440583" lon="7.937384">
        <ele>588.699455</ele>
        <time>2021-11-22T10:58:29.151Z</time>
      </trkpt>
      <trkpt lat="47.440806" lon="7.937210">
        <ele>589.936941</ele>
        <time>2021-11-22T10:58:36.017Z</time>
      </trkpt>
      <trkpt lat="47.441000" lon="7.937143">
        <ele>590.914677</ele>
        <time>2021-11-22T10:58:44.010Z</time>
      </trkpt>
      <trkpt lat="47.441541" lon="7.937289">
        <ele>593.613644</ele>
        <time>2021-11-22T10:59:02.925Z</time>
      </trkpt>
      <trkpt lat="47.442638" lon="7.937187">
        <ele>598.265175</ele>
        <time>2021-11-22T10:59:47.201Z</time>
      </trkpt>
      <trkpt lat="47.443543" lon="7.937251">
        <ele>601.620313</ele>
        <time>2021-11-22T11:00:12.211Z</time>
      </trkpt>
      <trkpt lat="47.443821" lon="7.937284">
        <ele>602.634687</ele>
        <time>2021-11-22T11:00:17.798Z</time>
      </trkpt>
      <trkpt lat="47.444030" lon="7.937346">
        <ele>602.112567</ele>
        <time>2021-11-22T11:00:21.349Z</time>
      </trkpt>
      <trkpt lat="47.444304" lon="7.937471">
        <ele>601.410222</ele>
        <time>2021-11-22T11:00:25.219Z</time>
      </trkpt>
      <trkpt lat="47.444544" lon="7.937668">
        <ele>600.737867</ele>
        <time>2021-11-22T11:00:28.561Z</time>
      </trkpt>
      <trkpt lat="47.444935" lon="7.938269">
        <ele>599.356439</ele>
        <time>2021-11-22T11:00:34.274Z</time>
      </trkpt>
      <trkpt lat="47.445088" lon="7.938426">
        <ele>598.900284</ele>
        <time>2021-11-22T11:00:36.045Z</time>
      </trkpt>
      <trkpt lat="47.445739" lon="7.938730">
        <ele>595.498382</ele>
        <time>2021-11-22T11:00:42.312Z</time>
      </trkpt>
      <trkpt lat="47.445987" lon="7.938989">
        <ele>593.479001</ele>
        <time>2021-11-22T11:00:44.995Z</time>
      </trkpt>
      <trkpt lat="47.446136" lon="7.939210">
        <ele>592.075349</ele>
        <time>2021-11-22T11:00:46.889Z</time>
      </trkpt>
      <trkpt lat="47.446200" lon="7.939305">
        <ele>591.472204</ele>
        <time>2021-11-22T11:00:47.661Z</time>
      </trkpt>
      <trkpt lat="47.446350" lon="7.939484">
        <ele>590.190189</ele>
        <time>2021-11-22T11:00:49.494Z</time>
      </trkpt>
      <trkpt lat="47.446714" lon="7.939663">
        <ele>587.638841</ele>
        <time>2021-11-22T11:00:52.936Z</time>
      </trkpt>
      <trkpt lat="47.446911" lon="7.939640">
        <ele>586.324508</ele>
        <time>2021-11-22T11:00:54.684Z</time>
      </trkpt>
      <trkpt lat="47.447023" lon="7.939500">
        <ele>585.827438</ele>
        <time>2021-11-22T11:00:56.085Z</time>
      </trkpt>
      <trkpt lat="47.447088" lon="7.939400">
        <ele>585.526357</ele>
        <time>2021-11-22T11:00:56.890Z</time>
      </trkpt>
      <trkpt lat="47.447148" lon="7.939307">
        <ele>585.247350</ele>
        <time>2021-11-22T11:00:57.687Z</time>
      </trkpt>
      <trkpt lat="47.447375" lon="7.938987">
        <ele>584.240668</ele>
        <time>2021-11-22T11:01:00.577Z</time>
      </trkpt>
      <trkpt lat="47.447514" lon="7.938816">
        <ele>583.660284</ele>
        <time>2021-11-22T11:01:02.580Z</time>
      </trkpt>
      <trkpt lat="47.447579" lon="7.938758">
        <ele>583.416602</ele>
        <time>2021-11-22T11:01:03.309Z</time>
      </trkpt>
      <trkpt lat="47.447622" lon="7.938729">
        <ele>583.264902</ele>
        <time>2021-11-22T11:01:03.743Z</time>
      </trkpt>
      <trkpt lat="47.447884" lon="7.938706">
        <ele>582.422447</ele>
        <time>2021-11-22T11:01:06.992Z</time>
      </trkpt>
      <trkpt lat="47.448076" lon="7.938764">
        <ele>581.793431</ele>
        <time>2021-11-22T11:01:09.051Z</time>
      </trkpt>
      <trkpt lat="47.448323" lon="7.938940">
        <ele>580.913359</ele>
        <time>2021-11-22T11:01:12.213Z</time>
      </trkpt>
      <trkpt lat="47.448504" lon="7.939113">
        <ele>580.642949</ele>
        <time>2021-11-22T11:01:15.656Z</time>
      </trkpt>
      <trkpt lat="47.448566" lon="7.939145">
        <ele>580.750846</ele>
        <time>2021-11-22T11:01:17.318Z</time>
      </trkpt>
      <trkpt lat="47.448632" lon="7.939166">
        <ele>580.861770</ele>
        <time>2021-11-22T11:01:18.781Z</time>
      </trkpt>
      <trkpt lat="47.448737" lon="7.939187">
        <ele>581.035863</ele>
        <time>2021-11-22T11:01:20.596Z</time>
      </trkpt>
      <trkpt lat="47.448995" lon="7.939236">
        <ele>581.463255</ele>
        <time>2021-11-22T11:01:26.253Z</time>
      </trkpt>
      <trkpt lat="47.449095" lon="7.939194">
        <ele>581.634060</ele>
        <time>2021-11-22T11:01:28.072Z</time>
      </trkpt>
      <trkpt lat="47.449121" lon="7.939164">
        <ele>581.688246</ele>
        <time>2021-11-22T11:01:28.484Z</time>
      </trkpt>
      <trkpt lat="47.449215" lon="7.939276">
        <ele>581.886591</ele>
        <time>2021-11-22T11:01:31.505Z</time>
      </trkpt>
      <trkpt lat="47.449278" lon="7.939333">
        <ele>582.007942</ele>
        <time>2021-11-22T11:01:33.344Z</time>
      </trkpt>
      <trkpt lat="47.449351" lon="7.939383">
        <ele>582.140127</ele>
        <time>2021-11-22T11:01:35.403Z</time>
      </trkpt>
      <trkpt lat="47.449443" lon="7.939446">
        <ele>582.306710</ele>
        <time>2021-11-22T11:01:36.657Z</time>
      </trkpt>
      <trkpt lat="47.449589" lon="7.939535">
        <ele>582.566181</ele>
        <time>2021-11-22T11:01:41.558Z</time>
      </trkpt>
      <trkpt lat="47.449814" lon="7.939672">
        <ele>582.965983</ele>
        <time>2021-11-22T11:01:46.268Z</time>
      </trkpt>
      <trkpt lat="47.449913" lon="7.939726">
        <ele>583.139359</ele>
        <time>2021-11-22T11:01:50.426Z</time>
      </trkpt>
      <trkpt lat="47.450248" lon="7.939948">
        <ele>584.049233</ele>
        <time>2021-11-22T11:01:59.787Z</time>
      </trkpt>
      <trkpt lat="47.450383" lon="7.940114">
        <ele>584.646045</ele>
        <time>2021-11-22T11:02:03.767Z</time>
      </trkpt>
      <trkpt lat="47.450538" lon="7.940621">
        <ele>585.925026</ele>
        <time>2021-11-22T11:02:13.850Z</time>
      </trkpt>
      <trkpt lat="47.450568" lon="7.940770">
        <ele>586.282382</ele>
        <time>2021-11-22T11:02:17.076Z</time>
      </trkpt>
      <trkpt lat="47.450565" lon="7.940916">
        <ele>586.618139</ele>
        <time>2021-11-22T11:02:20.516Z</time>
      </trkpt>
      <trkpt lat="47.450557" lon="7.941072">
        <ele>586.977757</ele>
        <time>2021-11-22T11:02:22.744Z</time>
      </trkpt>
      <trkpt lat="47.450585" lon="7.941257">
        <ele>587.413527</ele>
        <time>2021-11-22T11:02:26.107Z</time>
      </trkpt>
      <trkpt lat="47.450601" lon="7.941306">
        <ele>587.538604</ele>
        <time>2021-11-22T11:02:27.247Z</time>
      </trkpt>
      <trkpt lat="47.450637" lon="7.941376">
        <ele>587.740755</ele>
        <time>2021-11-22T11:02:29.515Z</time>
      </trkpt>
      <trkpt lat="47.450769" lon="7.941529">
        <ele>588.310857</ele>
        <time>2021-11-22T11:02:33.925Z</time>
      </trkpt>
      <trkpt lat="47.451074" lon="7.941649">
        <ele>589.383685</ele>
        <time>2021-11-22T11:02:42.888Z</time>
      </trkpt>
      <trkpt lat="47.451110" lon="7.941681">
        <ele>589.526463</ele>
        <time>2021-11-22T11:02:44.576Z</time>
      </trkpt>
      <trkpt lat="47.451135" lon="7.941726">
        <ele>589.700577</ele>
        <time>2021-11-22T11:02:45.621Z</time>
      </trkpt>
      <trkpt lat="47.451213" lon="7.942012">
        <ele>590.723703</ele>
        <time>2021-11-22T11:02:53.190Z</time>
      </trkpt>
      <trkpt lat="47.451290" lon="7.942344">
        <ele>591.888161</ele>
        <time>2021-11-22T11:03:01.608Z</time>
      </trkpt>
      <trkpt lat="47.451325" lon="7.942609">
        <ele>592.783961</ele>
        <time>2021-11-22T11:03:08.184Z</time>
      </trkpt>
      <trkpt lat="47.451361" lon="7.943100">
        <ele>594.422492</ele>
        <time>2021-11-22T11:03:20.694Z</time>
      </trkpt>
      <trkpt lat="47.451365" lon="7.943156">
        <ele>594.609316</ele>
        <time>2021-11-22T11:03:21.788Z</time>
      </trkpt>
      <trkpt lat="47.451395" lon="7.943371">
        <ele>595.337645</ele>
        <time>2021-11-22T11:03:27.274Z</time>
      </trkpt>
      <trkpt lat="47.451407" lon="7.943431">
        <ele>595.545230</ele>
        <time>2021-11-22T11:03:28.734Z</time>
      </trkpt>
      <trkpt lat="47.451423" lon="7.943479">
        <ele>595.722775</ele>
        <time>2021-11-22T11:03:29.938Z</time>
      </trkpt>
      <trkpt lat="47.451442" lon="7.943512">
        <ele>595.866568</ele>
        <time>2021-11-22T11:03:31.434Z</time>
      </trkpt>
      <trkpt lat="47.451644" lon="7.943673">
        <ele>596.992408</ele>
        <time>2021-11-22T11:03:38.973Z</time>
      </trkpt>
      <trkpt lat="47.451676" lon="7.943686">
        <ele>597.155225</ele>
        <time>2021-11-22T11:03:40.392Z</time>
      </trkpt>
      <trkpt lat="47.451846" lon="7.943751">
        <ele>598.016714</ele>
        <time>2021-11-22T11:03:46.352Z</time>
      </trkpt>
      <trkpt lat="47.451953" lon="7.943794">
        <ele>598.534503</ele>
        <time>2021-11-22T11:03:49.525Z</time>
      </trkpt>
      <trkpt lat="47.451977" lon="7.943811">
        <ele>598.644513</ele>
        <time>2021-11-22T11:03:50.427Z</time>
      </trkpt>
      <trkpt lat="47.452015" lon="7.943844">
        <ele>598.826688</ele>
        <time>2021-11-22T11:03:52.026Z</time>
      </trkpt>
      <trkpt lat="47.452054" lon="7.943901">
        <ele>599.053367</ele>
        <time>2021-11-22T11:03:53.878Z</time>
      </trkpt>
      <trkpt lat="47.452112" lon="7.944014">
        <ele>599.449944</ele>
        <time>2021-11-22T11:03:57.457Z</time>
      </trkpt>
      <trkpt lat="47.452156" lon="7.944137">
        <ele>599.838931</ele>
        <time>2021-11-22T11:03:59.921Z</time>
      </trkpt>
      <trkpt lat="47.452182" lon="7.944245">
        <ele>600.159400</ele>
        <time>2021-11-22T11:04:02.366Z</time>
      </trkpt>
      <trkpt lat="47.452197" lon="7.944338">
        <ele>600.426668</ele>
        <time>2021-11-22T11:04:04.699Z</time>
      </trkpt>
      <trkpt lat="47.452205" lon="7.944436">
        <ele>600.702609</ele>
        <time>2021-11-22T11:04:07.237Z</time>
      </trkpt>
      <trkpt lat="47.452193" lon="7.944664">
        <ele>601.341895</ele>
        <time>2021-11-22T11:04:11.474Z</time>
      </trkpt>
      <trkpt lat="47.452130" lon="7.945001">
        <ele>602.319294</ele>
        <time>2021-11-22T11:04:19.636Z</time>
      </trkpt>
      <trkpt lat="47.452130" lon="7.945001">
        <ele>602.319294</ele>
        <time>2021-11-22T11:04:19.693Z</time>
      </trkpt>
      <trkpt lat="47.452004" lon="7.945500">
        <ele>603.808297</ele>
        <time>2021-11-22T11:04:31.084Z</time>
      </trkpt>
      <trkpt lat="47.451848" lon="7.945864">
        <ele>605.012993</ele>
        <time>2021-11-22T11:04:39.647Z</time>
      </trkpt>
      <trkpt lat="47.451666" lon="7.946053">
        <ele>605.920468</ele>
        <time>2021-11-22T11:04:45.045Z</time>
      </trkpt>
      <trkpt lat="47.451393" lon="7.946246">
        <ele>607.026451</ele>
        <time>2021-11-22T11:04:53.625Z</time>
      </trkpt>
      <trkpt lat="47.451332" lon="7.946292">
        <ele>607.276722</ele>
        <time>2021-11-22T11:04:55.544Z</time>
      </trkpt>
      <trkpt lat="47.451170" lon="7.946404">
        <ele>607.930351</ele>
        <time>2021-11-22T11:05:00.936Z</time>
      </trkpt>
      <trkpt lat="47.451058" lon="7.946540">
        <ele>608.460037</ele>
        <time>2021-11-22T11:05:04.469Z</time>
      </trkpt>
      <trkpt lat="47.450994" lon="7.946647">
        <ele>608.813109</ele>
        <time>2021-11-22T11:05:07.742Z</time>
      </trkpt>
      <trkpt lat="47.450764" lon="7.947491">
        <ele>611.062171</ele>
        <time>2021-11-22T11:05:25.683Z</time>
      </trkpt>
      <trkpt lat="47.450665" lon="7.947928">
        <ele>612.201271</ele>
        <time>2021-11-22T11:05:35.654Z</time>
      </trkpt>
      <trkpt lat="47.450637" lon="7.948032">
        <ele>612.468346</ele>
        <time>2021-11-22T11:05:38.002Z</time>
      </trkpt>
      <trkpt lat="47.450592" lon="7.948134">
        <ele>612.730372</ele>
        <time>2021-11-22T11:05:41.016Z</time>
      </trkpt>
      <trkpt lat="47.450567" lon="7.948175">
        <ele>612.849149</ele>
        <time>2021-11-22T11:05:42.116Z</time>
      </trkpt>
      <trkpt lat="47.450539" lon="7.948213">
        <ele>612.970063</ele>
        <time>2021-11-22T11:05:43.349Z</time>
      </trkpt>
      <trkpt lat="47.450205" lon="7.948459">
        <ele>614.157232</ele>
        <time>2021-11-22T11:05:55.077Z</time>
      </trkpt>
      <trkpt lat="47.450135" lon="7.948495">
        <ele>614.393030</ele>
        <time>2021-11-22T11:05:57.208Z</time>
      </trkpt>
      <trkpt lat="47.450004" lon="7.948575">
        <ele>614.843963</ele>
        <time>2021-11-22T11:06:01.291Z</time>
      </trkpt>
      <trkpt lat="47.449791" lon="7.948794">
        <ele>615.669353</ele>
        <time>2021-11-22T11:06:08.597Z</time>
      </trkpt>
      <trkpt lat="47.449549" lon="7.949269">
        <ele>616.948907</ele>
        <time>2021-11-22T11:06:19.865Z</time>
      </trkpt>
      <trkpt lat="47.449418" lon="7.949404">
        <ele>617.456924</ele>
        <time>2021-11-22T11:06:23.543Z</time>
      </trkpt>
      <trkpt lat="47.448516" lon="7.949513">
        <ele>617.936660</ele>
        <time>2021-11-22T11:06:42.038Z</time>
      </trkpt>
      <trkpt lat="47.448451" lon="7.949520">
        <ele>617.918853</ele>
        <time>2021-11-22T11:06:43.440Z</time>
      </trkpt>
      <trkpt lat="47.448314" lon="7.949566">
        <ele>617.880469</ele>
        <time>2021-11-22T11:06:45.269Z</time>
      </trkpt>
      <trkpt lat="47.448162" lon="7.949710">
        <ele>617.831148</ele>
        <time>2021-11-22T11:06:47.238Z</time>
      </trkpt>
      <trkpt lat="47.447993" lon="7.950057">
        <ele>617.752136</ele>
        <time>2021-11-22T11:06:50.498Z</time>
      </trkpt>
      <trkpt lat="47.447781" lon="7.951149">
        <ele>616.592039</ele>
        <time>2021-11-22T11:06:59.131Z</time>
      </trkpt>
      <trkpt lat="47.447641" lon="7.951415">
        <ele>615.891980</ele>
        <time>2021-11-22T11:07:01.838Z</time>
      </trkpt>
      <trkpt lat="47.447587" lon="7.951456">
        <ele>615.705553</ele>
        <time>2021-11-22T11:07:02.371Z</time>
      </trkpt>
      <trkpt lat="47.447532" lon="7.951475">
        <ele>615.532090</ele>
        <time>2021-11-22T11:07:03.044Z</time>
      </trkpt>
      <trkpt lat="47.446999" lon="7.951346">
        <ele>613.873374</ele>
        <time>2021-11-22T11:07:08.657Z</time>
      </trkpt>
      <trkpt lat="47.446952" lon="7.951343">
        <ele>613.728895</ele>
        <time>2021-11-22T11:07:09.114Z</time>
      </trkpt>
      <trkpt lat="47.446713" lon="7.951341">
        <ele>612.994873</ele>
        <time>2021-11-22T11:07:11.388Z</time>
      </trkpt>
      <trkpt lat="47.446253" lon="7.951461">
        <ele>611.315737</ele>
        <time>2021-11-22T11:07:15.867Z</time>
      </trkpt>
      <trkpt lat="47.446082" lon="7.951692">
        <ele>610.288509</ele>
        <time>2021-11-22T11:07:18.046Z</time>
      </trkpt>
      <trkpt lat="47.445906" lon="7.952081">
        <ele>608.884732</ele>
        <time>2021-11-22T11:07:21.182Z</time>
      </trkpt>
      <trkpt lat="47.445832" lon="7.952260">
        <ele>608.255481</ele>
        <time>2021-11-22T11:07:22.546Z</time>
      </trkpt>
      <trkpt lat="47.445733" lon="7.952446">
        <ele>607.545541</ele>
        <time>2021-11-22T11:07:24.078Z</time>
      </trkpt>
      <trkpt lat="47.445277" lon="7.952896">
        <ele>605.114127</ele>
        <time>2021-11-22T11:07:29.352Z</time>
      </trkpt>
      <trkpt lat="47.445190" lon="7.953050">
        <ele>604.512265</ele>
        <time>2021-11-22T11:07:30.640Z</time>
      </trkpt>
      <trkpt lat="47.445043" lon="7.953752">
        <ele>601.868636</ele>
        <time>2021-11-22T11:07:35.387Z</time>
      </trkpt>
      <trkpt lat="47.444431" lon="7.955161">
        <ele>595.637149</ele>
        <time>2021-11-22T11:07:45.934Z</time>
      </trkpt>
      <trkpt lat="47.444374" lon="7.955426">
        <ele>594.602336</ele>
        <time>2021-11-22T11:07:47.633Z</time>
      </trkpt>
      <trkpt lat="47.444371" lon="7.955878">
        <ele>592.325649</ele>
        <time>2021-11-22T11:07:50.401Z</time>
      </trkpt>
      <trkpt lat="47.444384" lon="7.956138">
        <ele>590.917458</ele>
        <time>2021-11-22T11:07:51.982Z</time>
      </trkpt>
      <trkpt lat="47.444409" lon="7.956577">
        <ele>588.537862</ele>
        <time>2021-11-22T11:07:54.623Z</time>
      </trkpt>
      <trkpt lat="47.444407" lon="7.957243">
        <ele>584.940511</ele>
        <time>2021-11-22T11:07:58.615Z</time>
      </trkpt>
      <trkpt lat="47.444188" lon="7.958233">
        <ele>579.348781</ele>
        <time>2021-11-22T11:08:04.705Z</time>
      </trkpt>
      <trkpt lat="47.443914" lon="7.958964">
        <ele>575.113088</ele>
        <time>2021-11-22T11:08:09.642Z</time>
      </trkpt>
      <trkpt lat="47.443720" lon="7.959271">
        <ele>572.983701</ele>
        <time>2021-11-22T11:08:12.153Z</time>
      </trkpt>
      <trkpt lat="47.443571" lon="7.959413">
        <ele>571.655307</ele>
        <time>2021-11-22T11:08:13.814Z</time>
      </trkpt>
      <trkpt lat="47.443496" lon="7.959438">
        <ele>571.079175</ele>
        <time>2021-11-22T11:08:14.451Z</time>
      </trkpt>
      <trkpt lat="47.443343" lon="7.959453">
        <ele>569.930122</ele>
        <time>2021-11-22T11:08:15.884Z</time>
      </trkpt>
      <trkpt lat="47.442504" lon="7.959467">
        <ele>565.434867</ele>
        <time>2021-11-22T11:08:23.698Z</time>
      </trkpt>
      <trkpt lat="47.442431" lon="7.959459">
        <ele>565.243694</ele>
        <time>2021-11-22T11:08:24.316Z</time>
      </trkpt>
      <trkpt lat="47.442302" lon="7.959406">
        <ele>564.894026</ele>
        <time>2021-11-22T11:08:25.655Z</time>
      </trkpt>
      <trkpt lat="47.442137" lon="7.959350">
        <ele>564.451897</ele>
        <time>2021-11-22T11:08:27.507Z</time>
      </trkpt>
      <trkpt lat="47.442070" lon="7.959339">
        <ele>564.275841</ele>
        <time>2021-11-22T11:08:28.075Z</time>
      </trkpt>
      <trkpt lat="47.441658" lon="7.959533">
        <ele>563.146594</ele>
        <time>2021-11-22T11:08:32.950Z</time>
      </trkpt>
      <trkpt lat="47.441281" lon="7.960073">
        <ele>561.775743</ele>
        <time>2021-11-22T11:08:42.752Z</time>
      </trkpt>
      <trkpt lat="47.441074" lon="7.960255">
        <ele>561.943788</ele>
        <time>2021-11-22T11:08:46.259Z</time>
      </trkpt>
      <trkpt lat="47.440869" lon="7.960279">
        <ele>562.185715</ele>
        <time>2021-11-22T11:08:51.106Z</time>
      </trkpt>
      <trkpt lat="47.440544" lon="7.960192">
        <ele>562.574278</ele>
        <time>2021-11-22T11:08:58.180Z</time>
      </trkpt>
      <trkpt lat="47.440419" lon="7.960172">
        <ele>562.722193</ele>
        <time>2021-11-22T11:09:00.265Z</time>
      </trkpt>
      <trkpt lat="47.440324" lon="7.960176">
        <ele>562.834001</ele>
        <time>2021-11-22T11:09:02.039Z</time>
      </trkpt>
      <trkpt lat="47.440264" lon="7.960181">
        <ele>562.904700</ele>
        <time>2021-11-22T11:09:03.348Z</time>
      </trkpt>
      <trkpt lat="47.440212" lon="7.960199">
        <ele>562.967529</ele>
        <time>2021-11-22T11:09:05.875Z</time>
      </trkpt>
      <trkpt lat="47.439964" lon="7.960470">
        <ele>563.330328</ele>
        <time>2021-11-22T11:09:11.251Z</time>
      </trkpt>
      <trkpt lat="47.439936" lon="7.960525">
        <ele>563.385103</ele>
        <time>2021-11-22T11:09:13.595Z</time>
      </trkpt>
      <trkpt lat="47.439909" lon="7.960605">
        <ele>563.456245</ele>
        <time>2021-11-22T11:09:14.243Z</time>
      </trkpt>
      <trkpt lat="47.439858" lon="7.960872">
        <ele>563.677008</ele>
        <time>2021-11-22T11:09:17.781Z</time>
      </trkpt>
      <trkpt lat="47.439862" lon="7.961119">
        <ele>563.746034</ele>
        <time>2021-11-22T11:09:21.899Z</time>
      </trkpt>
      <trkpt lat="47.440011" lon="7.962659">
        <ele>562.409030</ele>
        <time>2021-11-22T11:09:36.349Z</time>
      </trkpt>
      <trkpt lat="47.440007" lon="7.962723">
        <ele>562.353792</ele>
        <time>2021-11-22T11:09:36.758Z</time>
      </trkpt>
      <trkpt lat="47.439994" lon="7.962853">
        <ele>562.240851</ele>
        <time>2021-11-22T11:09:37.828Z</time>
      </trkpt>
      <trkpt lat="47.439978" lon="7.962938">
        <ele>562.165022</ele>
        <time>2021-11-22T11:09:38.560Z</time>
      </trkpt>
      <trkpt lat="47.439934" lon="7.963205">
        <ele>561.928840</ele>
        <time>2021-11-22T11:09:40.370Z</time>
      </trkpt>
      <trkpt lat="47.439904" lon="7.963387">
        <ele>561.767845</ele>
        <time>2021-11-22T11:09:41.766Z</time>
      </trkpt>
      <trkpt lat="47.439896" lon="7.963430">
        <ele>561.729516</ele>
        <time>2021-11-22T11:09:42.122Z</time>
      </trkpt>
      <trkpt lat="47.439883" lon="7.963536">
        <ele>561.636930</ele>
        <time>2021-11-22T11:09:42.958Z</time>
      </trkpt>
      <trkpt lat="47.439879" lon="7.963594">
        <ele>561.586825</ele>
        <time>2021-11-22T11:09:43.291Z</time>
      </trkpt>
      <trkpt lat="47.439896" lon="7.964753">
        <ele>557.660704</ele>
        <time>2021-11-22T11:09:50.877Z</time>
      </trkpt>
      <trkpt lat="47.439676" lon="7.965961">
        <ele>553.221101</ele>
        <time>2021-11-22T11:09:58.722Z</time>
      </trkpt>
      <trkpt lat="47.439678" lon="7.966197">
        <ele>552.383523</ele>
        <time>2021-11-22T11:10:00.142Z</time>
      </trkpt>
      <trkpt lat="47.439737" lon="7.966170">
        <ele>552.046505</ele>
        <time>2021-11-22T11:10:00.709Z</time>
      </trkpt>
      <trkpt lat="47.439807" lon="7.966143">
        <ele>551.503638</ele>
        <time>2021-11-22T11:10:01.412Z</time>
      </trkpt>
      <trkpt lat="47.439942" lon="7.966121">
        <ele>550.484454</ele>
        <time>2021-11-22T11:10:02.648Z</time>
      </trkpt>
      <trkpt lat="47.440012" lon="7.966095">
        <ele>549.942846</ele>
        <time>2021-11-22T11:10:03.243Z</time>
      </trkpt>
      <trkpt lat="47.440543" lon="7.965818">
        <ele>545.717438</ele>
        <time>2021-11-22T11:10:08.320Z</time>
      </trkpt>
      <trkpt lat="47.440933" lon="7.965666">
        <ele>542.690877</ele>
        <time>2021-11-22T11:10:11.883Z</time>
      </trkpt>
      <trkpt lat="47.441204" lon="7.965554">
        <ele>540.579321</ele>
        <time>2021-11-22T11:10:14.353Z</time>
      </trkpt>
      <trkpt lat="47.441328" lon="7.965473">
        <ele>539.562048</ele>
        <time>2021-11-22T11:10:15.570Z</time>
      </trkpt>
      <trkpt lat="47.441371" lon="7.965446">
        <ele>539.211481</ele>
        <time>2021-11-22T11:10:15.949Z</time>
      </trkpt>
      <trkpt lat="47.442282" lon="7.964392">
        <ele>531.658562</ele>
        <time>2021-11-22T11:10:26.362Z</time>
      </trkpt>
      <trkpt lat="47.443115" lon="7.964042">
        <ele>526.300166</ele>
        <time>2021-11-22T11:10:34.467Z</time>
      </trkpt>
      <trkpt lat="47.443282" lon="7.963930">
        <ele>525.415838</ele>
        <time>2021-11-22T11:10:36.220Z</time>
      </trkpt>
      <trkpt lat="47.443323" lon="7.963902">
        <ele>525.198045</ele>
        <time>2021-11-22T11:10:36.610Z</time>
      </trkpt>
      <trkpt lat="47.444267" lon="7.962981">
        <ele>519.743898</ele>
        <time>2021-11-22T11:10:47.331Z</time>
      </trkpt>
      <trkpt lat="47.444826" lon="7.962406">
        <ele>517.174311</ele>
        <time>2021-11-22T11:10:53.891Z</time>
      </trkpt>
      <trkpt lat="47.444976" lon="7.962255">
        <ele>516.637262</ele>
        <time>2021-11-22T11:10:55.713Z</time>
      </trkpt>
      <trkpt lat="47.444993" lon="7.962238">
        <ele>516.576524</ele>
        <time>2021-11-22T11:10:55.922Z</time>
      </trkpt>
      <trkpt lat="47.445186" lon="7.962043">
        <ele>515.884719</ele>
        <time>2021-11-22T11:10:58.261Z</time>
      </trkpt>
      <trkpt lat="47.445405" lon="7.961813">
        <ele>515.089728</ele>
        <time>2021-11-22T11:11:01.028Z</time>
      </trkpt>
      <trkpt lat="47.445632" lon="7.961583">
        <ele>514.275320</ele>
        <time>2021-11-22T11:11:03.900Z</time>
      </trkpt>
      <trkpt lat="47.445731" lon="7.961482">
        <ele>513.919354</ele>
        <time>2021-11-22T11:11:05.144Z</time>
      </trkpt>
      <trkpt lat="47.446265" lon="7.961081">
        <ele>513.031184</ele>
        <time>2021-11-22T11:11:12.031Z</time>
      </trkpt>
      <trkpt lat="47.446978" lon="7.960776">
        <ele>513.149607</ele>
        <time>2021-11-22T11:11:22.660Z</time>
      </trkpt>
      <trkpt lat="47.448152" lon="7.960399">
        <ele>513.211580</ele>
        <time>2021-11-22T11:11:47.934Z</time>
      </trkpt>
      <trkpt lat="47.449168" lon="7.960272">
        <ele>513.065616</ele>
        <time>2021-11-22T11:12:02.775Z</time>
      </trkpt>
      <trkpt lat="47.449207" lon="7.960269">
        <ele>513.060025</ele>
        <time>2021-11-22T11:12:03.974Z</time>
      </trkpt>
      <trkpt lat="47.450176" lon="7.960171">
        <ele>510.297877</ele>
        <time>2021-11-22T11:12:14.225Z</time>
      </trkpt>
      <trkpt lat="47.453337" lon="7.959692">
        <ele>494.563944</ele>
        <time>2021-11-22T11:12:43.888Z</time>
      </trkpt>
      <trkpt lat="47.454626" lon="7.959663">
        <ele>487.340499</ele>
        <time>2021-11-22T11:12:55.741Z</time>
      </trkpt>
      <trkpt lat="47.454959" lon="7.959615">
        <ele>485.558877</ele>
        <time>2021-11-22T11:12:58.876Z</time>
      </trkpt>
      <trkpt lat="47.455065" lon="7.959595">
        <ele>485.112876</ele>
        <time>2021-11-22T11:12:59.877Z</time>
      </trkpt>
      <trkpt lat="47.455234" lon="7.959555">
        <ele>484.398540</ele>
        <time>2021-11-22T11:13:01.521Z</time>
      </trkpt>
      <trkpt lat="47.455967" lon="7.959329">
        <ele>481.273424</ele>
        <time>2021-11-22T11:13:08.715Z</time>
      </trkpt>
      <trkpt lat="47.456734" lon="7.959350">
        <ele>478.121736</ele>
        <time>2021-11-22T11:13:16.356Z</time>
      </trkpt>
      <trkpt lat="47.457199" lon="7.959536">
        <ele>476.510937</ele>
        <time>2021-11-22T11:13:21.325Z</time>
      </trkpt>
      <trkpt lat="47.458898" lon="7.960485">
        <ele>470.709805</ele>
        <time>2021-11-22T11:13:39.530Z</time>
      </trkpt>
      <trkpt lat="47.459074" lon="7.960615">
        <ele>470.147547</ele>
        <time>2021-11-22T11:13:41.500Z</time>
      </trkpt>
      <trkpt lat="47.459280" lon="7.960788">
        <ele>469.470498</ele>
        <time>2021-11-22T11:13:43.973Z</time>
      </trkpt>
      <trkpt lat="47.459416" lon="7.960954">
        <ele>468.966533</ele>
        <time>2021-11-22T11:13:45.804Z</time>
      </trkpt>
      <trkpt lat="47.459581" lon="7.961147">
        <ele>468.365303</ele>
        <time>2021-11-22T11:13:48.015Z</time>
      </trkpt>
      <trkpt lat="47.460083" lon="7.961991">
        <ele>466.669956</ele>
        <time>2021-11-22T11:13:56.218Z</time>
      </trkpt>
      <trkpt lat="47.460405" lon="7.962956">
        <ele>465.607109</ele>
        <time>2021-11-22T11:14:04.758Z</time>
      </trkpt>
      <trkpt lat="47.460489" lon="7.963238">
        <ele>465.302757</ele>
        <time>2021-11-22T11:14:07.237Z</time>
      </trkpt>
      <trkpt lat="47.460551" lon="7.963411">
        <ele>465.109373</ele>
        <time>2021-11-22T11:14:09.012Z</time>
      </trkpt>
      <trkpt lat="47.460768" lon="7.963901">
        <ele>464.529175</ele>
        <time>2021-11-22T11:14:13.830Z</time>
      </trkpt>
      <trkpt lat="47.461085" lon="7.964391">
        <ele>463.749121</ele>
        <time>2021-11-22T11:14:19.133Z</time>
      </trkpt>
      <trkpt lat="47.461753" lon="7.965074">
        <ele>462.367593</ele>
        <time>2021-11-22T11:14:28.322Z</time>
      </trkpt>
      <trkpt lat="47.462208" lon="7.965649">
        <ele>461.319043</ele>
        <time>2021-11-22T11:14:34.841Z</time>
      </trkpt>
      <trkpt lat="47.462416" lon="7.966027">
        <ele>460.628842</ele>
        <time>2021-11-22T11:14:38.340Z</time>
      </trkpt>
      <trkpt lat="47.462955" lon="7.967287">
        <ele>458.517312</ele>
        <time>2021-11-22T11:14:49.315Z</time>
      </trkpt>
      <trkpt lat="47.463153" lon="7.967669">
        <ele>457.835658</ele>
        <time>2021-11-22T11:14:52.863Z</time>
      </trkpt>
      <trkpt lat="47.463389" lon="7.968088">
        <ele>457.140071</ele>
        <time>2021-11-22T11:14:56.966Z</time>
      </trkpt>
      <trkpt lat="47.463713" lon="7.968547">
        <ele>456.311223</ele>
        <time>2021-11-22T11:15:01.991Z</time>
      </trkpt>
      <trkpt lat="47.463869" lon="7.968734">
        <ele>455.940252</ele>
        <time>2021-11-22T11:15:04.171Z</time>
      </trkpt>
      <trkpt lat="47.464851" lon="7.969824">
        <ele>453.668232</ele>
        <time>2021-11-22T11:15:17.957Z</time>
      </trkpt>
      <trkpt lat="47.465273" lon="7.970155">
        <ele>452.781128</ele>
        <time>2021-11-22T11:15:23.199Z</time>
      </trkpt>
      <trkpt lat="47.465838" lon="7.970388">
        <ele>451.691797</ele>
        <time>2021-11-22T11:15:29.973Z</time>
      </trkpt>
      <trkpt lat="47.466209" lon="7.970465">
        <ele>451.008194</ele>
        <time>2021-11-22T11:15:33.979Z</time>
      </trkpt>
      <trkpt lat="47.466575" lon="7.970455">
        <ele>450.481436</ele>
        <time>2021-11-22T11:15:37.915Z</time>
      </trkpt>
      <trkpt lat="47.467243" lon="7.970284">
        <ele>449.505907</ele>
        <time>2021-11-22T11:15:45.351Z</time>
      </trkpt>
      <trkpt lat="47.467356" lon="7.970255">
        <ele>449.340872</ele>
        <time>2021-11-22T11:15:46.721Z</time>
      </trkpt>
      <trkpt lat="47.467469" lon="7.970226">
        <ele>449.175838</ele>
        <time>2021-11-22T11:15:47.860Z</time>
      </trkpt>
      <trkpt lat="47.468142" lon="7.970113">
        <ele>448.701093</ele>
        <time>2021-11-22T11:15:57.463Z</time>
      </trkpt>
      <trkpt lat="47.469022" lon="7.970240">
        <ele>449.868988</ele>
        <time>2021-11-22T11:16:13.493Z</time>
      </trkpt>
      <trkpt lat="47.469339" lon="7.970255">
        <ele>450.287922</ele>
        <time>2021-11-22T11:16:21.481Z</time>
      </trkpt>
      <trkpt lat="47.469542" lon="7.970235">
        <ele>450.556655</ele>
        <time>2021-11-22T11:16:27.511Z</time>
      </trkpt>
      <trkpt lat="47.471196" lon="7.969654">
        <ele>452.383126</ele>
        <time>2021-11-22T11:17:07.829Z</time>
      </trkpt>
      <trkpt lat="47.471877" lon="7.969497">
        <ele>450.600750</ele>
        <time>2021-11-22T11:17:15.042Z</time>
      </trkpt>
      <trkpt lat="47.472626" lon="7.969301">
        <ele>446.361375</ele>
        <time>2021-11-22T11:17:22.112Z</time>
      </trkpt>
      <trkpt lat="47.473628" lon="7.969058">
        <ele>440.158521</ele>
        <time>2021-11-22T11:17:31.050Z</time>
      </trkpt>
      <trkpt lat="47.474238" lon="7.968922">
        <ele>435.776126</ele>
        <time>2021-11-22T11:17:36.462Z</time>
      </trkpt>
      <trkpt lat="47.474555" lon="7.968862">
        <ele>433.505790</ele>
        <time>2021-11-22T11:17:39.304Z</time>
      </trkpt>
      <trkpt lat="47.474879" lon="7.968783">
        <ele>431.173032</ele>
        <time>2021-11-22T11:17:42.309Z</time>
      </trkpt>
      <trkpt lat="47.475312" lon="7.968548">
        <ele>429.203606</ele>
        <time>2021-11-22T11:17:46.769Z</time>
      </trkpt>
      <trkpt lat="47.475616" lon="7.968229">
        <ele>428.279611</ele>
        <time>2021-11-22T11:17:50.574Z</time>
      </trkpt>
      <trkpt lat="47.475684" lon="7.968334">
        <ele>428.035934</ele>
        <time>2021-11-22T11:17:51.670Z</time>
      </trkpt>
      <trkpt lat="47.475729" lon="7.968403">
        <ele>427.875264</ele>
        <time>2021-11-22T11:17:52.374Z</time>
      </trkpt>
      <trkpt lat="47.475800" lon="7.968489">
        <ele>427.647774</ele>
        <time>2021-11-22T11:17:53.388Z</time>
      </trkpt>
      <trkpt lat="47.475871" lon="7.968576">
        <ele>427.419220</ele>
        <time>2021-11-22T11:17:54.383Z</time>
      </trkpt>
      <trkpt lat="47.475976" lon="7.968680">
        <ele>427.105956</ele>
        <time>2021-11-22T11:17:55.746Z</time>
      </trkpt>
      <trkpt lat="47.476103" lon="7.968806">
        <ele>426.726860</ele>
        <time>2021-11-22T11:17:57.402Z</time>
      </trkpt>
      <trkpt lat="47.476327" lon="7.969094">
        <ele>425.991131</ele>
        <time>2021-11-22T11:18:00.910Z</time>
      </trkpt>
      <trkpt lat="47.476396" lon="7.969182">
        <ele>425.765283</ele>
        <time>2021-11-22T11:18:02.093Z</time>
      </trkpt>
      <trkpt lat="47.476670" lon="7.969631">
        <ele>425.185600</ele>
        <time>2021-11-22T11:18:07.311Z</time>
      </trkpt>
      <trkpt lat="47.476944" lon="7.970103">
        <ele>424.795475</ele>
        <time>2021-11-22T11:18:14.176Z</time>
      </trkpt>
      <trkpt lat="47.477029" lon="7.970212">
        <ele>424.691125</ele>
        <time>2021-11-22T11:18:15.658Z</time>
      </trkpt>
      <trkpt lat="47.477135" lon="7.970342">
        <ele>424.563400</ele>
        <time>2021-11-22T11:18:18.057Z</time>
      </trkpt>
      <trkpt lat="47.477203" lon="7.970445">
        <ele>424.473121</ele>
        <time>2021-11-22T11:18:19.323Z</time>
      </trkpt>
      <trkpt lat="47.477262" lon="7.970548">
        <ele>424.388465</ele>
        <time>2021-11-22T11:18:20.403Z</time>
      </trkpt>
      <trkpt lat="47.477284" lon="7.970600">
        <ele>424.350000</ele>
        <time>2021-11-22T11:18:20.902Z</time>
      </trkpt>
      <trkpt lat="47.477322" lon="7.970682">
        <ele>424.287661</ele>
        <time>2021-11-22T11:18:21.956Z</time>
      </trkpt>
      <trkpt lat="47.477370" lon="7.970827">
        <ele>424.186425</ele>
        <time>2021-11-22T11:18:23.266Z</time>
      </trkpt>
      <trkpt lat="47.477522" lon="7.971381">
        <ele>423.811534</ele>
        <time>2021-11-22T11:18:27.928Z</time>
      </trkpt>
      <trkpt lat="47.477553" lon="7.971461">
        <ele>423.689627</ele>
        <time>2021-11-22T11:18:28.528Z</time>
      </trkpt>
      <trkpt lat="47.477623" lon="7.971640">
        <ele>423.195394</ele>
        <time>2021-11-22T11:18:29.978Z</time>
      </trkpt>
      <trkpt lat="47.477698" lon="7.971759">
        <ele>422.806538</ele>
        <time>2021-11-22T11:18:31.262Z</time>
      </trkpt>
      <trkpt lat="47.477778" lon="7.971876">
        <ele>422.408790</ele>
        <time>2021-11-22T11:18:32.353Z</time>
      </trkpt>
      <trkpt lat="47.478083" lon="7.972275">
        <ele>420.969224</ele>
        <time>2021-11-22T11:18:36.375Z</time>
      </trkpt>
      <trkpt lat="47.478198" lon="7.972475">
        <ele>420.341684</ele>
        <time>2021-11-22T11:18:38.277Z</time>
      </trkpt>
      <trkpt lat="47.478213" lon="7.972508">
        <ele>420.246643</ele>
        <time>2021-11-22T11:18:38.533Z</time>
      </trkpt>
      <trkpt lat="47.478295" lon="7.972689">
        <ele>419.725894</ele>
        <time>2021-11-22T11:18:39.918Z</time>
      </trkpt>
      <trkpt lat="47.478424" lon="7.973015">
        <ele>418.823099</ele>
        <time>2021-11-22T11:18:42.468Z</time>
      </trkpt>
      <trkpt lat="47.478494" lon="7.973191">
        <ele>418.335065</ele>
        <time>2021-11-22T11:18:43.724Z</time>
      </trkpt>
      <trkpt lat="47.478606" lon="7.973396">
        <ele>417.705101</ele>
        <time>2021-11-22T11:18:45.536Z</time>
      </trkpt>
      <trkpt lat="47.478952" lon="7.973850">
        <ele>415.802654</ele>
        <time>2021-11-22T11:18:49.916Z</time>
      </trkpt>
      <trkpt lat="47.479061" lon="7.974014">
        <ele>415.143898</ele>
        <time>2021-11-22T11:18:51.411Z</time>
      </trkpt>
      <trkpt lat="47.479095" lon="7.974066">
        <ele>414.936684</ele>
        <time>2021-11-22T11:18:51.937Z</time>
      </trkpt>
      <trkpt lat="47.479172" lon="7.974215">
        <ele>414.399499</ele>
        <time>2021-11-22T11:18:53.140Z</time>
      </trkpt>
      <trkpt lat="47.479198" lon="7.974266">
        <ele>414.216542</ele>
        <time>2021-11-22T11:18:53.532Z</time>
      </trkpt>
      <trkpt lat="47.479256" lon="7.974388">
        <ele>413.789352</ele>
        <time>2021-11-22T11:18:54.467Z</time>
      </trkpt>
      <trkpt lat="47.479521" lon="7.975122">
        <ele>411.406059</ele>
        <time>2021-11-22T11:18:59.881Z</time>
      </trkpt>
      <trkpt lat="47.479548" lon="7.975187">
        <ele>411.187552</ele>
        <time>2021-11-22T11:19:00.375Z</time>
      </trkpt>
      <trkpt lat="47.479650" lon="7.975428">
        <ele>410.373169</ele>
        <time>2021-11-22T11:19:02.266Z</time>
      </trkpt>
      <trkpt lat="47.479662" lon="7.975458">
        <ele>410.273330</ele>
        <time>2021-11-22T11:19:02.515Z</time>
      </trkpt>
      <trkpt lat="47.479744" lon="7.975611">
        <ele>409.744975</ele>
        <time>2021-11-22T11:19:03.806Z</time>
      </trkpt>
      <trkpt lat="47.480019" lon="7.976061">
        <ele>408.672775</ele>
        <time>2021-11-22T11:19:08.086Z</time>
      </trkpt>
      <trkpt lat="47.480172" lon="7.976321">
        <ele>408.063503</ele>
        <time>2021-11-22T11:19:10.559Z</time>
      </trkpt>
      <trkpt lat="47.480258" lon="7.976521">
        <ele>407.644566</ele>
        <time>2021-11-22T11:19:12.372Z</time>
      </trkpt>
      <trkpt lat="47.480294" lon="7.976615">
        <ele>407.453621</ele>
        <time>2021-11-22T11:19:13.111Z</time>
      </trkpt>
      <trkpt lat="47.480540" lon="7.977249">
        <ele>406.161624</ele>
        <time>2021-11-22T11:19:18.372Z</time>
      </trkpt>
      <trkpt lat="47.481057" lon="7.978315">
        <ele>404.196682</ele>
        <time>2021-11-22T11:19:27.911Z</time>
      </trkpt>
      <trkpt lat="47.481075" lon="7.978353">
        <ele>404.137917</ele>
        <time>2021-11-22T11:19:28.206Z</time>
      </trkpt>
      <trkpt lat="47.481331" lon="7.978796">
        <ele>403.399785</ele>
        <time>2021-11-22T11:19:32.533Z</time>
      </trkpt>
      <trkpt lat="47.481417" lon="7.978989">
        <ele>403.107030</ele>
        <time>2021-11-22T11:19:34.351Z</time>
      </trkpt>
      <trkpt lat="47.481508" lon="7.979190">
        <ele>402.800651</ele>
        <time>2021-11-22T11:19:36.146Z</time>
      </trkpt>
      <trkpt lat="47.481627" lon="7.979494">
        <ele>402.355758</ele>
        <time>2021-11-22T11:19:38.955Z</time>
      </trkpt>
      <trkpt lat="47.481673" lon="7.979611">
        <ele>402.184344</ele>
        <time>2021-11-22T11:19:39.983Z</time>
      </trkpt>
      <trkpt lat="47.481757" lon="7.979824">
        <ele>401.872042</ele>
        <time>2021-11-22T11:19:41.882Z</time>
      </trkpt>
      <trkpt lat="47.481977" lon="7.980334">
        <ele>401.253157</ele>
        <time>2021-11-22T11:19:46.576Z</time>
      </trkpt>
      <trkpt lat="47.482025" lon="7.980480">
        <ele>401.096785</ele>
        <time>2021-11-22T11:19:47.803Z</time>
      </trkpt>
      <trkpt lat="47.482099" lon="7.980698">
        <ele>400.861826</ele>
        <time>2021-11-22T11:19:49.706Z</time>
      </trkpt>
      <trkpt lat="47.482159" lon="7.980898">
        <ele>400.651076</ele>
        <time>2021-11-22T11:19:51.420Z</time>
      </trkpt>
      <trkpt lat="47.482458" lon="7.981897">
        <ele>399.598783</ele>
        <time>2021-11-22T11:19:59.954Z</time>
      </trkpt>
      <trkpt lat="47.482472" lon="7.981944">
        <ele>399.549315</ele>
        <time>2021-11-22T11:20:00.347Z</time>
      </trkpt>
      <trkpt lat="47.482563" lon="7.982231">
        <ele>399.243990</ele>
        <time>2021-11-22T11:20:02.958Z</time>
      </trkpt>
      <trkpt lat="47.482594" lon="7.982339">
        <ele>399.130009</ele>
        <time>2021-11-22T11:20:03.886Z</time>
      </trkpt>
      <trkpt lat="47.482652" lon="7.982524">
        <ele>398.926474</ele>
        <time>2021-11-22T11:20:05.496Z</time>
      </trkpt>
      <trkpt lat="47.482704" lon="7.982687">
        <ele>398.746582</ele>
        <time>2021-11-22T11:20:07.017Z</time>
      </trkpt>
      <trkpt lat="47.482729" lon="7.982770">
        <ele>398.655891</ele>
        <time>2021-11-22T11:20:07.752Z</time>
      </trkpt>
      <trkpt lat="47.482840" lon="7.983205">
        <ele>398.191834</ele>
        <time>2021-11-22T11:20:11.528Z</time>
      </trkpt>
      <trkpt lat="47.482897" lon="7.983529">
        <ele>397.857699</ele>
        <time>2021-11-22T11:20:14.164Z</time>
      </trkpt>
      <trkpt lat="47.483001" lon="7.984129">
        <ele>397.239504</ele>
        <time>2021-11-22T11:20:18.960Z</time>
      </trkpt>
      <trkpt lat="47.483130" lon="7.984873">
        <ele>396.464815</ele>
        <time>2021-11-22T11:20:24.738Z</time>
      </trkpt>
      <trkpt lat="47.483153" lon="7.984996">
        <ele>396.301355</ele>
        <time>2021-11-22T11:20:25.696Z</time>
      </trkpt>
      <trkpt lat="47.483173" lon="7.985106">
        <ele>396.155455</ele>
        <time>2021-11-22T11:20:26.566Z</time>
      </trkpt>
      <trkpt lat="47.483274" lon="7.985553">
        <ele>395.551778</ele>
        <time>2021-11-22T11:20:30.126Z</time>
      </trkpt>
      <trkpt lat="47.483382" lon="7.985915">
        <ele>395.044953</ele>
        <time>2021-11-22T11:20:33.164Z</time>
      </trkpt>
      <trkpt lat="47.483462" lon="7.986151">
        <ele>394.706787</ele>
        <time>2021-11-22T11:20:35.169Z</time>
      </trkpt>
      <trkpt lat="47.483550" lon="7.986378">
        <ele>394.371604</ele>
        <time>2021-11-22T11:20:37.139Z</time>
      </trkpt>
      <trkpt lat="47.483775" lon="7.986910">
        <ele>393.567781</ele>
        <time>2021-11-22T11:20:41.799Z</time>
      </trkpt>
      <trkpt lat="47.484569" lon="7.988582">
        <ele>390.956636</ele>
        <time>2021-11-22T11:20:56.700Z</time>
      </trkpt>
      <trkpt lat="47.485480" lon="7.990116">
        <ele>388.945122</ele>
        <time>2021-11-22T11:21:12.750Z</time>
      </trkpt>
      <trkpt lat="47.485638" lon="7.990371">
        <ele>388.699234</ele>
        <time>2021-11-22T11:21:15.593Z</time>
      </trkpt>
      <trkpt lat="47.485781" lon="7.990604">
        <ele>388.475531</ele>
        <time>2021-11-22T11:21:18.186Z</time>
      </trkpt>
      <trkpt lat="47.486196" lon="7.991276">
        <ele>387.828526</ele>
        <time>2021-11-22T11:21:25.995Z</time>
      </trkpt>
      <trkpt lat="47.486319" lon="7.991471">
        <ele>387.696195</ele>
        <time>2021-11-22T11:21:28.365Z</time>
      </trkpt>
      <trkpt lat="47.487177" lon="7.992841">
        <ele>386.834759</ele>
        <time>2021-11-22T11:21:45.357Z</time>
      </trkpt>
      <trkpt lat="47.487787" lon="7.993572">
        <ele>385.972285</ele>
        <time>2021-11-22T11:21:54.666Z</time>
      </trkpt>
      <trkpt lat="47.488382" lon="7.994128">
        <ele>384.922226</ele>
        <time>2021-11-22T11:22:02.688Z</time>
      </trkpt>
      <trkpt lat="47.488690" lon="7.994413">
        <ele>384.380176</ele>
        <time>2021-11-22T11:22:06.820Z</time>
      </trkpt>
      <trkpt lat="47.488991" lon="7.994692">
        <ele>383.840928</ele>
        <time>2021-11-22T11:22:10.848Z</time>
      </trkpt>
      <trkpt lat="47.489245" lon="7.994928">
        <ele>383.290679</ele>
        <time>2021-11-22T11:22:14.249Z</time>
      </trkpt>
      <trkpt lat="47.490016" lon="7.995686">
        <ele>381.592428</ele>
        <time>2021-11-22T11:22:24.574Z</time>
      </trkpt>
      <trkpt lat="47.490899" lon="7.996664">
        <ele>379.364167</ele>
        <time>2021-11-22T11:22:36.710Z</time>
      </trkpt>
      <trkpt lat="47.490940" lon="7.996698">
        <ele>379.260658</ele>
        <time>2021-11-22T11:22:37.228Z</time>
      </trkpt>
      <trkpt lat="47.491068" lon="7.996814">
        <ele>378.930095</ele>
        <time>2021-11-22T11:22:38.797Z</time>
      </trkpt>
      <trkpt lat="47.491354" lon="7.997016">
        <ele>378.232152</ele>
        <time>2021-11-22T11:22:42.234Z</time>
      </trkpt>
      <trkpt lat="47.491886" lon="7.997365">
        <ele>376.950524</ele>
        <time>2021-11-22T11:22:48.484Z</time>
      </trkpt>
      <trkpt lat="47.492317" lon="7.997637">
        <ele>376.102498</ele>
        <time>2021-11-22T11:22:53.417Z</time>
      </trkpt>
      <trkpt lat="47.492477" lon="7.997747">
        <ele>375.814500</ele>
        <time>2021-11-22T11:22:55.342Z</time>
      </trkpt>
      <trkpt lat="47.492617" lon="7.997908">
        <ele>375.525072</ele>
        <time>2021-11-22T11:22:57.283Z</time>
      </trkpt>
      <trkpt lat="47.492722" lon="7.998050">
        <ele>375.292881</ele>
        <time>2021-11-22T11:22:58.963Z</time>
      </trkpt>
      <trkpt lat="47.492747" lon="7.998084">
        <ele>375.237455</ele>
        <time>2021-11-22T11:22:59.352Z</time>
      </trkpt>
      <trkpt lat="47.492877" lon="7.998257">
        <ele>374.952062</ele>
        <time>2021-11-22T11:23:01.251Z</time>
      </trkpt>
      <trkpt lat="47.493144" lon="7.998645">
        <ele>374.341216</ele>
        <time>2021-11-22T11:23:05.610Z</time>
      </trkpt>
      <trkpt lat="47.493296" lon="7.998833">
        <ele>374.017843</ele>
        <time>2021-11-22T11:23:08.126Z</time>
      </trkpt>
      <trkpt lat="47.493358" lon="7.998911">
        <ele>373.885006</ele>
        <time>2021-11-22T11:23:09.041Z</time>
      </trkpt>
      <trkpt lat="47.493433" lon="7.998996">
        <ele>373.730799</ele>
        <time>2021-11-22T11:23:10.274Z</time>
      </trkpt>
      <trkpt lat="47.493502" lon="7.999071">
        <ele>373.670008</ele>
        <time>2021-11-22T11:23:11.420Z</time>
      </trkpt>
      <trkpt lat="47.493603" lon="7.999152">
        <ele>373.627640</ele>
        <time>2021-11-22T11:23:12.857Z</time>
      </trkpt>
      <trkpt lat="47.493742" lon="7.999216">
        <ele>373.573951</ele>
        <time>2021-11-22T11:23:14.674Z</time>
      </trkpt>
      <trkpt lat="47.493937" lon="7.999285">
        <ele>373.500004</ele>
        <time>2021-11-22T11:23:17.376Z</time>
      </trkpt>
      <trkpt lat="47.493961" lon="7.999292">
        <ele>373.490982</ele>
        <time>2021-11-22T11:23:17.649Z</time>
      </trkpt>
      <trkpt lat="47.493961" lon="7.999292">
        <ele>373.490982</ele>
        <time>2021-11-22T11:23:17.652Z</time>
      </trkpt>
      <trkpt lat="47.494123" lon="7.999338">
        <ele>373.430144</ele>
        <time>2021-11-22T11:23:20.045Z</time>
      </trkpt>
      <trkpt lat="47.494272" lon="7.999381">
        <ele>373.374155</ele>
        <time>2021-11-22T11:23:22.227Z</time>
      </trkpt>
      <trkpt lat="47.494489" lon="7.999417">
        <ele>373.293620</ele>
        <time>2021-11-22T11:23:25.501Z</time>
      </trkpt>
      <trkpt lat="47.494643" lon="7.999430">
        <ele>373.236730</ele>
        <time>2021-11-22T11:23:27.921Z</time>
      </trkpt>
      <trkpt lat="47.494812" lon="7.999457">
        <ele>373.174038</ele>
        <time>2021-11-22T11:23:30.324Z</time>
      </trkpt>
      <trkpt lat="47.495197" lon="7.999589">
        <ele>373.026441</ele>
        <time>2021-11-22T11:23:35.893Z</time>
      </trkpt>
      <trkpt lat="47.495430" lon="7.999752">
        <ele>372.806360</ele>
        <time>2021-11-22T11:23:39.369Z</time>
      </trkpt>
      <trkpt lat="47.495718" lon="8.000005">
        <ele>372.520360</ele>
        <time>2021-11-22T11:23:43.910Z</time>
      </trkpt>
      <trkpt lat="47.496011" lon="8.000286">
        <ele>372.222212</ele>
        <time>2021-11-22T11:23:48.368Z</time>
      </trkpt>
      <trkpt lat="47.496234" lon="8.000584">
        <ele>371.965642</ele>
        <time>2021-11-22T11:23:52.019Z</time>
      </trkpt>
      <trkpt lat="47.496272" lon="8.000651">
        <ele>371.915170</ele>
        <time>2021-11-22T11:23:52.906Z</time>
      </trkpt>
      <trkpt lat="47.496280" lon="8.000664">
        <ele>371.905025</ele>
        <time>2021-11-22T11:23:53.043Z</time>
      </trkpt>
      <trkpt lat="47.496429" lon="8.000925">
        <ele>371.707877</ele>
        <time>2021-11-22T11:23:55.690Z</time>
      </trkpt>
      <trkpt lat="47.496517" lon="8.001077">
        <ele>371.592384</ele>
        <time>2021-11-22T11:23:57.441Z</time>
      </trkpt>
      <trkpt lat="47.496533" lon="8.001104">
        <ele>371.571663</ele>
        <time>2021-11-22T11:23:57.675Z</time>
      </trkpt>
      <trkpt lat="47.496535" lon="8.001108">
        <ele>371.568792</ele>
        <time>2021-11-22T11:23:57.715Z</time>
      </trkpt>
      <trkpt lat="47.496585" lon="8.001187">
        <ele>371.506336</ele>
        <time>2021-11-22T11:23:58.546Z</time>
      </trkpt>
      <trkpt lat="47.496820" lon="8.001547">
        <ele>370.917664</ele>
        <time>2021-11-22T11:24:02.425Z</time>
      </trkpt>
      <trkpt lat="47.496861" lon="8.001608">
        <ele>370.814121</ele>
        <time>2021-11-22T11:24:03.065Z</time>
      </trkpt>
      <trkpt lat="47.496908" lon="8.001680">
        <ele>370.693644</ele>
        <time>2021-11-22T11:24:03.820Z</time>
      </trkpt>
      <trkpt lat="47.496932" lon="8.001715">
        <ele>370.633634</ele>
        <time>2021-11-22T11:24:04.186Z</time>
      </trkpt>
      <trkpt lat="47.497207" lon="8.002132">
        <ele>369.932408</ele>
        <time>2021-11-22T11:24:08.490Z</time>
      </trkpt>
      <trkpt lat="47.497264" lon="8.002219">
        <ele>369.786574</ele>
        <time>2021-11-22T11:24:09.449Z</time>
      </trkpt>
      <trkpt lat="47.497307" lon="8.002279">
        <ele>369.681318</ele>
        <time>2021-11-22T11:24:10.062Z</time>
      </trkpt>
      <trkpt lat="47.497390" lon="8.002409">
        <ele>369.466082</ele>
        <time>2021-11-22T11:24:11.440Z</time>
      </trkpt>
      <trkpt lat="47.497540" lon="8.002634">
        <ele>369.085704</ele>
        <time>2021-11-22T11:24:13.814Z</time>
      </trkpt>
      <trkpt lat="47.497607" lon="8.002710">
        <ele>368.935356</ele>
        <time>2021-11-22T11:24:14.763Z</time>
      </trkpt>
      <trkpt lat="47.497951" lon="8.003094">
        <ele>368.174292</ele>
        <time>2021-11-22T11:24:19.592Z</time>
      </trkpt>
      <trkpt lat="47.498072" lon="8.003250">
        <ele>367.903346</ele>
        <time>2021-11-22T11:24:21.323Z</time>
      </trkpt>
      <trkpt lat="47.498166" lon="8.003383">
        <ele>367.683776</ele>
        <time>2021-11-22T11:24:22.802Z</time>
      </trkpt>
      <trkpt lat="47.498213" lon="8.003454">
        <ele>367.570383</ele>
        <time>2021-11-22T11:24:23.569Z</time>
      </trkpt>
      <trkpt lat="47.498450" lon="8.003874">
        <ele>366.946126</ele>
        <time>2021-11-22T11:24:27.688Z</time>
      </trkpt>
      <trkpt lat="47.498698" lon="8.004313">
        <ele>366.293330</ele>
        <time>2021-11-22T11:24:31.944Z</time>
      </trkpt>
      <trkpt lat="47.498753" lon="8.004410">
        <ele>366.148871</ele>
        <time>2021-11-22T11:24:32.894Z</time>
      </trkpt>
      <trkpt lat="47.498898" lon="8.004636">
        <ele>365.793330</ele>
        <time>2021-11-22T11:24:35.286Z</time>
      </trkpt>
      <trkpt lat="47.498965" lon="8.004710">
        <ele>365.652177</ele>
        <time>2021-11-22T11:24:36.282Z</time>
      </trkpt>
      <trkpt lat="47.499012" lon="8.004762">
        <ele>365.553098</ele>
        <time>2021-11-22T11:24:36.972Z</time>
      </trkpt>
      <trkpt lat="47.499183" lon="8.004875">
        <ele>365.243979</ele>
        <time>2021-11-22T11:24:39.215Z</time>
      </trkpt>
      <trkpt lat="47.499409" lon="8.005000">
        <ele>365.014386</ele>
        <time>2021-11-22T11:24:42.153Z</time>
      </trkpt>
      <trkpt lat="47.499496" lon="8.005059">
        <ele>364.923318</ele>
        <time>2021-11-22T11:24:43.527Z</time>
      </trkpt>
      <trkpt lat="47.499523" lon="8.005078">
        <ele>364.894868</ele>
        <time>2021-11-22T11:24:43.792Z</time>
      </trkpt>
      <trkpt lat="47.499770" lon="8.005268">
        <ele>364.629970</ele>
        <time>2021-11-22T11:24:47.463Z</time>
      </trkpt>
      <trkpt lat="47.499856" lon="8.005338">
        <ele>364.536572</ele>
        <time>2021-11-22T11:24:48.452Z</time>
      </trkpt>
      <trkpt lat="47.499880" lon="8.005358">
        <ele>364.510362</ele>
        <time>2021-11-22T11:24:48.789Z</time>
      </trkpt>
      <trkpt lat="47.499991" lon="8.005468">
        <ele>364.383243</ele>
        <time>2021-11-22T11:24:50.482Z</time>
      </trkpt>
      <trkpt lat="47.500009" lon="8.005488">
        <ele>364.361825</ele>
        <time>2021-11-22T11:24:50.804Z</time>
      </trkpt>
      <trkpt lat="47.500207" lon="8.005727">
        <ele>364.118693</ele>
        <time>2021-11-22T11:24:53.873Z</time>
      </trkpt>
      <trkpt lat="47.500252" lon="8.005784">
        <ele>364.062331</ele>
        <time>2021-11-22T11:24:54.755Z</time>
      </trkpt>
      <trkpt lat="47.500310" lon="8.005852">
        <ele>363.991920</ele>
        <time>2021-11-22T11:24:55.779Z</time>
      </trkpt>
      <trkpt lat="47.500540" lon="8.006079">
        <ele>363.728853</ele>
        <time>2021-11-22T11:24:59.254Z</time>
      </trkpt>
      <trkpt lat="47.500647" lon="8.006180">
        <ele>363.608086</ele>
        <time>2021-11-22T11:25:01.410Z</time>
      </trkpt>
      <trkpt lat="47.500764" lon="8.006290">
        <ele>363.502458</ele>
        <time>2021-11-22T11:25:02.937Z</time>
      </trkpt>
      <trkpt lat="47.500997" lon="8.006551">
        <ele>363.336275</ele>
        <time>2021-11-22T11:25:07.128Z</time>
      </trkpt>
      <trkpt lat="47.501276" lon="8.006911">
        <ele>363.125774</ele>
        <time>2021-11-22T11:25:12.380Z</time>
      </trkpt>
      <trkpt lat="47.501293" lon="8.006936">
        <ele>363.112145</ele>
        <time>2021-11-22T11:25:12.705Z</time>
      </trkpt>
      <trkpt lat="47.501496" lon="8.007247">
        <ele>362.945989</ele>
        <time>2021-11-22T11:25:16.659Z</time>
      </trkpt>
      <trkpt lat="47.501537" lon="8.007308">
        <ele>362.912928</ele>
        <time>2021-11-22T11:25:17.403Z</time>
      </trkpt>
      <trkpt lat="47.501943" lon="8.008353">
        <ele>362.312343</ele>
        <time>2021-11-22T11:25:27.875Z</time>
      </trkpt>
      <trkpt lat="47.502062" lon="8.008650">
        <ele>361.914586</ele>
        <time>2021-11-22T11:25:30.815Z</time>
      </trkpt>
      <trkpt lat="47.502158" lon="8.008808">
        <ele>361.669807</ele>
        <time>2021-11-22T11:25:32.359Z</time>
      </trkpt>
      <trkpt lat="47.502267" lon="8.008979">
        <ele>361.398994</ele>
        <time>2021-11-22T11:25:34.297Z</time>
      </trkpt>
      <trkpt lat="47.502773" lon="8.009928">
        <ele>360.006404</ele>
        <time>2021-11-22T11:25:43.578Z</time>
      </trkpt>
      <trkpt lat="47.502959" lon="8.010415">
        <ele>359.319654</ele>
        <time>2021-11-22T11:25:47.490Z</time>
      </trkpt>
      <trkpt lat="47.502991" lon="8.010405">
        <ele>359.237567</ele>
        <time>2021-11-22T11:25:47.783Z</time>
      </trkpt>
      <trkpt lat="47.503467" lon="8.010296">
        <ele>358.028645</ele>
        <time>2021-11-22T11:25:52.774Z</time>
      </trkpt>
      <trkpt lat="47.504018" lon="8.010447">
        <ele>356.622192</ele>
        <time>2021-11-22T11:25:58.706Z</time>
      </trkpt>
      <trkpt lat="47.504178" lon="8.010516">
        <ele>356.203914</ele>
        <time>2021-11-22T11:26:00.355Z</time>
      </trkpt>
      <trkpt lat="47.504256" lon="8.010566">
        <ele>355.990575</ele>
        <time>2021-11-22T11:26:01.239Z</time>
      </trkpt>
      <trkpt lat="47.504446" lon="8.010688">
        <ele>355.470763</ele>
        <time>2021-11-22T11:26:03.442Z</time>
      </trkpt>
      <trkpt lat="47.505237" lon="8.011270">
        <ele>354.498718</ele>
        <time>2021-11-22T11:26:13.443Z</time>
      </trkpt>
      <trkpt lat="47.505388" lon="8.011390">
        <ele>354.386661</ele>
        <time>2021-11-22T11:26:15.648Z</time>
      </trkpt>
      <trkpt lat="47.505808" lon="8.011926">
        <ele>354.024089</ele>
        <time>2021-11-22T11:26:23.471Z</time>
      </trkpt>
      <trkpt lat="47.506101" lon="8.012240">
        <ele>353.787583</ele>
        <time>2021-11-22T11:26:29.855Z</time>
      </trkpt>
      <trkpt lat="47.506308" lon="8.012429">
        <ele>353.753740</ele>
        <time>2021-11-22T11:26:34.181Z</time>
      </trkpt>
      <trkpt lat="47.506346" lon="8.012464">
        <ele>353.752079</ele>
        <time>2021-11-22T11:26:34.954Z</time>
      </trkpt>
      <trkpt lat="47.506389" lon="8.012514">
        <ele>353.750050</ele>
        <time>2021-11-22T11:26:35.905Z</time>
      </trkpt>
      <trkpt lat="47.506472" lon="8.012743">
        <ele>353.743535</ele>
        <time>2021-11-22T11:26:38.993Z</time>
      </trkpt>
      <trkpt lat="47.506492" lon="8.012798">
        <ele>353.741970</ele>
        <time>2021-11-22T11:26:39.796Z</time>
      </trkpt>
      <trkpt lat="47.506533" lon="8.012868">
        <ele>353.739647</ele>
        <time>2021-11-22T11:26:40.789Z</time>
      </trkpt>
      <trkpt lat="47.506633" lon="8.012949">
        <ele>353.735417</ele>
        <time>2021-11-22T11:26:42.662Z</time>
      </trkpt>
      <trkpt lat="47.506663" lon="8.012973">
        <ele>353.734151</ele>
        <time>2021-11-22T11:26:43.180Z</time>
      </trkpt>
      <trkpt lat="47.506697" lon="8.013001">
        <ele>353.732707</ele>
        <time>2021-11-22T11:26:43.768Z</time>
      </trkpt>
      <trkpt lat="47.506760" lon="8.013057">
        <ele>353.729980</ele>
        <time>2021-11-22T11:26:44.949Z</time>
      </trkpt>
      <trkpt lat="47.506825" lon="8.013107">
        <ele>353.727262</ele>
        <time>2021-11-22T11:26:46.145Z</time>
      </trkpt>
      <trkpt lat="47.506890" lon="8.013159">
        <ele>353.724520</ele>
        <time>2021-11-22T11:26:47.327Z</time>
      </trkpt>
      <trkpt lat="47.506929" lon="8.013191">
        <ele>353.722865</ele>
        <time>2021-11-22T11:26:47.975Z</time>
      </trkpt>
      <trkpt lat="47.506955" lon="8.013213">
        <ele>353.721754</ele>
        <time>2021-11-22T11:26:48.408Z</time>
      </trkpt>
      <trkpt lat="47.506989" lon="8.013246">
        <ele>353.720245</ele>
        <time>2021-11-22T11:26:49.006Z</time>
      </trkpt>
      <trkpt lat="47.507007" lon="8.013263">
        <ele>353.719453</ele>
        <time>2021-11-22T11:26:49.315Z</time>
      </trkpt>
      <trkpt lat="47.507038" lon="8.013279">
        <ele>353.718234</ele>
        <time>2021-11-22T11:26:49.840Z</time>
      </trkpt>
      <trkpt lat="47.507084" lon="8.013290">
        <ele>353.716505</ele>
        <time>2021-11-22T11:26:50.519Z</time>
      </trkpt>
      <trkpt lat="47.507106" lon="8.013288">
        <ele>353.715687</ele>
        <time>2021-11-22T11:26:50.884Z</time>
      </trkpt>
      <trkpt lat="47.507191" lon="8.013279">
        <ele>353.712525</ele>
        <time>2021-11-22T11:26:52.000Z</time>
      </trkpt>
      <trkpt lat="47.507231" lon="8.013292">
        <ele>353.711005</ele>
        <time>2021-11-22T11:26:52.546Z</time>
      </trkpt>
      <trkpt lat="47.507559" lon="8.013585">
        <ele>353.696788</ele>
        <time>2021-11-22T11:26:57.482Z</time>
      </trkpt>
      <trkpt lat="47.507595" lon="8.013616">
        <ele>353.695243</ele>
        <time>2021-11-22T11:26:57.999Z</time>
      </trkpt>
      <trkpt lat="47.508011" lon="8.013995">
        <ele>352.717220</ele>
        <time>2021-11-22T11:27:03.895Z</time>
      </trkpt>
      <trkpt lat="47.508075" lon="8.014054">
        <ele>352.560142</ele>
        <time>2021-11-22T11:27:04.754Z</time>
      </trkpt>
      <trkpt lat="47.508214" lon="8.014183">
        <ele>352.218347</ele>
        <time>2021-11-22T11:27:06.530Z</time>
      </trkpt>
      <trkpt lat="47.508281" lon="8.014277">
        <ele>352.026032</ele>
        <time>2021-11-22T11:27:07.596Z</time>
      </trkpt>
      <trkpt lat="47.508333" lon="8.014419">
        <ele>351.798716</ele>
        <time>2021-11-22T11:27:08.746Z</time>
      </trkpt>
      <trkpt lat="47.508352" lon="8.014580">
        <ele>351.568706</ele>
        <time>2021-11-22T11:27:09.885Z</time>
      </trkpt>
      <trkpt lat="47.508337" lon="8.014821">
        <ele>351.228107</ele>
        <time>2021-11-22T11:27:11.645Z</time>
      </trkpt>
      <trkpt lat="47.508294" lon="8.015081">
        <ele>350.851397</ele>
        <time>2021-11-22T11:27:13.462Z</time>
      </trkpt>
      <trkpt lat="47.508285" lon="8.015139">
        <ele>350.767647</ele>
        <time>2021-11-22T11:27:13.873Z</time>
      </trkpt>
      <trkpt lat="47.508270" lon="8.015229">
        <ele>350.637190</ele>
        <time>2021-11-22T11:27:14.560Z</time>
      </trkpt>
      <trkpt lat="47.508213" lon="8.015549">
        <ele>350.171454</ele>
        <time>2021-11-22T11:27:16.875Z</time>
      </trkpt>
      <trkpt lat="47.508171" lon="8.015782">
        <ele>349.817167</ele>
        <time>2021-11-22T11:27:18.551Z</time>
      </trkpt>
      <trkpt lat="47.508148" lon="8.015914">
        <ele>349.600478</ele>
        <time>2021-11-22T11:27:19.494Z</time>
      </trkpt>
      <trkpt lat="47.508113" lon="8.016106">
        <ele>349.284365</ele>
        <time>2021-11-22T11:27:20.862Z</time>
      </trkpt>
      <trkpt lat="47.508111" lon="8.016120">
        <ele>349.261619</ele>
        <time>2021-11-22T11:27:20.948Z</time>
      </trkpt>
      <trkpt lat="47.508068" lon="8.016380">
        <ele>348.836127</ele>
        <time>2021-11-22T11:27:22.887Z</time>
      </trkpt>
      <trkpt lat="47.508091" lon="8.016430">
        <ele>348.739970</ele>
        <time>2021-11-22T11:27:23.291Z</time>
      </trkpt>
      <trkpt lat="47.508279" lon="8.016640">
        <ele>348.185762</ele>
        <time>2021-11-22T11:27:25.703Z</time>
      </trkpt>
      <trkpt lat="47.508354" lon="8.016748">
        <ele>347.939551</ele>
        <time>2021-11-22T11:27:26.823Z</time>
      </trkpt>
      <trkpt lat="47.508497" lon="8.016922">
        <ele>347.503966</ele>
        <time>2021-11-22T11:27:28.738Z</time>
      </trkpt>
      <trkpt lat="47.508730" lon="8.017178">
        <ele>346.821166</ele>
        <time>2021-11-22T11:27:31.939Z</time>
      </trkpt>
      <trkpt lat="47.508854" lon="8.017281">
        <ele>346.486576</ele>
        <time>2021-11-22T11:27:33.468Z</time>
      </trkpt>
      <trkpt lat="47.509074" lon="8.017428">
        <ele>345.918583</ele>
        <time>2021-11-22T11:27:36.224Z</time>
      </trkpt>
      <trkpt lat="47.509338" lon="8.017622">
        <ele>345.602778</ele>
        <time>2021-11-22T11:27:39.630Z</time>
      </trkpt>
      <trkpt lat="47.509437" lon="8.017668">
        <ele>345.547001</ele>
        <time>2021-11-22T11:27:40.783Z</time>
      </trkpt>
      <trkpt lat="47.509596" lon="8.017609">
        <ele>345.458885</ele>
        <time>2021-11-22T11:27:42.856Z</time>
      </trkpt>
      <trkpt lat="47.509728" lon="8.017576">
        <ele>345.386924</ele>
        <time>2021-11-22T11:27:44.509Z</time>
      </trkpt>
      <trkpt lat="47.509872" lon="8.017541">
        <ele>345.308479</ele>
        <time>2021-11-22T11:27:46.308Z</time>
      </trkpt>
      <trkpt lat="47.510117" lon="8.017458">
        <ele>345.173374</ele>
        <time>2021-11-22T11:27:49.742Z</time>
      </trkpt>
      <trkpt lat="47.510624" lon="8.017217">
        <ele>344.887131</ele>
        <time>2021-11-22T11:27:57.842Z</time>
      </trkpt>
      <trkpt lat="47.511079" lon="8.016999">
        <ele>344.725194</ele>
        <time>2021-11-22T11:28:05.486Z</time>
      </trkpt>
      <trkpt lat="47.511835" lon="8.016624">
        <ele>344.643048</ele>
        <time>2021-11-22T11:28:17.543Z</time>
      </trkpt>
      <trkpt lat="47.511937" lon="8.016578">
        <ele>344.632062</ele>
        <time>2021-11-22T11:28:19.215Z</time>
      </trkpt>
      <trkpt lat="47.512292" lon="8.016407">
        <ele>344.593600</ele>
        <time>2021-11-22T11:28:24.377Z</time>
      </trkpt>
      <trkpt lat="47.512572" lon="8.016270">
        <ele>344.563217</ele>
        <time>2021-11-22T11:28:28.281Z</time>
      </trkpt>
      <trkpt lat="47.512748" lon="8.016153">
        <ele>344.355774</ele>
        <time>2021-11-22T11:28:30.892Z</time>
      </trkpt>
      <trkpt lat="47.512943" lon="8.015998">
        <ele>344.109030</ele>
        <time>2021-11-22T11:28:33.751Z</time>
      </trkpt>
      <trkpt lat="47.513615" lon="8.015346">
        <ele>343.213321</ele>
        <time>2021-11-22T11:28:43.310Z</time>
      </trkpt>
      <trkpt lat="47.513872" lon="8.015092">
        <ele>342.868835</ele>
        <time>2021-11-22T11:28:46.817Z</time>
      </trkpt>
      <trkpt lat="47.513919" lon="8.015052">
        <ele>342.808398</ele>
        <time>2021-11-22T11:28:47.461Z</time>
      </trkpt>
      <trkpt lat="47.514036" lon="8.014936">
        <ele>342.651417</ele>
        <time>2021-11-22T11:28:49.087Z</time>
      </trkpt>
      <trkpt lat="47.514162" lon="8.014813">
        <ele>342.472736</ele>
        <time>2021-11-22T11:28:50.790Z</time>
      </trkpt>
      <trkpt lat="47.514464" lon="8.014550">
        <ele>342.027150</ele>
        <time>2021-11-22T11:28:54.870Z</time>
      </trkpt>
      <trkpt lat="47.514628" lon="8.014407">
        <ele>341.785099</ele>
        <time>2021-11-22T11:28:57.084Z</time>
      </trkpt>
      <trkpt lat="47.514746" lon="8.014292">
        <ele>341.605438</ele>
        <time>2021-11-22T11:28:58.728Z</time>
      </trkpt>
      <trkpt lat="47.515054" lon="8.014017">
        <ele>341.148023</ele>
        <time>2021-11-22T11:29:02.956Z</time>
      </trkpt>
      <trkpt lat="47.515263" lon="8.013836">
        <ele>340.840094</ele>
        <time>2021-11-22T11:29:05.845Z</time>
      </trkpt>
      <trkpt lat="47.515468" lon="8.013643">
        <ele>340.531140</ele>
        <time>2021-11-22T11:29:08.745Z</time>
      </trkpt>
      <trkpt lat="47.515487" lon="8.013682">
        <ele>340.489836</ele>
        <time>2021-11-22T11:29:09.114Z</time>
      </trkpt>
      <trkpt lat="47.515592" lon="8.013719">
        <ele>340.352570</ele>
        <time>2021-11-22T11:29:10.441Z</time>
      </trkpt>
      <trkpt lat="47.515625" lon="8.013694">
        <ele>340.305427</ele>
        <time>2021-11-22T11:29:10.866Z</time>
      </trkpt>
      <trkpt lat="47.515640" lon="8.013674">
        <ele>340.279756</ele>
        <time>2021-11-22T11:29:11.124Z</time>
      </trkpt>
      <trkpt lat="47.515666" lon="8.013522">
        <ele>340.200559</ele>
        <time>2021-11-22T11:29:12.433Z</time>
      </trkpt>
      <trkpt lat="47.515654" lon="8.013483">
        <ele>340.180127</ele>
        <time>2021-11-22T11:29:12.812Z</time>
      </trkpt>
      <trkpt lat="47.515686" lon="8.013458">
        <ele>340.154587</ele>
        <time>2021-11-22T11:29:13.212Z</time>
      </trkpt>
      <trkpt lat="47.516968" lon="8.012240">
        <ele>339.079351</ele>
        <time>2021-11-22T11:29:32.933Z</time>
      </trkpt>
      <trkpt lat="47.517220" lon="8.011958">
        <ele>338.859580</ele>
        <time>2021-11-22T11:29:37.176Z</time>
      </trkpt>
      <trkpt lat="47.517559" lon="8.011519">
        <ele>338.548759</ele>
        <time>2021-11-22T11:29:43.104Z</time>
      </trkpt>
      <trkpt lat="47.517842" lon="8.011140">
        <ele>338.285405</ele>
        <time>2021-11-22T11:29:47.998Z</time>
      </trkpt>
      <trkpt lat="47.518886" lon="8.009691">
        <ele>337.169855</ele>
        <time>2021-11-22T11:30:05.827Z</time>
      </trkpt>
      <trkpt lat="47.520570" lon="8.007346">
        <ele>335.293667</ele>
        <time>2021-11-22T11:30:34.474Z</time>
      </trkpt>
      <trkpt lat="47.524655" lon="8.001699">
        <ele>332.375394</ele>
        <time>2021-11-22T11:31:49.250Z</time>
      </trkpt>
      <trkpt lat="47.524855" lon="8.001439">
        <ele>332.212813</ele>
        <time>2021-11-22T11:31:52.571Z</time>
      </trkpt>
      <trkpt lat="47.525162" lon="8.001004">
        <ele>331.963320</ele>
        <time>2021-11-22T11:31:57.624Z</time>
      </trkpt>
      <trkpt lat="47.526084" lon="8.000015">
        <ele>331.311007</ele>
        <time>2021-11-22T11:32:12.196Z</time>
      </trkpt>
      <trkpt lat="47.526401" lon="7.999417">
        <ele>331.110995</ele>
        <time>2021-11-22T11:32:19.508Z</time>
      </trkpt>
      <trkpt lat="47.526473" lon="7.999201">
        <ele>331.146627</ele>
        <time>2021-11-22T11:32:22.514Z</time>
      </trkpt>
      <trkpt lat="47.526730" lon="7.998233">
        <ele>331.300487</ele>
        <time>2021-11-22T11:32:33.391Z</time>
      </trkpt>
      <trkpt lat="47.526915" lon="7.997856">
        <ele>331.369425</ele>
        <time>2021-11-22T11:32:38.321Z</time>
      </trkpt>
      <trkpt lat="47.527213" lon="7.997459">
        <ele>331.457233</ele>
        <time>2021-11-22T11:32:45.245Z</time>
      </trkpt>
      <trkpt lat="47.527614" lon="7.997121">
        <ele>331.412800</ele>
        <time>2021-11-22T11:32:52.641Z</time>
      </trkpt>
      <trkpt lat="47.527931" lon="7.996738">
        <ele>331.338038</ele>
        <time>2021-11-22T11:32:58.759Z</time>
      </trkpt>
      <trkpt lat="47.528128" lon="7.996500">
        <ele>331.291579</ele>
        <time>2021-11-22T11:33:02.384Z</time>
      </trkpt>
      <trkpt lat="47.528880" lon="7.995091">
        <ele>330.861740</ele>
        <time>2021-11-22T11:33:18.072Z</time>
      </trkpt>
      <trkpt lat="47.529180" lon="7.994531">
        <ele>330.544874</ele>
        <time>2021-11-22T11:33:24.535Z</time>
      </trkpt>
      <trkpt lat="47.529261" lon="7.994394">
        <ele>330.464156</ele>
        <time>2021-11-22T11:33:26.048Z</time>
      </trkpt>
      <trkpt lat="47.529350" lon="7.994228">
        <ele>330.370199</ele>
        <time>2021-11-22T11:33:27.875Z</time>
      </trkpt>
      <trkpt lat="47.529589" lon="7.993785">
        <ele>330.118850</ele>
        <time>2021-11-22T11:33:32.562Z</time>
      </trkpt>
      <trkpt lat="47.529730" lon="7.993521">
        <ele>329.969645</ele>
        <time>2021-11-22T11:33:35.459Z</time>
      </trkpt>
      <trkpt lat="47.530141" lon="7.992757">
        <ele>329.921593</ele>
        <time>2021-11-22T11:33:44.307Z</time>
      </trkpt>
      <trkpt lat="47.530495" lon="7.992103">
        <ele>329.880459</ele>
        <time>2021-11-22T11:33:52.438Z</time>
      </trkpt>
      <trkpt lat="47.530776" lon="7.991586">
        <ele>329.847889</ele>
        <time>2021-11-22T11:34:00.033Z</time>
      </trkpt>
      <trkpt lat="47.530933" lon="7.991310">
        <ele>329.930041</ele>
        <time>2021-11-22T11:34:03.759Z</time>
      </trkpt>
      <trkpt lat="47.530979" lon="7.991211">
        <ele>329.992534</ele>
        <time>2021-11-22T11:34:05.308Z</time>
      </trkpt>
      <trkpt lat="47.531363" lon="7.990436">
        <ele>330.492410</ele>
        <time>2021-11-22T11:34:16.459Z</time>
      </trkpt>
      <trkpt lat="47.531667" lon="7.989873">
        <ele>330.867277</ele>
        <time>2021-11-22T11:34:25.706Z</time>
      </trkpt>
      <trkpt lat="47.531823" lon="7.989607">
        <ele>331.050491</ele>
        <time>2021-11-22T11:34:29.703Z</time>
      </trkpt>
      <trkpt lat="47.531897" lon="7.989450">
        <ele>331.150055</ele>
        <time>2021-11-22T11:34:32.964Z</time>
      </trkpt>
      <trkpt lat="47.532014" lon="7.989225">
        <ele>331.312054</ele>
        <time>2021-11-22T11:34:35.753Z</time>
      </trkpt>
      <trkpt lat="47.532299" lon="7.988577">
        <ele>331.792346</ele>
        <time>2021-11-22T11:34:46.497Z</time>
      </trkpt>
      <trkpt lat="47.532373" lon="7.988399">
        <ele>331.922167</ele>
        <time>2021-11-22T11:34:49.776Z</time>
      </trkpt>
      <trkpt lat="47.532401" lon="7.988331">
        <ele>331.971632</ele>
        <time>2021-11-22T11:34:50.265Z</time>
      </trkpt>
      <trkpt lat="47.532464" lon="7.988171">
        <ele>332.086662</ele>
        <time>2021-11-22T11:34:53.415Z</time>
      </trkpt>
      <trkpt lat="47.532544" lon="7.987973">
        <ele>332.229965</ele>
        <time>2021-11-22T11:34:56.962Z</time>
      </trkpt>
      <trkpt lat="47.532621" lon="7.987826">
        <ele>332.345511</ele>
        <time>2021-11-22T11:34:58.396Z</time>
      </trkpt>
      <trkpt lat="47.532716" lon="7.987667">
        <ele>332.477370</ele>
        <time>2021-11-22T11:35:01.756Z</time>
      </trkpt>
      <trkpt lat="47.532879" lon="7.987447">
        <ele>332.680217</ele>
        <time>2021-11-22T11:35:05.055Z</time>
      </trkpt>
      <trkpt lat="47.533114" lon="7.987128">
        <ele>332.946483</ele>
        <time>2021-11-22T11:35:10.464Z</time>
      </trkpt>
      <trkpt lat="47.533208" lon="7.986980">
        <ele>333.036861</ele>
        <time>2021-11-22T11:35:13.828Z</time>
      </trkpt>
      <trkpt lat="47.533546" lon="7.986336">
        <ele>333.399668</ele>
        <time>2021-11-22T11:35:23.672Z</time>
      </trkpt>
      <trkpt lat="47.533975" lon="7.985526">
        <ele>333.857562</ele>
        <time>2021-11-22T11:35:35.101Z</time>
      </trkpt>
      <trkpt lat="47.534197" lon="7.985105">
        <ele>334.124686</ele>
        <time>2021-11-22T11:35:41.274Z</time>
      </trkpt>
      <trkpt lat="47.534320" lon="7.984882">
        <ele>334.371821</ele>
        <time>2021-11-22T11:35:44.491Z</time>
      </trkpt>
      <trkpt lat="47.534722" lon="7.984096">
        <ele>335.218094</ele>
        <time>2021-11-22T11:35:56.275Z</time>
      </trkpt>
      <trkpt lat="47.534817" lon="7.983835">
        <ele>335.472571</ele>
        <time>2021-11-22T11:36:00.221Z</time>
      </trkpt>
      <trkpt lat="47.535231" lon="7.982582">
        <ele>336.844437</ele>
        <time>2021-11-22T11:36:21.911Z</time>
      </trkpt>
      <trkpt lat="47.535300" lon="7.982379">
        <ele>337.145940</ele>
        <time>2021-11-22T11:36:25.675Z</time>
      </trkpt>
      <trkpt lat="47.535328" lon="7.982298">
        <ele>337.266660</ele>
        <time>2021-11-22T11:36:27.159Z</time>
      </trkpt>
      <trkpt lat="47.535345" lon="7.982248">
        <ele>337.340926</ele>
        <time>2021-11-22T11:36:28.050Z</time>
      </trkpt>
      <trkpt lat="47.535452" lon="7.981933">
        <ele>337.808714</ele>
        <time>2021-11-22T11:36:34.113Z</time>
      </trkpt>
      <trkpt lat="47.535599" lon="7.981498">
        <ele>338.454034</ele>
        <time>2021-11-22T11:36:42.389Z</time>
      </trkpt>
      <trkpt lat="47.536061" lon="7.980200">
        <ele>339.722205</ele>
        <time>2021-11-22T11:37:03.529Z</time>
      </trkpt>
      <trkpt lat="47.536340" lon="7.979418">
        <ele>339.354705</ele>
        <time>2021-11-22T11:37:12.468Z</time>
      </trkpt>
      <trkpt lat="47.536403" lon="7.979241">
        <ele>339.271568</ele>
        <time>2021-11-22T11:37:14.109Z</time>
      </trkpt>
      <trkpt lat="47.536460" lon="7.979083">
        <ele>339.197134</ele>
        <time>2021-11-22T11:37:15.568Z</time>
      </trkpt>
      <trkpt lat="47.536866" lon="7.977996">
        <ele>338.348564</ele>
        <time>2021-11-22T11:37:24.886Z</time>
      </trkpt>
      <trkpt lat="47.537461" lon="7.976449">
        <ele>335.049089</ele>
        <time>2021-11-22T11:37:37.154Z</time>
      </trkpt>
      <trkpt lat="47.537896" lon="7.975317">
        <ele>332.776279</ele>
        <time>2021-11-22T11:37:46.353Z</time>
      </trkpt>
      <trkpt lat="47.538106" lon="7.974772">
        <ele>331.749516</ele>
        <time>2021-11-22T11:37:50.851Z</time>
      </trkpt>
      <trkpt lat="47.538490" lon="7.973699">
        <ele>329.762440</ele>
        <time>2021-11-22T11:37:59.607Z</time>
      </trkpt>
      <trkpt lat="47.538687" lon="7.972850">
        <ele>328.380217</ele>
        <time>2021-11-22T11:38:06.163Z</time>
      </trkpt>
      <trkpt lat="47.538858" lon="7.971696">
        <ele>326.588261</ele>
        <time>2021-11-22T11:38:14.833Z</time>
      </trkpt>
      <trkpt lat="47.538935" lon="7.971210">
        <ele>325.831112</ele>
        <time>2021-11-22T11:38:18.463Z</time>
      </trkpt>
      <trkpt lat="47.539052" lon="7.970439">
        <ele>324.614475</ele>
        <time>2021-11-22T11:38:24.091Z</time>
      </trkpt>
      <trkpt lat="47.539144" lon="7.969781">
        <ele>323.572473</ele>
        <time>2021-11-22T11:38:28.885Z</time>
      </trkpt>
      <trkpt lat="47.539248" lon="7.969246">
        <ele>322.709151</ele>
        <time>2021-11-22T11:38:32.897Z</time>
      </trkpt>
      <trkpt lat="47.539403" lon="7.968640">
        <ele>321.704257</ele>
        <time>2021-11-22T11:38:37.631Z</time>
      </trkpt>
      <trkpt lat="47.539680" lon="7.967625">
        <ele>320.355754</ele>
        <time>2021-11-22T11:38:45.846Z</time>
      </trkpt>
      <trkpt lat="47.539909" lon="7.966784">
        <ele>319.326839</ele>
        <time>2021-11-22T11:38:52.701Z</time>
      </trkpt>
      <trkpt lat="47.540100" lon="7.966046">
        <ele>318.430066</ele>
        <time>2021-11-22T11:38:58.977Z</time>
      </trkpt>
      <trkpt lat="47.540200" lon="7.965632">
        <ele>317.973419</ele>
        <time>2021-11-22T11:39:02.494Z</time>
      </trkpt>
      <trkpt lat="47.540257" lon="7.965417">
        <ele>317.742634</ele>
        <time>2021-11-22T11:39:04.232Z</time>
      </trkpt>
      <trkpt lat="47.540467" lon="7.964759">
        <ele>317.015438</ele>
        <time>2021-11-22T11:39:09.974Z</time>
      </trkpt>
      <trkpt lat="47.540959" lon="7.963916">
        <ele>315.902041</ele>
        <time>2021-11-22T11:39:18.629Z</time>
      </trkpt>
      <trkpt lat="47.541019" lon="7.963815">
        <ele>315.767621</ele>
        <time>2021-11-22T11:39:19.580Z</time>
      </trkpt>
      <trkpt lat="47.541123" lon="7.963520">
        <ele>315.373451</ele>
        <time>2021-11-22T11:39:22.178Z</time>
      </trkpt>
      <trkpt lat="47.541217" lon="7.963187">
        <ele>314.894435</ele>
        <time>2021-11-22T11:39:24.935Z</time>
      </trkpt>
      <trkpt lat="47.541258" lon="7.962975">
        <ele>314.601766</ele>
        <time>2021-11-22T11:39:26.769Z</time>
      </trkpt>
      <trkpt lat="47.541293" lon="7.962730">
        <ele>314.269419</ele>
        <time>2021-11-22T11:39:28.613Z</time>
      </trkpt>
      <trkpt lat="47.541308" lon="7.962513">
        <ele>313.979927</ele>
        <time>2021-11-22T11:39:30.373Z</time>
      </trkpt>
      <trkpt lat="47.541314" lon="7.962377">
        <ele>313.799053</ele>
        <time>2021-11-22T11:39:31.440Z</time>
      </trkpt>
      <trkpt lat="47.541316" lon="7.962197">
        <ele>313.560138</ele>
        <time>2021-11-22T11:39:32.744Z</time>
      </trkpt>
      <trkpt lat="47.541242" lon="7.961294">
        <ele>312.352945</ele>
        <time>2021-11-22T11:39:39.391Z</time>
      </trkpt>
      <trkpt lat="47.541153" lon="7.960814">
        <ele>311.620994</ele>
        <time>2021-11-22T11:39:42.921Z</time>
      </trkpt>
      <trkpt lat="47.541060" lon="7.960321">
        <ele>310.818825</ele>
        <time>2021-11-22T11:39:46.511Z</time>
      </trkpt>
      <trkpt lat="47.541027" lon="7.959944">
        <ele>310.223089</ele>
        <time>2021-11-22T11:39:49.014Z</time>
      </trkpt>
      <trkpt lat="47.541019" lon="7.959792">
        <ele>309.984170</ele>
        <time>2021-11-22T11:39:50.094Z</time>
      </trkpt>
      <trkpt lat="47.541012" lon="7.959578">
        <ele>309.648420</ele>
        <time>2021-11-22T11:39:51.830Z</time>
      </trkpt>
      <trkpt lat="47.541016" lon="7.959388">
        <ele>309.350530</ele>
        <time>2021-11-22T11:39:53.100Z</time>
      </trkpt>
      <trkpt lat="47.541081" lon="7.958828">
        <ele>308.460086</ele>
        <time>2021-11-22T11:39:57.338Z</time>
      </trkpt>
      <trkpt lat="47.541226" lon="7.958150">
        <ele>307.930143</ele>
        <time>2021-11-22T11:40:03.131Z</time>
      </trkpt>
      <trkpt lat="47.541305" lon="7.957787">
        <ele>307.949792</ele>
        <time>2021-11-22T11:40:06.046Z</time>
      </trkpt>
      <trkpt lat="47.541237" lon="7.957756">
        <ele>307.955222</ele>
        <time>2021-11-22T11:40:07.583Z</time>
      </trkpt>
      <trkpt lat="47.541141" lon="7.958127">
        <ele>307.975691</ele>
        <time>2021-11-22T11:40:10.956Z</time>
      </trkpt>
      <trkpt lat="47.540957" lon="7.959132">
        <ele>308.029337</ele>
        <time>2021-11-22T11:40:24.855Z</time>
      </trkpt>
      <trkpt lat="47.540957" lon="7.959132">
        <ele>308.029337</ele>
        <time>2021-11-22T11:40:24.962Z</time>
      </trkpt>
      <trkpt lat="47.540956" lon="7.959395">
        <ele>308.042887</ele>
        <time>2021-11-22T11:40:29.219Z</time>
      </trkpt>
      <trkpt lat="47.540957" lon="7.959132">
        <ele>307.967956</ele>
        <time>2021-11-22T11:40:32.507Z</time>
      </trkpt>
      <trkpt lat="47.540957" lon="7.959132">
        <ele>307.967956</ele>
        <time>2021-11-22T11:40:32.614Z</time>
      </trkpt>
      <trkpt lat="47.540956" lon="7.959395">
        <ele>307.824458</ele>
        <time>2021-11-22T11:40:37.326Z</time>
      </trkpt>
      <trkpt lat="47.540954" lon="7.959705">
        <ele>307.655312</ele>
        <time>2021-11-22T11:40:40.629Z</time>
      </trkpt>
      <trkpt lat="47.540979" lon="7.959950">
        <ele>307.520120</ele>
        <time>2021-11-22T11:40:44.244Z</time>
      </trkpt>
      <trkpt lat="47.541002" lon="7.960092">
        <ele>307.440444</ele>
        <time>2021-11-22T11:40:45.274Z</time>
      </trkpt>
      <trkpt lat="47.541060" lon="7.960321">
        <ele>307.306996</ele>
        <time>2021-11-22T11:40:47.889Z</time>
      </trkpt>
      <trkpt lat="47.541027" lon="7.959944">
        <ele>307.099580</ele>
        <time>2021-11-22T11:40:50.575Z</time>
      </trkpt>
      <trkpt lat="47.541019" lon="7.959792">
        <ele>307.016396</ele>
        <time>2021-11-22T11:40:52.689Z</time>
      </trkpt>
      <trkpt lat="47.541012" lon="7.959578">
        <ele>306.899499</ele>
        <time>2021-11-22T11:40:54.379Z</time>
      </trkpt>
      <trkpt lat="47.541016" lon="7.959388">
        <ele>306.795783</ele>
        <time>2021-11-22T11:40:55.607Z</time>
      </trkpt>
      <trkpt lat="47.541081" lon="7.958828">
        <ele>306.217917</ele>
        <time>2021-11-22T11:40:59.687Z</time>
      </trkpt>
      <trkpt lat="47.541226" lon="7.958150">
        <ele>304.879153</ele>
        <time>2021-11-22T11:41:04.646Z</time>
      </trkpt>
      <trkpt lat="47.541305" lon="7.957787">
        <ele>304.161221</ele>
        <time>2021-11-22T11:41:07.130Z</time>
      </trkpt>
      <trkpt lat="47.541355" lon="7.957559">
        <ele>303.709963</ele>
        <time>2021-11-22T11:41:08.832Z</time>
      </trkpt>
      <trkpt lat="47.541450" lon="7.956897">
        <ele>302.435992</ele>
        <time>2021-11-22T11:41:13.466Z</time>
      </trkpt>
      <trkpt lat="47.541464" lon="7.956698">
        <ele>302.059373</ele>
        <time>2021-11-22T11:41:14.872Z</time>
      </trkpt>
      <trkpt lat="47.541533" lon="7.955526">
        <ele>301.108287</ele>
        <time>2021-11-22T11:41:23.706Z</time>
      </trkpt>
      <trkpt lat="47.541554" lon="7.955311">
        <ele>300.997177</ele>
        <time>2021-11-22T11:41:25.744Z</time>
      </trkpt>
      <trkpt lat="47.541735" lon="7.953892">
        <ele>300.258570</ele>
        <time>2021-11-22T11:41:39.952Z</time>
      </trkpt>
      <trkpt lat="47.541773" lon="7.953695">
        <ele>300.239216</ele>
        <time>2021-11-22T11:41:42.200Z</time>
      </trkpt>
      <trkpt lat="47.541791" lon="7.953601">
        <ele>300.256896</ele>
        <time>2021-11-22T11:41:43.235Z</time>
      </trkpt>
      <trkpt lat="47.541991" lon="7.952667">
        <ele>300.434199</ele>
        <time>2021-11-22T11:41:54.091Z</time>
      </trkpt>
      <trkpt lat="47.542169" lon="7.951815">
        <ele>300.595580</ele>
        <time>2021-11-22T11:42:03.828Z</time>
      </trkpt>
      <trkpt lat="47.542192" lon="7.951713">
        <ele>300.615039</ele>
        <time>2021-11-22T11:42:05.091Z</time>
      </trkpt>
      <trkpt lat="47.542357" lon="7.951037">
        <ele>300.749441</ele>
        <time>2021-11-22T11:42:12.555Z</time>
      </trkpt>
      <trkpt lat="47.542444" lon="7.950687">
        <ele>300.823273</ele>
        <time>2021-11-22T11:42:16.386Z</time>
      </trkpt>
      <trkpt lat="47.542546" lon="7.950274">
        <ele>300.910328</ele>
        <time>2021-11-22T11:42:20.733Z</time>
      </trkpt>
      <trkpt lat="47.542554" lon="7.950231">
        <ele>300.919158</ele>
        <time>2021-11-22T11:42:21.220Z</time>
      </trkpt>
      <trkpt lat="47.542560" lon="7.950202">
        <ele>300.925162</ele>
        <time>2021-11-22T11:42:21.553Z</time>
      </trkpt>
      <trkpt lat="47.542609" lon="7.949914">
        <ele>300.983956</ele>
        <time>2021-11-22T11:42:24.552Z</time>
      </trkpt>
      <trkpt lat="47.542719" lon="7.949175">
        <ele>301.133758</ele>
        <time>2021-11-22T11:42:32.456Z</time>
      </trkpt>
      <trkpt lat="47.542826" lon="7.948298">
        <ele>301.641122</ele>
        <time>2021-11-22T11:42:43.398Z</time>
      </trkpt>
      <trkpt lat="47.542838" lon="7.948225">
        <ele>301.714791</ele>
        <time>2021-11-22T11:42:44.226Z</time>
      </trkpt>
      <trkpt lat="47.542875" lon="7.948001">
        <ele>301.940903</ele>
        <time>2021-11-22T11:42:47.109Z</time>
      </trkpt>
      <trkpt lat="47.542928" lon="7.947798">
        <ele>302.154314</ele>
        <time>2021-11-22T11:42:50.032Z</time>
      </trkpt>
      <trkpt lat="47.542957" lon="7.947651">
        <ele>302.304477</ele>
        <time>2021-11-22T11:42:51.740Z</time>
      </trkpt>
      <trkpt lat="47.543050" lon="7.947411">
        <ele>302.575813</ele>
        <time>2021-11-22T11:42:56.105Z</time>
      </trkpt>
      <trkpt lat="47.543087" lon="7.947317">
        <ele>302.682505</ele>
        <time>2021-11-22T11:42:57.384Z</time>
      </trkpt>
      <trkpt lat="47.543092" lon="7.947257">
        <ele>302.741781</ele>
        <time>2021-11-22T11:42:58.173Z</time>
      </trkpt>
      <trkpt lat="47.543097" lon="7.947186">
        <ele>302.811774</ele>
        <time>2021-11-22T11:42:59.023Z</time>
      </trkpt>
      <trkpt lat="47.543086" lon="7.947052">
        <ele>302.944129</ele>
        <time>2021-11-22T11:43:00.852Z</time>
      </trkpt>
      <trkpt lat="47.543056" lon="7.946935">
        <ele>303.066845</ele>
        <time>2021-11-22T11:43:03.219Z</time>
      </trkpt>
      <trkpt lat="47.543045" lon="7.946881">
        <ele>303.122150</ele>
        <time>2021-11-22T11:43:04.331Z</time>
      </trkpt>
      <trkpt lat="47.542982" lon="7.946547">
        <ele>303.462182</ele>
        <time>2021-11-22T11:43:08.931Z</time>
      </trkpt>
      <trkpt lat="47.542974" lon="7.946495">
        <ele>303.514475</ele>
        <time>2021-11-22T11:43:10.144Z</time>
      </trkpt>
      <trkpt lat="47.542960" lon="7.946400">
        <ele>303.609817</ele>
        <time>2021-11-22T11:43:11.980Z</time>
      </trkpt>
      <trkpt lat="47.542916" lon="7.945730">
        <ele>304.320092</ele>
        <time>2021-11-22T11:43:22.557Z</time>
      </trkpt>
      <trkpt lat="47.542913" lon="7.945267">
        <ele>304.827022</ele>
        <time>2021-11-22T11:43:30.043Z</time>
      </trkpt>
      <trkpt lat="47.543007" lon="7.943867">
        <ele>306.367347</ele>
        <time>2021-11-22T11:43:50.782Z</time>
      </trkpt>
      <trkpt lat="47.543161" lon="7.942213">
        <ele>306.450820</ele>
        <time>2021-11-22T11:44:09.189Z</time>
      </trkpt>
      <trkpt lat="47.543435" lon="7.940670">
        <ele>305.861983</ele>
        <time>2021-11-22T11:44:22.137Z</time>
      </trkpt>
      <trkpt lat="47.543826" lon="7.939433">
        <ele>304.330608</ele>
        <time>2021-11-22T11:44:32.538Z</time>
      </trkpt>
      <trkpt lat="47.544472" lon="7.937932">
        <ele>302.300171</ele>
        <time>2021-11-22T11:44:45.876Z</time>
      </trkpt>
      <trkpt lat="47.544705" lon="7.937395">
        <ele>301.554033</ele>
        <time>2021-11-22T11:44:50.761Z</time>
      </trkpt>
      <trkpt lat="47.544903" lon="7.936917">
        <ele>300.898533</ele>
        <time>2021-11-22T11:44:55.027Z</time>
      </trkpt>
      <trkpt lat="47.545074" lon="7.936484">
        <ele>300.312186</ele>
        <time>2021-11-22T11:44:58.852Z</time>
      </trkpt>
      <trkpt lat="47.545343" lon="7.935519">
        <ele>299.462421</ele>
        <time>2021-11-22T11:45:06.781Z</time>
      </trkpt>
      <trkpt lat="47.545398" lon="7.935320">
        <ele>299.309788</ele>
        <time>2021-11-22T11:45:08.461Z</time>
      </trkpt>
      <trkpt lat="47.545457" lon="7.935110">
        <ele>299.148333</ele>
        <time>2021-11-22T11:45:10.213Z</time>
      </trkpt>
      <trkpt lat="47.545674" lon="7.933625">
        <ele>298.219031</ele>
        <time>2021-11-22T11:45:23.302Z</time>
      </trkpt>
      <trkpt lat="47.545702" lon="7.933290">
        <ele>298.461236</ele>
        <time>2021-11-22T11:45:26.899Z</time>
      </trkpt>
      <trkpt lat="47.545724" lon="7.932758">
        <ele>298.843673</ele>
        <time>2021-11-22T11:45:32.946Z</time>
      </trkpt>
      <trkpt lat="47.545721" lon="7.931992">
        <ele>299.393304</ele>
        <time>2021-11-22T11:45:42.986Z</time>
      </trkpt>
      <trkpt lat="47.545696" lon="7.931497">
        <ele>299.749470</ele>
        <time>2021-11-22T11:45:50.191Z</time>
      </trkpt>
      <trkpt lat="47.545661" lon="7.930955">
        <ele>300.179493</ele>
        <time>2021-11-22T11:45:58.886Z</time>
      </trkpt>
      <trkpt lat="47.545563" lon="7.929641">
        <ele>301.571584</ele>
        <time>2021-11-22T11:46:21.226Z</time>
      </trkpt>
      <trkpt lat="47.545475" lon="7.928419">
        <ele>302.857033</ele>
        <time>2021-11-22T11:46:37.528Z</time>
      </trkpt>
      <trkpt lat="47.545421" lon="7.927686">
        <ele>301.851134</ele>
        <time>2021-11-22T11:46:43.632Z</time>
      </trkpt>
      <trkpt lat="47.545406" lon="7.927306">
        <ele>301.331851</ele>
        <time>2021-11-22T11:46:46.536Z</time>
      </trkpt>
      <trkpt lat="47.545407" lon="7.927001">
        <ele>300.915763</ele>
        <time>2021-11-22T11:46:48.822Z</time>
      </trkpt>
      <trkpt lat="47.545409" lon="7.926773">
        <ele>300.604698</ele>
        <time>2021-11-22T11:46:50.452Z</time>
      </trkpt>
      <trkpt lat="47.545417" lon="7.925848">
        <ele>299.342705</ele>
        <time>2021-11-22T11:46:56.787Z</time>
      </trkpt>
      <trkpt lat="47.545446" lon="7.925350">
        <ele>298.203008</ele>
        <time>2021-11-22T11:47:00.078Z</time>
      </trkpt>
      <trkpt lat="47.545466" lon="7.924880">
        <ele>297.040924</ele>
        <time>2021-11-22T11:47:03.132Z</time>
      </trkpt>
      <trkpt lat="47.545481" lon="7.924396">
        <ele>295.845338</ele>
        <time>2021-11-22T11:47:06.215Z</time>
      </trkpt>
      <trkpt lat="47.545521" lon="7.923709">
        <ele>294.143789</ele>
        <time>2021-11-22T11:47:10.741Z</time>
      </trkpt>
      <trkpt lat="47.545536" lon="7.923407">
        <ele>293.396554</ele>
        <time>2021-11-22T11:47:13.130Z</time>
      </trkpt>
      <trkpt lat="47.545553" lon="7.923142">
        <ele>292.739689</ele>
        <time>2021-11-22T11:47:14.851Z</time>
      </trkpt>
      <trkpt lat="47.545587" lon="7.922895">
        <ele>292.442906</ele>
        <time>2021-11-22T11:47:17.252Z</time>
      </trkpt>
      <trkpt lat="47.545641" lon="7.922610">
        <ele>292.157502</ele>
        <time>2021-11-22T11:47:19.251Z</time>
      </trkpt>
      <trkpt lat="47.545690" lon="7.922369">
        <ele>291.914828</ele>
        <time>2021-11-22T11:47:21.942Z</time>
      </trkpt>
      <trkpt lat="47.545699" lon="7.922325">
        <ele>291.870500</ele>
        <time>2021-11-22T11:47:22.203Z</time>
      </trkpt>
      <trkpt lat="47.545714" lon="7.922249">
        <ele>291.794156</ele>
        <time>2021-11-22T11:47:22.793Z</time>
      </trkpt>
      <trkpt lat="47.545778" lon="7.921947">
        <ele>291.488969</ele>
        <time>2021-11-22T11:47:25.949Z</time>
      </trkpt>
      <trkpt lat="47.545810" lon="7.921755">
        <ele>291.298292</ele>
        <time>2021-11-22T11:47:27.307Z</time>
      </trkpt>
      <trkpt lat="47.545881" lon="7.921096">
        <ele>290.654873</ele>
        <time>2021-11-22T11:47:32.655Z</time>
      </trkpt>
      <trkpt lat="47.545913" lon="7.920765">
        <ele>290.332482</ele>
        <time>2021-11-22T11:47:35.522Z</time>
      </trkpt>
      <trkpt lat="47.545973" lon="7.920313">
        <ele>290.031340</ele>
        <time>2021-11-22T11:47:40.669Z</time>
      </trkpt>
      <trkpt lat="47.546128" lon="7.919617">
        <ele>289.845524</ele>
        <time>2021-11-22T11:47:47.132Z</time>
      </trkpt>
      <trkpt lat="47.546262" lon="7.919081">
        <ele>289.700608</ele>
        <time>2021-11-22T11:47:53.131Z</time>
      </trkpt>
      <trkpt lat="47.546821" lon="7.916867">
        <ele>289.026713</ele>
        <time>2021-11-22T11:48:13.884Z</time>
      </trkpt>
      <trkpt lat="47.547032" lon="7.916218">
        <ele>288.799485</ele>
        <time>2021-11-22T11:48:20.374Z</time>
      </trkpt>
      <trkpt lat="47.547091" lon="7.916039">
        <ele>288.736650</ele>
        <time>2021-11-22T11:48:22.192Z</time>
      </trkpt>
      <trkpt lat="47.547113" lon="7.915971">
        <ele>288.712863</ele>
        <time>2021-11-22T11:48:22.791Z</time>
      </trkpt>
      <trkpt lat="47.547423" lon="7.915080">
        <ele>288.656971</ele>
        <time>2021-11-22T11:48:32.435Z</time>
      </trkpt>
      <trkpt lat="47.547994" lon="7.913433">
        <ele>288.969544</ele>
        <time>2021-11-22T11:48:52.154Z</time>
      </trkpt>
      <trkpt lat="47.548027" lon="7.913334">
        <ele>288.988184</ele>
        <time>2021-11-22T11:48:53.514Z</time>
      </trkpt>
      <trkpt lat="47.548412" lon="7.912168">
        <ele>289.728133</ele>
        <time>2021-11-22T11:49:09.917Z</time>
      </trkpt>
      <trkpt lat="47.549012" lon="7.910340">
        <ele>290.765443</ele>
        <time>2021-11-22T11:49:36.167Z</time>
      </trkpt>
      <trkpt lat="47.549102" lon="7.910058">
        <ele>290.811750</ele>
        <time>2021-11-22T11:49:39.450Z</time>
      </trkpt>
      <trkpt lat="47.549195" lon="7.909756">
        <ele>290.861027</ele>
        <time>2021-11-22T11:49:43.017Z</time>
      </trkpt>
      <trkpt lat="47.549345" lon="7.909257">
        <ele>290.942118</ele>
        <time>2021-11-22T11:49:48.352Z</time>
      </trkpt>
      <trkpt lat="47.549503" lon="7.908736">
        <ele>291.026908</ele>
        <time>2021-11-22T11:49:53.824Z</time>
      </trkpt>
      <trkpt lat="47.549520" lon="7.908678">
        <ele>291.036295</ele>
        <time>2021-11-22T11:49:54.525Z</time>
      </trkpt>
      <trkpt lat="47.549570" lon="7.908713">
        <ele>291.048458</ele>
        <time>2021-11-22T11:49:55.404Z</time>
      </trkpt>
      <trkpt lat="47.549716" lon="7.908814">
        <ele>291.083897</ele>
        <time>2021-11-22T11:49:58.719Z</time>
      </trkpt>
      <trkpt lat="47.549834" lon="7.908903">
        <ele>291.049152</ele>
        <time>2021-11-22T11:50:01.577Z</time>
      </trkpt>
      <trkpt lat="47.549868" lon="7.908936">
        <ele>291.036390</ele>
        <time>2021-11-22T11:50:02.226Z</time>
      </trkpt>
      <trkpt lat="47.550016" lon="7.908811">
        <ele>290.982902</ele>
        <time>2021-11-22T11:50:05.712Z</time>
      </trkpt>
      <trkpt lat="47.550232" lon="7.908622">
        <ele>290.904139</ele>
        <time>2021-11-22T11:50:10.464Z</time>
      </trkpt>
      <trkpt lat="47.550479" lon="7.908391">
        <ele>290.812430</ele>
        <time>2021-11-22T11:50:16.118Z</time>
      </trkpt>
      <trkpt lat="47.550899" lon="7.908013">
        <ele>290.658137</ele>
        <time>2021-11-22T11:50:25.184Z</time>
      </trkpt>
      <trkpt lat="47.551402" lon="7.907526">
        <ele>290.476488</ele>
        <time>2021-11-22T11:50:36.575Z</time>
      </trkpt>
      <trkpt lat="47.551792" lon="7.907172">
        <ele>290.352060</ele>
        <time>2021-11-22T11:50:45.866Z</time>
      </trkpt>
      <trkpt lat="47.552096" lon="7.906888">
        <ele>290.254288</ele>
        <time>2021-11-22T11:50:53.001Z</time>
      </trkpt>
      <trkpt lat="47.552226" lon="7.906759">
        <ele>290.211722</ele>
        <time>2021-11-22T11:50:56.060Z</time>
      </trkpt>
      <trkpt lat="47.552291" lon="7.906699">
        <ele>290.190888</ele>
        <time>2021-11-22T11:50:57.503Z</time>
      </trkpt>
      <trkpt lat="47.552608" lon="7.906402">
        <ele>290.088851</ele>
        <time>2021-11-22T11:51:04.575Z</time>
      </trkpt>
      <trkpt lat="47.552801" lon="7.906231">
        <ele>290.024314</ele>
        <time>2021-11-22T11:51:08.707Z</time>
      </trkpt>
      <trkpt lat="47.553136" lon="7.905906">
        <ele>289.841880</ele>
        <time>2021-11-22T11:51:15.918Z</time>
      </trkpt>
      <trkpt lat="47.553646" lon="7.905413">
        <ele>289.564443</ele>
        <time>2021-11-22T11:51:27.008Z</time>
      </trkpt>
      <trkpt lat="47.555020" lon="7.904104">
        <ele>289.185134</ele>
        <time>2021-11-22T11:51:58.672Z</time>
      </trkpt>
      <trkpt lat="47.555439" lon="7.903688">
        <ele>289.168734</ele>
        <time>2021-11-22T11:52:08.915Z</time>
      </trkpt>
      <trkpt lat="47.555887" lon="7.903437">
        <ele>289.158884</ele>
        <time>2021-11-22T11:52:19.041Z</time>
      </trkpt>
      <trkpt lat="47.556264" lon="7.903272">
        <ele>289.193775</ele>
        <time>2021-11-22T11:52:27.660Z</time>
      </trkpt>
      <trkpt lat="47.556264" lon="7.903272">
        <ele>289.193775</ele>
        <time>2021-11-22T11:52:27.693Z</time>
      </trkpt>
      <trkpt lat="47.556414" lon="7.903196">
        <ele>289.207845</ele>
        <time>2021-11-22T11:52:31.222Z</time>
      </trkpt>
      <trkpt lat="47.556927" lon="7.902928">
        <ele>289.256126</ele>
        <time>2021-11-22T11:52:42.250Z</time>
      </trkpt>
      <trkpt lat="47.557005" lon="7.902862">
        <ele>289.264098</ele>
        <time>2021-11-22T11:52:43.975Z</time>
      </trkpt>
      <trkpt lat="47.556937" lon="7.902666">
        <ele>289.277299</ele>
        <time>2021-11-22T11:52:46.214Z</time>
      </trkpt>
      <trkpt lat="47.556819" lon="7.902228">
        <ele>289.305548</ele>
        <time>2021-11-22T11:52:50.652Z</time>
      </trkpt>
      <trkpt lat="47.556915" lon="7.902195">
        <ele>289.314295</ele>
        <time>2021-11-22T11:52:52.516Z</time>
      </trkpt>
      <trkpt lat="47.557206" lon="7.902186">
        <ele>289.325348</ele>
        <time>2021-11-22T11:52:58.365Z</time>
      </trkpt>
      <trkpt lat="47.557459" lon="7.902177">
        <ele>289.334936</ele>
        <time>2021-11-22T11:53:03.287Z</time>
      </trkpt>
      <trkpt lat="47.558097" lon="7.902154">
        <ele>289.359115</ele>
        <time>2021-11-22T11:53:16.393Z</time>
      </trkpt>
      <trkpt lat="47.558210" lon="7.902153">
        <ele>289.363396</ele>
        <time>2021-11-22T11:53:18.840Z</time>
      </trkpt>
      <trkpt lat="47.558497" lon="7.902151">
        <ele>289.374270</ele>
        <time>2021-11-22T11:53:24.505Z</time>
      </trkpt>
      <trkpt lat="47.558807" lon="7.902157">
        <ele>289.522028</ele>
        <time>2021-11-22T11:53:30.695Z</time>
      </trkpt>
      <trkpt lat="47.559225" lon="7.902167">
        <ele>290.147887</ele>
        <time>2021-11-22T11:53:39.819Z</time>
      </trkpt>
      <trkpt lat="47.559545" lon="7.902173">
        <ele>290.626989</ele>
        <time>2021-11-22T11:53:47.611Z</time>
      </trkpt>
      <trkpt lat="47.559605" lon="7.902200">
        <ele>290.720864</ele>
        <time>2021-11-22T11:53:49.387Z</time>
      </trkpt>
      <trkpt lat="47.559887" lon="7.901206">
        <ele>291.810195</ele>
        <time>2021-11-22T11:54:09.994Z</time>
      </trkpt>
      <trkpt lat="47.560140" lon="7.900546">
        <ele>293.314702</ele>
        <time>2021-11-22T11:54:26.466Z</time>
      </trkpt>
      <trkpt lat="47.560252" lon="7.900273">
        <ele>294.111913</ele>
        <time>2021-11-22T11:54:33.617Z</time>
      </trkpt>
      <trkpt lat="47.560503" lon="7.899955">
        <ele>295.332984</ele>
        <time>2021-11-22T11:54:44.721Z</time>
      </trkpt>
      <trkpt lat="47.560560" lon="7.899898">
        <ele>295.587250</ele>
        <time>2021-11-22T11:54:47.539Z</time>
      </trkpt>
      <trkpt lat="47.560614" lon="7.899831">
        <ele>295.847671</ele>
        <time>2021-11-22T11:54:49.977Z</time>
      </trkpt>
      <trkpt lat="47.560752" lon="7.899659">
        <ele>296.514437</ele>
        <time>2021-11-22T11:54:56.096Z</time>
      </trkpt>
      <trkpt lat="47.561186" lon="7.899144">
        <ele>298.570317</ele>
        <time>2021-11-22T11:55:17.079Z</time>
      </trkpt>
      <trkpt lat="47.561263" lon="7.899045">
        <ele>299.047324</ele>
        <time>2021-11-22T11:55:20.820Z</time>
      </trkpt>
      <trkpt lat="47.561688" lon="7.898494">
        <ele>302.079499</ele>
        <time>2021-11-22T11:55:44.419Z</time>
      </trkpt>
      <trkpt lat="47.562186" lon="7.897876">
        <ele>305.567348</ele>
        <time>2021-11-22T11:56:11.201Z</time>
      </trkpt>
      <trkpt lat="47.562606" lon="7.897223">
        <ele>308.900252</ele>
        <time>2021-11-22T11:56:37.040Z</time>
      </trkpt>
      <trkpt lat="47.562667" lon="7.897011">
        <ele>309.853930</ele>
        <time>2021-11-22T11:56:44.401Z</time>
      </trkpt>
      <trkpt lat="47.563035" lon="7.895741">
        <ele>315.573201</ele>
        <time>2021-11-22T11:57:21.187Z</time>
      </trkpt>
      <trkpt lat="47.563087" lon="7.895432">
        <ele>316.890993</ele>
        <time>2021-11-22T11:57:31.003Z</time>
      </trkpt>
      <trkpt lat="47.563106" lon="7.895315">
        <ele>317.388956</ele>
        <time>2021-11-22T11:57:33.784Z</time>
      </trkpt>
      <trkpt lat="47.563147" lon="7.894977">
        <ele>318.810002</ele>
        <time>2021-11-22T11:57:43.676Z</time>
      </trkpt>
      <trkpt lat="47.563317" lon="7.893307">
        <ele>323.614273</ele>
        <time>2021-11-22T11:58:22.886Z</time>
      </trkpt>
      <trkpt lat="47.563330" lon="7.892455">
        <ele>325.934249</ele>
        <time>2021-11-22T11:58:38.293Z</time>
      </trkpt>
      <trkpt lat="47.563136" lon="7.890927">
        <ele>327.789855</ele>
        <time>2021-11-22T11:59:01.004Z</time>
      </trkpt>
      <trkpt lat="47.562987" lon="7.890433">
        <ele>328.261505</ele>
        <time>2021-11-22T11:59:07.714Z</time>
      </trkpt>
      <trkpt lat="47.562933" lon="7.890330">
        <ele>328.375197</ele>
        <time>2021-11-22T11:59:09.222Z</time>
      </trkpt>
      <trkpt lat="47.562868" lon="7.890182">
        <ele>328.529118</ele>
        <time>2021-11-22T11:59:11.274Z</time>
      </trkpt>
      <trkpt lat="47.563039" lon="7.889397">
        <ele>329.142532</ele>
        <time>2021-11-22T11:59:20.796Z</time>
      </trkpt>
      <trkpt lat="47.563560" lon="7.887288">
        <ele>330.287728</ele>
        <time>2021-11-22T11:59:47.112Z</time>
      </trkpt>
      <trkpt lat="47.563657" lon="7.886867">
        <ele>330.734419</ele>
        <time>2021-11-22T11:59:53.108Z</time>
      </trkpt>
      <trkpt lat="47.563909" lon="7.886506">
        <ele>331.359354</ele>
        <time>2021-11-22T12:00:00.397Z</time>
      </trkpt>
      <trkpt lat="47.565560" lon="7.884206">
        <ele>336.017119</ele>
        <time>2021-11-22T12:00:52.779Z</time>
      </trkpt>
      <trkpt lat="47.566604" lon="7.882741">
        <ele>339.678041</ele>
        <time>2021-11-22T12:01:30.273Z</time>
      </trkpt>
      <trkpt lat="47.566690" lon="7.882620">
        <ele>340.002320</ele>
        <time>2021-11-22T12:01:33.657Z</time>
      </trkpt>
      <trkpt lat="47.567774" lon="7.881098">
        <ele>343.231708</ele>
        <time>2021-11-22T12:02:12.287Z</time>
      </trkpt>
      <trkpt lat="47.568855" lon="7.879614">
        <ele>344.307540</ele>
        <time>2021-11-22T12:02:36.689Z</time>
      </trkpt>
      <trkpt lat="47.569889" lon="7.878149">
        <ele>342.510497</ele>
        <time>2021-11-22T12:02:52.982Z</time>
      </trkpt>
      <trkpt lat="47.569974" lon="7.878003">
        <ele>342.347043</ele>
        <time>2021-11-22T12:02:54.425Z</time>
      </trkpt>
      <trkpt lat="47.570440" lon="7.877017">
        <ele>341.240761</ele>
        <time>2021-11-22T12:03:03.732Z</time>
      </trkpt>
      <trkpt lat="47.570733" lon="7.876421">
        <ele>340.557400</ele>
        <time>2021-11-22T12:03:09.694Z</time>
      </trkpt>
      <trkpt lat="47.571645" lon="7.874516">
        <ele>338.573454</ele>
        <time>2021-11-22T12:03:28.282Z</time>
      </trkpt>
      <trkpt lat="47.571754" lon="7.874288">
        <ele>338.348300</ele>
        <time>2021-11-22T12:03:30.513Z</time>
      </trkpt>
      <trkpt lat="47.571863" lon="7.874062">
        <ele>338.124460</ele>
        <time>2021-11-22T12:03:32.751Z</time>
      </trkpt>
      <trkpt lat="47.572765" lon="7.872183">
        <ele>337.146463</ele>
        <time>2021-11-22T12:03:51.813Z</time>
      </trkpt>
      <trkpt lat="47.572867" lon="7.871849">
        <ele>337.041869</ele>
        <time>2021-11-22T12:03:55.445Z</time>
      </trkpt>
      <trkpt lat="47.573081" lon="7.871074">
        <ele>337.053974</ele>
        <time>2021-11-22T12:04:04.907Z</time>
      </trkpt>
      <trkpt lat="47.573242" lon="7.870224">
        <ele>337.769431</ele>
        <time>2021-11-22T12:04:16.571Z</time>
      </trkpt>
      <trkpt lat="47.573270" lon="7.869980">
        <ele>337.970003</ele>
        <time>2021-11-22T12:04:20.023Z</time>
      </trkpt>
      <trkpt lat="47.573327" lon="7.869478">
        <ele>338.382535</ele>
        <time>2021-11-22T12:04:27.519Z</time>
      </trkpt>
      <trkpt lat="47.573388" lon="7.869020">
        <ele>338.760852</ele>
        <time>2021-11-22T12:04:34.456Z</time>
      </trkpt>
      <trkpt lat="47.573580" lon="7.868234">
        <ele>338.776722</ele>
        <time>2021-11-22T12:04:45.709Z</time>
      </trkpt>
      <trkpt lat="47.573902" lon="7.867343">
        <ele>338.272342</ele>
        <time>2021-11-22T12:04:56.892Z</time>
      </trkpt>
      <trkpt lat="47.574034" lon="7.867032">
        <ele>338.088996</ele>
        <time>2021-11-22T12:04:59.949Z</time>
      </trkpt>
      <trkpt lat="47.574854" lon="7.865675">
        <ele>333.371888</ele>
        <time>2021-11-22T12:05:12.287Z</time>
      </trkpt>
      <trkpt lat="47.575475" lon="7.864127">
        <ele>325.685762</ele>
        <time>2021-11-22T12:05:23.011Z</time>
      </trkpt>
      <trkpt lat="47.575527" lon="7.863840">
        <ele>324.128312</ele>
        <time>2021-11-22T12:05:24.831Z</time>
      </trkpt>
      <trkpt lat="47.575529" lon="7.863765">
        <ele>323.734935</ele>
        <time>2021-11-22T12:05:25.253Z</time>
      </trkpt>
      <trkpt lat="47.575529" lon="7.863690">
        <ele>323.341866</ele>
        <time>2021-11-22T12:05:25.681Z</time>
      </trkpt>
      <trkpt lat="47.575296" lon="7.862440">
        <ele>316.545223</ele>
        <time>2021-11-22T12:05:33.360Z</time>
      </trkpt>
      <trkpt lat="47.575288" lon="7.862118">
        <ele>314.856493</ele>
        <time>2021-11-22T12:05:35.240Z</time>
      </trkpt>
      <trkpt lat="47.575373" lon="7.861941">
        <ele>313.717818</ele>
        <time>2021-11-22T12:05:36.600Z</time>
      </trkpt>
      <trkpt lat="47.576083" lon="7.861029">
        <ele>310.186768</ele>
        <time>2021-11-22T12:05:45.529Z</time>
      </trkpt>
      <trkpt lat="47.576292" lon="7.860775">
        <ele>309.361922</ele>
        <time>2021-11-22T12:05:48.361Z</time>
      </trkpt>
      <trkpt lat="47.576060" lon="7.860505">
        <ele>308.461703</ele>
        <time>2021-11-22T12:05:53.424Z</time>
      </trkpt>
      <trkpt lat="47.575661" lon="7.860260">
        <ele>307.143605</ele>
        <time>2021-11-22T12:06:00.806Z</time>
      </trkpt>
      <trkpt lat="47.575482" lon="7.860014">
        <ele>307.200962</ele>
        <time>2021-11-22T12:06:05.839Z</time>
      </trkpt>
      <trkpt lat="47.575090" lon="7.859216">
        <ele>307.382635</ele>
        <time>2021-11-22T12:06:20.731Z</time>
      </trkpt>
      <trkpt lat="47.574369" lon="7.857634">
        <ele>307.599041</ele>
        <time>2021-11-22T12:06:49.406Z</time>
      </trkpt>
      <trkpt lat="47.574089" lon="7.857293">
        <ele>307.574582</ele>
        <time>2021-11-22T12:06:56.335Z</time>
      </trkpt>
      <trkpt lat="47.573544" lon="7.856804">
        <ele>307.531583</ele>
        <time>2021-11-22T12:07:08.490Z</time>
      </trkpt>
      <trkpt lat="47.572923" lon="7.856141">
        <ele>307.291750</ele>
        <time>2021-11-22T12:07:23.630Z</time>
      </trkpt>
      <trkpt lat="47.572662" lon="7.855782">
        <ele>307.082996</ele>
        <time>2021-11-22T12:07:30.462Z</time>
      </trkpt>
      <trkpt lat="47.572495" lon="7.855552">
        <ele>306.949346</ele>
        <time>2021-11-22T12:07:34.594Z</time>
      </trkpt>
      <trkpt lat="47.572248" lon="7.855212">
        <ele>306.751720</ele>
        <time>2021-11-22T12:07:40.678Z</time>
      </trkpt>
      <trkpt lat="47.571837" lon="7.854626">
        <ele>306.396160</ele>
        <time>2021-11-22T12:07:50.725Z</time>
      </trkpt>
      <trkpt lat="47.571655" lon="7.854341">
        <ele>306.139711</ele>
        <time>2021-11-22T12:07:55.152Z</time>
      </trkpt>
      <trkpt lat="47.571552" lon="7.854175">
        <ele>305.992328</ele>
        <time>2021-11-22T12:07:57.794Z</time>
      </trkpt>
      <trkpt lat="47.571426" lon="7.854000">
        <ele>305.825072</ele>
        <time>2021-11-22T12:08:00.687Z</time>
      </trkpt>
      <trkpt lat="47.570995" lon="7.853612">
        <ele>305.336626</ele>
        <time>2021-11-22T12:08:09.427Z</time>
      </trkpt>
      <trkpt lat="47.571006" lon="7.853563">
        <ele>305.302878</ele>
        <time>2021-11-22T12:08:09.938Z</time>
      </trkpt>
      <trkpt lat="47.571040" lon="7.853377">
        <ele>305.176943</ele>
        <time>2021-11-22T12:08:12.104Z</time>
      </trkpt>
      <trkpt lat="47.570248" lon="7.851287">
        <ele>304.252044</ele>
        <time>2021-11-22T12:08:41.914Z</time>
      </trkpt>
      <trkpt lat="47.569969" lon="7.850553">
        <ele>304.023421</ele>
        <time>2021-11-22T12:08:53.205Z</time>
      </trkpt>
      <trkpt lat="47.569218" lon="7.848472">
        <ele>303.542508</ele>
        <time>2021-11-22T12:09:24.081Z</time>
      </trkpt>
      <trkpt lat="47.569190" lon="7.848402">
        <ele>303.526283</ele>
        <time>2021-11-22T12:09:25.064Z</time>
      </trkpt>
      <trkpt lat="47.568515" lon="7.846479">
        <ele>302.969092</ele>
        <time>2021-11-22T12:09:52.060Z</time>
      </trkpt>
      <trkpt lat="47.568494" lon="7.846252">
        <ele>302.907487</ele>
        <time>2021-11-22T12:09:55.080Z</time>
      </trkpt>
      <trkpt lat="47.568507" lon="7.846212">
        <ele>302.895549</ele>
        <time>2021-11-22T12:09:55.579Z</time>
      </trkpt>
      <trkpt lat="47.568447" lon="7.846163">
        <ele>302.868250</ele>
        <time>2021-11-22T12:09:56.935Z</time>
      </trkpt>
      <trkpt lat="47.568380" lon="7.846056">
        <ele>302.829000</ele>
        <time>2021-11-22T12:09:58.886Z</time>
      </trkpt>
      <trkpt lat="47.568337" lon="7.845953">
        <ele>302.796433</ele>
        <time>2021-11-22T12:10:00.494Z</time>
      </trkpt>
      <trkpt lat="47.568270" lon="7.845762">
        <ele>302.738552</ele>
        <time>2021-11-22T12:10:03.304Z</time>
      </trkpt>
      <trkpt lat="47.567488" lon="7.843506">
        <ele>302.573653</ele>
        <time>2021-11-22T12:10:37.492Z</time>
      </trkpt>
      <trkpt lat="47.567439" lon="7.843376">
        <ele>302.564534</ele>
        <time>2021-11-22T12:10:39.462Z</time>
      </trkpt>
      <trkpt lat="47.566996" lon="7.842102">
        <ele>302.537586</ele>
        <time>2021-11-22T12:10:58.336Z</time>
      </trkpt>
      <trkpt lat="47.566903" lon="7.841865">
        <ele>302.532431</ele>
        <time>2021-11-22T12:11:01.994Z</time>
      </trkpt>
      <trkpt lat="47.566723" lon="7.841436">
        <ele>302.522932</ele>
        <time>2021-11-22T12:11:08.953Z</time>
      </trkpt>
      <trkpt lat="47.566452" lon="7.840785">
        <ele>302.678699</ele>
        <time>2021-11-22T12:11:19.971Z</time>
      </trkpt>
      <trkpt lat="47.566401" lon="7.840664">
        <ele>302.751493</ele>
        <time>2021-11-22T12:11:22.009Z</time>
      </trkpt>
      <trkpt lat="47.566359" lon="7.840483">
        <ele>302.849153</ele>
        <time>2021-11-22T12:11:24.731Z</time>
      </trkpt>
      <trkpt lat="47.566350" lon="7.840350">
        <ele>302.917355</ele>
        <time>2021-11-22T12:11:26.783Z</time>
      </trkpt>
      <trkpt lat="47.566221" lon="7.840340">
        <ele>303.015038</ele>
        <time>2021-11-22T12:11:29.023Z</time>
      </trkpt>
      <trkpt lat="47.566142" lon="7.840322">
        <ele>303.075479</ele>
        <time>2021-11-22T12:11:30.238Z</time>
      </trkpt>
      <trkpt lat="47.566081" lon="7.840309">
        <ele>303.122081</ele>
        <time>2021-11-22T12:11:31.303Z</time>
      </trkpt>
      <trkpt lat="47.565906" lon="7.840272">
        <ele>303.255756</ele>
        <time>2021-11-22T12:11:34.615Z</time>
      </trkpt>
      <trkpt lat="47.565343" lon="7.840185">
        <ele>303.683802</ele>
        <time>2021-11-22T12:11:45.308Z</time>
      </trkpt>
      <trkpt lat="47.565233" lon="7.840176">
        <ele>303.767111</ele>
        <time>2021-11-22T12:11:47.498Z</time>
      </trkpt>
      <trkpt lat="47.565168" lon="7.840179">
        <ele>303.816287</ele>
        <time>2021-11-22T12:11:48.813Z</time>
      </trkpt>
      <trkpt lat="47.565057" lon="7.840213">
        <ele>303.912623</ele>
        <time>2021-11-22T12:11:50.966Z</time>
      </trkpt>
      <trkpt lat="47.564936" lon="7.840261">
        <ele>304.044238</ele>
        <time>2021-11-22T12:11:53.496Z</time>
      </trkpt>
      <trkpt lat="47.564558" lon="7.840516">
        <ele>304.480630</ele>
        <time>2021-11-22T12:12:01.764Z</time>
      </trkpt>
      <trkpt lat="47.564534" lon="7.840532">
        <ele>304.508282</ele>
        <time>2021-11-22T12:12:02.261Z</time>
      </trkpt>
      <trkpt lat="47.564463" lon="7.840580">
        <ele>304.590281</ele>
        <time>2021-11-22T12:12:03.875Z</time>
      </trkpt>
      <trkpt lat="47.564094" lon="7.840838">
        <ele>305.018988</ele>
        <time>2021-11-22T12:12:11.545Z</time>
      </trkpt>
      <trkpt lat="47.563986" lon="7.840916">
        <ele>305.145226</ele>
        <time>2021-11-22T12:12:13.828Z</time>
      </trkpt>
      <trkpt lat="47.563941" lon="7.840948">
        <ele>305.197671</ele>
        <time>2021-11-22T12:12:14.753Z</time>
      </trkpt>
      <trkpt lat="47.563805" lon="7.841046">
        <ele>305.356568</ele>
        <time>2021-11-22T12:12:17.566Z</time>
      </trkpt>
      <trkpt lat="47.563659" lon="7.841150">
        <ele>305.526778</ele>
        <time>2021-11-22T12:12:20.451Z</time>
      </trkpt>
      <trkpt lat="47.563483" lon="7.841269">
        <ele>305.730046</ele>
        <time>2021-11-22T12:12:24.186Z</time>
      </trkpt>
      <trkpt lat="47.563300" lon="7.841391">
        <ele>305.957848</ele>
        <time>2021-11-22T12:12:27.732Z</time>
      </trkpt>
      <trkpt lat="47.563016" lon="7.841568">
        <ele>306.312716</ele>
        <time>2021-11-22T12:12:33.555Z</time>
      </trkpt>
      <trkpt lat="47.562965" lon="7.841597">
        <ele>306.375634</ele>
        <time>2021-11-22T12:12:34.520Z</time>
      </trkpt>
      <trkpt lat="47.562904" lon="7.841632">
        <ele>306.450978</ele>
        <time>2021-11-22T12:12:35.746Z</time>
      </trkpt>
      <trkpt lat="47.562574" lon="7.841873">
        <ele>306.874727</ele>
        <time>2021-11-22T12:12:42.709Z</time>
      </trkpt>
      <trkpt lat="47.562440" lon="7.842083">
        <ele>307.099366</ele>
        <time>2021-11-22T12:12:46.299Z</time>
      </trkpt>
      <trkpt lat="47.562385" lon="7.842183">
        <ele>307.199637</ele>
        <time>2021-11-22T12:12:47.891Z</time>
      </trkpt>
      <trkpt lat="47.562300" lon="7.842326">
        <ele>307.347753</ele>
        <time>2021-11-22T12:12:50.783Z</time>
      </trkpt>
      <trkpt lat="47.562179" lon="7.842500">
        <ele>307.541954</ele>
        <time>2021-11-22T12:12:54.253Z</time>
      </trkpt>
      <trkpt lat="47.561617" lon="7.843020">
        <ele>308.293428</ele>
        <time>2021-11-22T12:13:08.225Z</time>
      </trkpt>
      <trkpt lat="47.561498" lon="7.843130">
        <ele>308.450955</ele>
        <time>2021-11-22T12:13:10.986Z</time>
      </trkpt>
      <trkpt lat="47.561434" lon="7.843181">
        <ele>308.532571</ele>
        <time>2021-11-22T12:13:12.773Z</time>
      </trkpt>
      <trkpt lat="47.561038" lon="7.843502">
        <ele>309.039535</ele>
        <time>2021-11-22T12:13:21.454Z</time>
      </trkpt>
      <trkpt lat="47.560934" lon="7.843550">
        <ele>309.161878</ele>
        <time>2021-11-22T12:13:23.618Z</time>
      </trkpt>
      <trkpt lat="47.560812" lon="7.843560">
        <ele>309.299113</ele>
        <time>2021-11-22T12:13:25.880Z</time>
      </trkpt>
      <trkpt lat="47.560515" lon="7.843379">
        <ele>309.659800</ele>
        <time>2021-11-22T12:13:31.632Z</time>
      </trkpt>
      <trkpt lat="47.560430" lon="7.843341">
        <ele>309.759518</ele>
        <time>2021-11-22T12:13:33.426Z</time>
      </trkpt>
      <trkpt lat="47.560338" lon="7.843341">
        <ele>309.856678</ele>
        <time>2021-11-22T12:13:34.643Z</time>
      </trkpt>
      <trkpt lat="47.560209" lon="7.843393">
        <ele>309.860377</ele>
        <time>2021-11-22T12:13:37.162Z</time>
      </trkpt>
      <trkpt lat="47.560139" lon="7.843433">
        <ele>309.862454</ele>
        <time>2021-11-22T12:13:38.506Z</time>
      </trkpt>
      <trkpt lat="47.559847" lon="7.843604">
        <ele>309.871142</ele>
        <time>2021-11-22T12:13:43.674Z</time>
      </trkpt>
      <trkpt lat="47.559583" lon="7.843813">
        <ele>309.879425</ele>
        <time>2021-11-22T12:13:48.165Z</time>
      </trkpt>
      <trkpt lat="47.559158" lon="7.844233">
        <ele>309.893562</ele>
        <time>2021-11-22T12:13:55.374Z</time>
      </trkpt>
      <trkpt lat="47.559109" lon="7.844229">
        <ele>309.894920</ele>
        <time>2021-11-22T12:13:55.964Z</time>
      </trkpt>
      <trkpt lat="47.559060" lon="7.844197">
        <ele>309.896402</ele>
        <time>2021-11-22T12:13:56.596Z</time>
      </trkpt>
      <trkpt lat="47.558884" lon="7.843836">
        <ele>309.904719</ele>
        <time>2021-11-22T12:14:00.747Z</time>
      </trkpt>
      <trkpt lat="47.558555" lon="7.843392">
        <ele>309.910787</ele>
        <time>2021-11-22T12:14:06.783Z</time>
      </trkpt>
      <trkpt lat="47.558471" lon="7.843365">
        <ele>309.911782</ele>
        <time>2021-11-22T12:14:08.040Z</time>
      </trkpt>
      <trkpt lat="47.558405" lon="7.843371">
        <ele>309.912547</ele>
        <time>2021-11-22T12:14:09.209Z</time>
      </trkpt>
      <trkpt lat="47.558136" lon="7.843582">
        <ele>309.916070</ele>
        <time>2021-11-22T12:14:13.417Z</time>
      </trkpt>
      <trkpt lat="47.557967" lon="7.843683">
        <ele>309.918180</ele>
        <time>2021-11-22T12:14:16.135Z</time>
      </trkpt>
      <trkpt lat="47.557846" lon="7.843756">
        <ele>309.919692</ele>
        <time>2021-11-22T12:14:17.979Z</time>
      </trkpt>
      <trkpt lat="47.557759" lon="7.843839">
        <ele>309.920890</ele>
        <time>2021-11-22T12:14:19.755Z</time>
      </trkpt>
      <trkpt lat="47.557715" lon="7.843940">
        <ele>309.921829</ele>
        <time>2021-11-22T12:14:20.984Z</time>
      </trkpt>
      <trkpt lat="47.557560" lon="7.844433">
        <ele>309.926077</ele>
        <time>2021-11-22T12:14:26.943Z</time>
      </trkpt>
      <trkpt lat="47.557282" lon="7.844832">
        <ele>310.124340</ele>
        <time>2021-11-22T12:14:33.376Z</time>
      </trkpt>
      <trkpt lat="47.557134" lon="7.845095">
        <ele>310.277644</ele>
        <time>2021-11-22T12:14:37.151Z</time>
      </trkpt>
      <trkpt lat="47.556636" lon="7.845928">
        <ele>310.775851</ele>
        <time>2021-11-22T12:14:50.006Z</time>
      </trkpt>
      <trkpt lat="47.556060" lon="7.846859">
        <ele>311.515448</ele>
        <time>2021-11-22T12:15:06.134Z</time>
      </trkpt>
      <trkpt lat="47.555990" lon="7.846965">
        <ele>311.634166</ele>
        <time>2021-11-22T12:15:08.117Z</time>
      </trkpt>
      <trkpt lat="47.555966" lon="7.846932">
        <ele>311.673001</ele>
        <time>2021-11-22T12:15:08.705Z</time>
      </trkpt>
      <trkpt lat="47.555892" lon="7.846856">
        <ele>311.779798</ele>
        <time>2021-11-22T12:15:10.261Z</time>
      </trkpt>
      <trkpt lat="47.555855" lon="7.846815">
        <ele>311.834600</ele>
        <time>2021-11-22T12:15:11.172Z</time>
      </trkpt>
      <trkpt lat="47.555727" lon="7.846715">
        <ele>312.006236</ele>
        <time>2021-11-22T12:15:14.173Z</time>
      </trkpt>
      <trkpt lat="47.555491" lon="7.846702">
        <ele>312.286358</ele>
        <time>2021-11-22T12:15:18.470Z</time>
      </trkpt>
      <trkpt lat="47.555199" lon="7.846687">
        <ele>312.632918</ele>
        <time>2021-11-22T12:15:24.140Z</time>
      </trkpt>
      <trkpt lat="47.555068" lon="7.846672">
        <ele>312.788766</ele>
        <time>2021-11-22T12:15:27.004Z</time>
      </trkpt>
      <trkpt lat="47.554995" lon="7.846915">
        <ele>313.001689</ele>
        <time>2021-11-22T12:15:30.727Z</time>
      </trkpt>
      <trkpt lat="47.554892" lon="7.847148">
        <ele>313.224658</ele>
        <time>2021-11-22T12:15:34.697Z</time>
      </trkpt>
      <trkpt lat="47.554759" lon="7.847388">
        <ele>313.512137</ele>
        <time>2021-11-22T12:15:39.017Z</time>
      </trkpt>
      <trkpt lat="47.554618" lon="7.847626">
        <ele>313.810561</ele>
        <time>2021-11-22T12:15:43.576Z</time>
      </trkpt>
      <trkpt lat="47.554465" lon="7.847858">
        <ele>314.116227</ele>
        <time>2021-11-22T12:15:48.214Z</time>
      </trkpt>
      <trkpt lat="47.554351" lon="7.848049">
        <ele>314.356499</ele>
        <time>2021-11-22T12:15:51.505Z</time>
      </trkpt>
      <trkpt lat="47.554269" lon="7.848188">
        <ele>314.530468</ele>
        <time>2021-11-22T12:15:53.992Z</time>
      </trkpt>
      <trkpt lat="47.554209" lon="7.848300">
        <ele>314.665217</ele>
        <time>2021-11-22T12:15:56.133Z</time>
      </trkpt>
      <trkpt lat="47.554055" lon="7.848586">
        <ele>315.009992</ele>
        <time>2021-11-22T12:16:00.932Z</time>
      </trkpt>
      <trkpt lat="47.553725" lon="7.849291">
        <ele>315.838079</ele>
        <time>2021-11-22T12:16:12.307Z</time>
      </trkpt>
      <trkpt lat="47.553605" lon="7.849629">
        <ele>316.330108</ele>
        <time>2021-11-22T12:16:17.826Z</time>
      </trkpt>
      <trkpt lat="47.553537" lon="7.849904">
        <ele>316.707429</ele>
        <time>2021-11-22T12:16:21.892Z</time>
      </trkpt>
      <trkpt lat="47.553380" lon="7.850453">
        <ele>317.475597</ele>
        <time>2021-11-22T12:16:30.795Z</time>
      </trkpt>
      <trkpt lat="47.553344" lon="7.850525">
        <ele>317.591039</ele>
        <time>2021-11-22T12:16:32.099Z</time>
      </trkpt>
      <trkpt lat="47.553283" lon="7.850634">
        <ele>317.773465</ele>
        <time>2021-11-22T12:16:34.165Z</time>
      </trkpt>
      <trkpt lat="47.552876" lon="7.851300">
        <ele>318.930978</ele>
        <time>2021-11-22T12:16:47.977Z</time>
      </trkpt>
      <trkpt lat="47.552678" lon="7.851709">
        <ele>319.838158</ele>
        <time>2021-11-22T12:16:56.646Z</time>
      </trkpt>
      <trkpt lat="47.552449" lon="7.852231">
        <ele>321.185084</ele>
        <time>2021-11-22T12:17:08.151Z</time>
      </trkpt>
      <trkpt lat="47.552272" lon="7.852167">
        <ele>321.769111</ele>
        <time>2021-11-22T12:17:13.549Z</time>
      </trkpt>
      <trkpt lat="47.552097" lon="7.852063">
        <ele>322.373518</ele>
        <time>2021-11-22T12:17:18.798Z</time>
      </trkpt>
      <trkpt lat="47.552042" lon="7.852007">
        <ele>322.587436</ele>
        <time>2021-11-22T12:17:21.196Z</time>
      </trkpt>
      <trkpt lat="47.551925" lon="7.851845">
        <ele>323.100756</ele>
        <time>2021-11-22T12:17:25.461Z</time>
      </trkpt>
      <trkpt lat="47.551878" lon="7.851725">
        <ele>323.400921</ele>
        <time>2021-11-22T12:17:28.150Z</time>
      </trkpt>
      <trkpt lat="47.551830" lon="7.851603">
        <ele>323.706438</ele>
        <time>2021-11-22T12:17:31.283Z</time>
      </trkpt>
      <trkpt lat="47.551660" lon="7.851725">
        <ele>324.311933</ele>
        <time>2021-11-22T12:17:36.518Z</time>
      </trkpt>
      <trkpt lat="47.551516" lon="7.851950">
        <ele>324.979960</ele>
        <time>2021-11-22T12:17:43.075Z</time>
      </trkpt>
      <trkpt lat="47.550221" lon="7.853833">
        <ele>329.873382</ele>
        <time>2021-11-22T12:18:30.367Z</time>
      </trkpt>
      <trkpt lat="47.549883" lon="7.854434">
        <ele>330.238087</ele>
        <time>2021-11-22T12:18:40.487Z</time>
      </trkpt>
      <trkpt lat="47.549566" lon="7.855225">
        <ele>330.666959</ele>
        <time>2021-11-22T12:18:54.346Z</time>
      </trkpt>
      <trkpt lat="47.549362" lon="7.855774">
        <ele>330.959129</ele>
        <time>2021-11-22T12:19:02.835Z</time>
      </trkpt>
      <trkpt lat="47.548887" lon="7.857308">
        <ele>331.167484</ele>
        <time>2021-11-22T12:19:24.943Z</time>
      </trkpt>
      <trkpt lat="47.548743" lon="7.857692">
        <ele>331.188648</ele>
        <time>2021-11-22T12:19:30.915Z</time>
      </trkpt>
      <trkpt lat="47.548701" lon="7.857893">
        <ele>331.198786</ele>
        <time>2021-11-22T12:19:33.886Z</time>
      </trkpt>
      <trkpt lat="47.548686" lon="7.857973">
        <ele>331.202786</ele>
        <time>2021-11-22T12:19:35.009Z</time>
      </trkpt>
      <trkpt lat="47.548611" lon="7.858381">
        <ele>331.223159</ele>
        <time>2021-11-22T12:19:41.223Z</time>
      </trkpt>
      <trkpt lat="47.548334" lon="7.859801">
        <ele>332.195352</ele>
        <time>2021-11-22T12:20:04.261Z</time>
      </trkpt>
      <trkpt lat="47.548049" lon="7.860929">
        <ele>333.055611</ele>
        <time>2021-11-22T12:20:25.279Z</time>
      </trkpt>
      <trkpt lat="47.547930" lon="7.861711">
        <ele>333.916849</ele>
        <time>2021-11-22T12:20:40.043Z</time>
      </trkpt>
      <trkpt lat="47.547568" lon="7.863151">
        <ele>335.653585</ele>
        <time>2021-11-22T12:21:09.171Z</time>
      </trkpt>
      <trkpt lat="47.547320" lon="7.863864">
        <ele>336.185521</ele>
        <time>2021-11-22T12:21:23.111Z</time>
      </trkpt>
      <trkpt lat="47.546974" lon="7.864423">
        <ele>336.270575</ele>
        <time>2021-11-22T12:21:33.934Z</time>
      </trkpt>
      <trkpt lat="47.546885" lon="7.864500">
        <ele>336.287698</ele>
        <time>2021-11-22T12:21:37.019Z</time>
      </trkpt>
      <trkpt lat="47.546894" lon="7.864837">
        <ele>336.325520</ele>
        <time>2021-11-22T12:21:40.903Z</time>
      </trkpt>
      <trkpt lat="47.546889" lon="7.865225">
        <ele>336.369039</ele>
        <time>2021-11-22T12:21:46.328Z</time>
      </trkpt>
      <trkpt lat="47.546819" lon="7.865489">
        <ele>336.400847</ele>
        <time>2021-11-22T12:21:50.272Z</time>
      </trkpt>
      <trkpt lat="47.546510" lon="7.865766">
        <ele>336.357751</ele>
        <time>2021-11-22T12:21:56.906Z</time>
      </trkpt>
      <trkpt lat="47.546327" lon="7.865959">
        <ele>336.178500</ele>
        <time>2021-11-22T12:22:00.421Z</time>
      </trkpt>
      <trkpt lat="47.546096" lon="7.866147">
        <ele>335.968188</ele>
        <time>2021-11-22T12:22:04.977Z</time>
      </trkpt>
      <trkpt lat="47.545240" lon="7.866887">
        <ele>335.177339</ele>
        <time>2021-11-22T12:22:21.651Z</time>
      </trkpt>
      <trkpt lat="47.545160" lon="7.866985">
        <ele>335.094504</ele>
        <time>2021-11-22T12:22:23.607Z</time>
      </trkpt>
      <trkpt lat="47.545003" lon="7.867278">
        <ele>335.165747</ele>
        <time>2021-11-22T12:22:29.275Z</time>
      </trkpt>
      <trkpt lat="47.544568" lon="7.867693">
        <ele>335.733578</ele>
        <time>2021-11-22T12:22:42.066Z</time>
      </trkpt>
      <trkpt lat="47.544469" lon="7.867776">
        <ele>335.858421</ele>
        <time>2021-11-22T12:22:44.928Z</time>
      </trkpt>
      <trkpt lat="47.544410" lon="7.867825">
        <ele>335.932653</ele>
        <time>2021-11-22T12:22:47.016Z</time>
      </trkpt>
      <trkpt lat="47.544246" lon="7.867967">
        <ele>336.141128</ele>
        <time>2021-11-22T12:22:51.700Z</time>
      </trkpt>
      <trkpt lat="47.544214" lon="7.867988">
        <ele>336.179538</ele>
        <time>2021-11-22T12:22:52.548Z</time>
      </trkpt>
      <trkpt lat="47.543801" lon="7.868269">
        <ele>336.678316</ele>
        <time>2021-11-22T12:23:04.151Z</time>
      </trkpt>
      <trkpt lat="47.543657" lon="7.868359">
        <ele>336.849842</ele>
        <time>2021-11-22T12:23:08.500Z</time>
      </trkpt>
      <trkpt lat="47.543201" lon="7.868657">
        <ele>337.417214</ele>
        <time>2021-11-22T12:23:18.701Z</time>
      </trkpt>
      <trkpt lat="47.543105" lon="7.868711">
        <ele>337.535448</ele>
        <time>2021-11-22T12:23:21.285Z</time>
      </trkpt>
      <trkpt lat="47.543049" lon="7.868759">
        <ele>337.609941</ele>
        <time>2021-11-22T12:23:22.662Z</time>
      </trkpt>
      <trkpt lat="47.542722" lon="7.869201">
        <ele>338.119623</ele>
        <time>2021-11-22T12:23:32.501Z</time>
      </trkpt>
      <trkpt lat="47.542696" lon="7.869257">
        <ele>338.172450</ele>
        <time>2021-11-22T12:23:33.327Z</time>
      </trkpt>
      <trkpt lat="47.542657" lon="7.869354">
        <ele>338.260202</ele>
        <time>2021-11-22T12:23:34.761Z</time>
      </trkpt>
      <trkpt lat="47.542372" lon="7.869746">
        <ele>338.707985</ele>
        <time>2021-11-22T12:23:41.838Z</time>
      </trkpt>
      <trkpt lat="47.542329" lon="7.869820">
        <ele>338.783876</ele>
        <time>2021-11-22T12:23:43.023Z</time>
      </trkpt>
      <trkpt lat="47.542348" lon="7.869983">
        <ele>338.912441</ele>
        <time>2021-11-22T12:23:44.577Z</time>
      </trkpt>
      <trkpt lat="47.542317" lon="7.870012">
        <ele>338.954656</ele>
        <time>2021-11-22T12:23:45.258Z</time>
      </trkpt>
      <trkpt lat="47.542181" lon="7.870131">
        <ele>339.052752</ele>
        <time>2021-11-22T12:23:47.768Z</time>
      </trkpt>
      <trkpt lat="47.542118" lon="7.870135">
        <ele>339.052752</ele>
        <time>2021-11-22T12:23:48.774Z</time>
      </trkpt>
      <trkpt lat="47.542014" lon="7.870126">
        <ele>339.052752</ele>
        <time>2021-11-22T12:23:50.141Z</time>
      </trkpt>
      <trkpt lat="47.541910" lon="7.870106">
        <ele>339.052752</ele>
        <time>2021-11-22T12:23:51.739Z</time>
      </trkpt>
      <trkpt lat="47.541702" lon="7.870324">
        <ele>339.052752</ele>
        <time>2021-11-22T12:23:55.215Z</time>
      </trkpt>
      <trkpt lat="47.541606" lon="7.870424">
        <ele>339.052752</ele>
        <time>2021-11-22T12:23:56.981Z</time>
      </trkpt>
      <trkpt lat="47.541521" lon="7.870517">
        <ele>339.052752</ele>
        <time>2021-11-22T12:23:58.422Z</time>
      </trkpt>
      <trkpt lat="47.541550" lon="7.870601">
        <ele>339.052752</ele>
        <time>2021-11-22T12:23:59.284Z</time>
      </trkpt>
      <trkpt lat="47.541576" lon="7.870664">
        <ele>339.052752</ele>
        <time>2021-11-22T12:23:59.957Z</time>
      </trkpt>
      <trkpt lat="47.541432" lon="7.870774">
        <ele>339.052752</ele>
        <time>2021-11-22T12:24:02.670Z</time>
      </trkpt>
    </trkseg>
  </trk>
</gpx>